<?xml version="1.0" encoding="UTF-8" standalone="no" ?>
<gpx xmlns="http://www.topografix.com/GPX/1/1" creator="MapSource 6.11.6" version="1.1" xmlns:xsi="http://www.w3.org/2001/XMLSchema-instance" xsi:schemaLocation="http://www.topografix.com/GPX/1/1 http://www.topografix.com/GPX/1/1/gpx.xsd">

  <metadata>
    <link href="http://www.garmin.com">
      <text>Garmin International</text>
    </link>
    <time>2009-09-14T15:56:58Z</time>
    <bounds maxlat="50.738012" maxlon="6.357597" minlat="50.691178" minlon="6.312891"/>
  </metadata>

  <trk>
    <name>Am Roten Wehebach</name>
    <link href="http://www.gpsies.com/map.do?fileId=nprpgbxvmpkcijdr"/>
    <extensions>
      <gpxx:TrackExtension xmlns:gpxx="http://www.garmin.com/xmlschemas/GpxExtensions/v3" xmlns:xsi="http://www.w3.org/2001/XMLSchema-instance" xsi:schemaLocation="http://www.garmin.com/xmlschemas/GpxExtensions/v3 http://www.garmin.com/xmlschemas/GpxExtensions/v3/GpxExtensionsv3.xsd">
        <gpxx:DisplayColor>White</gpxx:DisplayColor>
      </gpxx:TrackExtension>
    </extensions>
    <trkseg>
      <trkpt lat="50.711709" lon="6.353901">
        <ele>394.758540</ele>
        <time>2009-09-13T18:29:01Z</time>
      </trkpt>
      <trkpt lat="50.711712" lon="6.353841">
        <ele>391.393790</ele>
        <time>2009-09-13T18:29:02Z</time>
      </trkpt>
      <trkpt lat="50.711693" lon="6.353810">
        <ele>387.548580</ele>
        <time>2009-09-13T18:29:04Z</time>
      </trkpt>
      <trkpt lat="50.711694" lon="6.353805">
        <ele>386.587400</ele>
        <time>2009-09-13T18:29:04Z</time>
      </trkpt>
      <trkpt lat="50.711711" lon="6.353693">
        <ele>385.625970</ele>
        <time>2009-09-13T18:29:07Z</time>
      </trkpt>
      <trkpt lat="50.711713" lon="6.353548">
        <ele>384.184080</ele>
        <time>2009-09-13T18:29:10Z</time>
      </trkpt>
      <trkpt lat="50.711694" lon="6.353484">
        <ele>383.703240</ele>
        <time>2009-09-13T18:29:12Z</time>
      </trkpt>
      <trkpt lat="50.711679" lon="6.353493">
        <ele>382.261350</ele>
        <time>2009-09-13T18:29:13Z</time>
      </trkpt>
      <trkpt lat="50.711717" lon="6.353451">
        <ele>380.338740</ele>
        <time>2009-09-13T18:29:15Z</time>
      </trkpt>
      <trkpt lat="50.711748" lon="6.353374">
        <ele>381.300040</ele>
        <time>2009-09-13T18:29:17Z</time>
      </trkpt>
      <trkpt lat="50.711759" lon="6.353265">
        <ele>383.222650</ele>
        <time>2009-09-13T18:29:20Z</time>
      </trkpt>
      <trkpt lat="50.711760" lon="6.353218">
        <ele>383.222650</ele>
        <time>2009-09-13T18:29:21Z</time>
      </trkpt>
      <trkpt lat="50.711792" lon="6.353067">
        <ele>385.145380</ele>
        <time>2009-09-13T18:29:25Z</time>
      </trkpt>
      <trkpt lat="50.711897" lon="6.353026">
        <ele>384.184080</ele>
        <time>2009-09-13T18:29:29Z</time>
      </trkpt>
      <trkpt lat="50.711942" lon="6.353027">
        <ele>384.184080</ele>
        <time>2009-09-13T18:29:31Z</time>
      </trkpt>
      <trkpt lat="50.712048" lon="6.352997">
        <ele>387.067990</ele>
        <time>2009-09-13T18:29:35Z</time>
      </trkpt>
      <trkpt lat="50.712083" lon="6.352997">
        <ele>388.029290</ele>
        <time>2009-09-13T18:29:37Z</time>
      </trkpt>
      <trkpt lat="50.712197" lon="6.352997">
        <ele>388.029290</ele>
        <time>2009-09-13T18:29:41Z</time>
      </trkpt>
      <trkpt lat="50.712260" lon="6.353039">
        <ele>387.548580</ele>
        <time>2009-09-13T18:29:44Z</time>
      </trkpt>
      <trkpt lat="50.712254" lon="6.353046">
        <ele>385.625970</ele>
        <time>2009-09-13T18:29:44Z</time>
      </trkpt>
      <trkpt lat="50.712309" lon="6.353032">
        <ele>387.067990</ele>
        <time>2009-09-13T18:29:47Z</time>
      </trkpt>
      <trkpt lat="50.712444" lon="6.353022">
        <ele>383.222650</ele>
        <time>2009-09-13T18:29:52Z</time>
      </trkpt>
      <trkpt lat="50.712524" lon="6.353007">
        <ele>381.300040</ele>
        <time>2009-09-13T18:29:55Z</time>
      </trkpt>
      <trkpt lat="50.712646" lon="6.353000">
        <ele>380.819450</ele>
        <time>2009-09-13T18:30:00Z</time>
      </trkpt>
      <trkpt lat="50.712760" lon="6.353013">
        <ele>383.703240</ele>
        <time>2009-09-13T18:30:05Z</time>
      </trkpt>
      <trkpt lat="50.712826" lon="6.353007">
        <ele>381.780630</ele>
        <time>2009-09-13T18:30:07Z</time>
      </trkpt>
      <trkpt lat="50.712929" lon="6.353026">
        <ele>378.416130</ele>
        <time>2009-09-13T18:30:11Z</time>
      </trkpt>
      <trkpt lat="50.713031" lon="6.353068">
        <ele>380.338740</ele>
        <time>2009-09-13T18:30:16Z</time>
      </trkpt>
      <trkpt lat="50.713130" lon="6.353149">
        <ele>378.416130</ele>
        <time>2009-09-13T18:30:20Z</time>
      </trkpt>
      <trkpt lat="50.713212" lon="6.353220">
        <ele>381.780630</ele>
        <time>2009-09-13T18:30:24Z</time>
      </trkpt>
      <trkpt lat="50.713292" lon="6.353288">
        <ele>379.377440</ele>
        <time>2009-09-13T18:30:27Z</time>
      </trkpt>
      <trkpt lat="50.713343" lon="6.353337">
        <ele>376.974240</ele>
        <time>2009-09-13T18:30:30Z</time>
      </trkpt>
      <trkpt lat="50.713419" lon="6.353417">
        <ele>374.090080</ele>
        <time>2009-09-13T18:30:34Z</time>
      </trkpt>
      <trkpt lat="50.713504" lon="6.353505">
        <ele>375.051510</ele>
        <time>2009-09-13T18:30:38Z</time>
      </trkpt>
      <trkpt lat="50.713591" lon="6.353599">
        <ele>373.609490</ele>
        <time>2009-09-13T18:30:42Z</time>
      </trkpt>
      <trkpt lat="50.713662" lon="6.353672">
        <ele>375.051510</ele>
        <time>2009-09-13T18:30:45Z</time>
      </trkpt>
      <trkpt lat="50.713732" lon="6.353785">
        <ele>371.686880</ele>
        <time>2009-09-13T18:30:49Z</time>
      </trkpt>
      <trkpt lat="50.713771" lon="6.353887">
        <ele>368.322260</ele>
        <time>2009-09-13T18:30:52Z</time>
      </trkpt>
      <trkpt lat="50.713773" lon="6.353905">
        <ele>368.322260</ele>
        <time>2009-09-13T18:30:53Z</time>
      </trkpt>
      <trkpt lat="50.713813" lon="6.354004">
        <ele>366.880240</ele>
        <time>2009-09-13T18:30:56Z</time>
      </trkpt>
      <trkpt lat="50.713849" lon="6.354128">
        <ele>363.996330</ele>
        <time>2009-09-13T18:30:59Z</time>
      </trkpt>
      <trkpt lat="50.713884" lon="6.354284">
        <ele>366.880240</ele>
        <time>2009-09-13T18:31:03Z</time>
      </trkpt>
      <trkpt lat="50.713944" lon="6.354461">
        <ele>369.764280</ele>
        <time>2009-09-13T18:31:08Z</time>
      </trkpt>
      <trkpt lat="50.714008" lon="6.354581">
        <ele>369.764280</ele>
        <time>2009-09-13T18:31:12Z</time>
      </trkpt>
      <trkpt lat="50.714022" lon="6.354617">
        <ele>369.764280</ele>
        <time>2009-09-13T18:31:14Z</time>
      </trkpt>
      <trkpt lat="50.714094" lon="6.354729">
        <ele>371.206290</ele>
        <time>2009-09-13T18:31:18Z</time>
      </trkpt>
      <trkpt lat="50.714192" lon="6.354859">
        <ele>369.764280</ele>
        <time>2009-09-13T18:31:23Z</time>
      </trkpt>
      <trkpt lat="50.714251" lon="6.354937">
        <ele>369.283690</ele>
        <time>2009-09-13T18:31:26Z</time>
      </trkpt>
      <trkpt lat="50.714300" lon="6.354992">
        <ele>370.244870</ele>
        <time>2009-09-13T18:31:28Z</time>
      </trkpt>
      <trkpt lat="50.714372" lon="6.355073">
        <ele>369.764280</ele>
        <time>2009-09-13T18:31:32Z</time>
      </trkpt>
      <trkpt lat="50.714426" lon="6.355114">
        <ele>371.206290</ele>
        <time>2009-09-13T18:31:34Z</time>
      </trkpt>
      <trkpt lat="50.714501" lon="6.355232">
        <ele>376.012810</ele>
        <time>2009-09-13T18:31:38Z</time>
      </trkpt>
      <trkpt lat="50.714568" lon="6.355354">
        <ele>371.206290</ele>
        <time>2009-09-13T18:31:42Z</time>
      </trkpt>
      <trkpt lat="50.714637" lon="6.355450">
        <ele>368.802970</ele>
        <time>2009-09-13T18:31:46Z</time>
      </trkpt>
      <trkpt lat="50.714704" lon="6.355525">
        <ele>369.283690</ele>
        <time>2009-09-13T18:31:49Z</time>
      </trkpt>
      <trkpt lat="50.714790" lon="6.355597">
        <ele>373.609490</ele>
        <time>2009-09-13T18:31:53Z</time>
      </trkpt>
      <trkpt lat="50.714817" lon="6.355607">
        <ele>376.012810</ele>
        <time>2009-09-13T18:31:54Z</time>
      </trkpt>
      <trkpt lat="50.714935" lon="6.355721">
        <ele>382.261350</ele>
        <time>2009-09-13T18:32:00Z</time>
      </trkpt>
      <trkpt lat="50.715028" lon="6.355817">
        <ele>382.261350</ele>
        <time>2009-09-13T18:32:04Z</time>
      </trkpt>
      <trkpt lat="50.715067" lon="6.355989">
        <ele>375.532100</ele>
        <time>2009-09-13T18:32:09Z</time>
      </trkpt>
      <trkpt lat="50.715130" lon="6.356186">
        <ele>375.532100</ele>
        <time>2009-09-13T18:32:15Z</time>
      </trkpt>
      <trkpt lat="50.715148" lon="6.356350">
        <ele>369.283690</ele>
        <time>2009-09-13T18:32:19Z</time>
      </trkpt>
      <trkpt lat="50.715221" lon="6.356503">
        <ele>371.206290</ele>
        <time>2009-09-13T18:32:24Z</time>
      </trkpt>
      <trkpt lat="50.715210" lon="6.356593">
        <ele>371.206290</ele>
        <time>2009-09-13T18:32:26Z</time>
      </trkpt>
      <trkpt lat="50.715153" lon="6.356669">
        <ele>367.841550</ele>
        <time>2009-09-13T18:32:29Z</time>
      </trkpt>
      <trkpt lat="50.715158" lon="6.356794">
        <ele>366.880240</ele>
        <time>2009-09-13T18:32:32Z</time>
      </trkpt>
      <trkpt lat="50.715214" lon="6.356996">
        <ele>364.476920</ele>
        <time>2009-09-13T18:32:38Z</time>
      </trkpt>
      <trkpt lat="50.715211" lon="6.357098">
        <ele>361.593130</ele>
        <time>2009-09-13T18:32:40Z</time>
      </trkpt>
      <trkpt lat="50.715252" lon="6.357243">
        <ele>357.747800</ele>
        <time>2009-09-13T18:32:44Z</time>
      </trkpt>
      <trkpt lat="50.715329" lon="6.357412">
        <ele>366.399530</ele>
        <time>2009-09-13T18:32:50Z</time>
      </trkpt>
      <trkpt lat="50.715375" lon="6.357449">
        <ele>368.802970</ele>
        <time>2009-09-13T18:32:52Z</time>
      </trkpt>
      <trkpt lat="50.715453" lon="6.357504">
        <ele>372.167480</ele>
        <time>2009-09-13T18:32:55Z</time>
      </trkpt>
      <trkpt lat="50.715563" lon="6.357560">
        <ele>370.244870</ele>
        <time>2009-09-13T18:33:00Z</time>
      </trkpt>
      <trkpt lat="50.715667" lon="6.357597">
        <ele>367.841550</ele>
        <time>2009-09-13T18:33:04Z</time>
      </trkpt>
      <trkpt lat="50.715714" lon="6.357596">
        <ele>362.554320</ele>
        <time>2009-09-13T18:33:06Z</time>
      </trkpt>
      <trkpt lat="50.715756" lon="6.357594">
        <ele>359.670410</ele>
        <time>2009-09-13T18:33:08Z</time>
      </trkpt>
      <trkpt lat="50.715804" lon="6.357589">
        <ele>353.421870</ele>
        <time>2009-09-13T18:33:10Z</time>
      </trkpt>
      <trkpt lat="50.715859" lon="6.357573">
        <ele>346.692620</ele>
        <time>2009-09-13T18:33:12Z</time>
      </trkpt>
      <trkpt lat="50.715926" lon="6.357558">
        <ele>341.885980</ele>
        <time>2009-09-13T18:33:14Z</time>
      </trkpt>
      <trkpt lat="50.715943" lon="6.357543">
        <ele>340.444090</ele>
        <time>2009-09-13T18:33:15Z</time>
      </trkpt>
      <trkpt lat="50.715978" lon="6.357478">
        <ele>335.637320</ele>
        <time>2009-09-13T18:33:17Z</time>
      </trkpt>
      <trkpt lat="50.716091" lon="6.357351">
        <ele>341.405270</ele>
        <time>2009-09-13T18:33:23Z</time>
      </trkpt>
      <trkpt lat="50.716177" lon="6.357253">
        <ele>347.653930</ele>
        <time>2009-09-13T18:33:27Z</time>
      </trkpt>
      <trkpt lat="50.716226" lon="6.357214">
        <ele>356.305780</ele>
        <time>2009-09-13T18:33:29Z</time>
      </trkpt>
      <trkpt lat="50.716224" lon="6.357228">
        <ele>355.344480</ele>
        <time>2009-09-13T18:33:30Z</time>
      </trkpt>
      <trkpt lat="50.716302" lon="6.357090">
        <ele>357.267080</ele>
        <time>2009-09-13T18:33:34Z</time>
      </trkpt>
      <trkpt lat="50.716388" lon="6.356866">
        <ele>364.957640</ele>
        <time>2009-09-13T18:33:41Z</time>
      </trkpt>
      <trkpt lat="50.716484" lon="6.356781">
        <ele>369.764280</ele>
        <time>2009-09-13T18:33:46Z</time>
      </trkpt>
      <trkpt lat="50.716554" lon="6.356634">
        <ele>373.609490</ele>
        <time>2009-09-13T18:33:50Z</time>
      </trkpt>
      <trkpt lat="50.716579" lon="6.356485">
        <ele>371.686880</ele>
        <time>2009-09-13T18:33:54Z</time>
      </trkpt>
      <trkpt lat="50.716594" lon="6.356382">
        <ele>370.244870</ele>
        <time>2009-09-13T18:33:57Z</time>
      </trkpt>
      <trkpt lat="50.716599" lon="6.356225">
        <ele>365.438350</ele>
        <time>2009-09-13T18:34:01Z</time>
      </trkpt>
      <trkpt lat="50.716606" lon="6.356212">
        <ele>364.476920</ele>
        <time>2009-09-13T18:34:01Z</time>
      </trkpt>
      <trkpt lat="50.716631" lon="6.356057">
        <ele>355.344480</ele>
        <time>2009-09-13T18:34:05Z</time>
      </trkpt>
      <trkpt lat="50.716627" lon="6.356033">
        <ele>354.383170</ele>
        <time>2009-09-13T18:34:06Z</time>
      </trkpt>
      <trkpt lat="50.716656" lon="6.356003">
        <ele>355.825190</ele>
        <time>2009-09-13T18:34:07Z</time>
      </trkpt>
      <trkpt lat="50.716724" lon="6.355902">
        <ele>358.228390</ele>
        <time>2009-09-13T18:34:11Z</time>
      </trkpt>
      <trkpt lat="50.716730" lon="6.355819">
        <ele>352.460570</ele>
        <time>2009-09-13T18:34:13Z</time>
      </trkpt>
      <trkpt lat="50.716763" lon="6.355689">
        <ele>352.460570</ele>
        <time>2009-09-13T18:34:17Z</time>
      </trkpt>
      <trkpt lat="50.716925" lon="6.355595">
        <ele>369.764280</ele>
        <time>2009-09-13T18:34:24Z</time>
      </trkpt>
      <trkpt lat="50.716935" lon="6.355494">
        <ele>368.322260</ele>
        <time>2009-09-13T18:34:26Z</time>
      </trkpt>
      <trkpt lat="50.716922" lon="6.355277">
        <ele>363.035030</ele>
        <time>2009-09-13T18:34:32Z</time>
      </trkpt>
      <trkpt lat="50.716943" lon="6.355248">
        <ele>363.035030</ele>
        <time>2009-09-13T18:34:33Z</time>
      </trkpt>
      <trkpt lat="50.716976" lon="6.355173">
        <ele>358.228390</ele>
        <time>2009-09-13T18:34:35Z</time>
      </trkpt>
      <trkpt lat="50.717049" lon="6.355075">
        <ele>361.593130</ele>
        <time>2009-09-13T18:34:39Z</time>
      </trkpt>
      <trkpt lat="50.717100" lon="6.354943">
        <ele>363.035030</ele>
        <time>2009-09-13T18:34:43Z</time>
      </trkpt>
      <trkpt lat="50.717133" lon="6.354853">
        <ele>349.095820</ele>
        <time>2009-09-13T18:34:45Z</time>
      </trkpt>
      <trkpt lat="50.717156" lon="6.354807">
        <ele>347.173210</ele>
        <time>2009-09-13T18:34:47Z</time>
      </trkpt>
      <trkpt lat="50.717353" lon="6.354757">
        <ele>361.593130</ele>
        <time>2009-09-13T18:34:55Z</time>
      </trkpt>
      <trkpt lat="50.717482" lon="6.354695">
        <ele>368.802970</ele>
        <time>2009-09-13T18:35:00Z</time>
      </trkpt>
      <trkpt lat="50.717529" lon="6.354661">
        <ele>369.764280</ele>
        <time>2009-09-13T18:35:02Z</time>
      </trkpt>
      <trkpt lat="50.717570" lon="6.354592">
        <ele>365.918940</ele>
        <time>2009-09-13T18:35:05Z</time>
      </trkpt>
      <trkpt lat="50.717648" lon="6.354494">
        <ele>369.764280</ele>
        <time>2009-09-13T18:35:09Z</time>
      </trkpt>
      <trkpt lat="50.717628" lon="6.354423">
        <ele>366.880240</ele>
        <time>2009-09-13T18:35:11Z</time>
      </trkpt>
      <trkpt lat="50.717616" lon="6.354365">
        <ele>362.554320</ele>
        <time>2009-09-13T18:35:12Z</time>
      </trkpt>
      <trkpt lat="50.717580" lon="6.354257">
        <ele>355.825190</ele>
        <time>2009-09-13T18:35:15Z</time>
      </trkpt>
      <trkpt lat="50.717554" lon="6.354209">
        <ele>352.460570</ele>
        <time>2009-09-13T18:35:17Z</time>
      </trkpt>
      <trkpt lat="50.717456" lon="6.354061">
        <ele>341.405270</ele>
        <time>2009-09-13T18:35:22Z</time>
      </trkpt>
      <trkpt lat="50.717445" lon="6.354007">
        <ele>339.002070</ele>
        <time>2009-09-13T18:35:24Z</time>
      </trkpt>
      <trkpt lat="50.717582" lon="6.353918">
        <ele>344.289420</ele>
        <time>2009-09-13T18:35:30Z</time>
      </trkpt>
      <trkpt lat="50.717744" lon="6.353951">
        <ele>345.731320</ele>
        <time>2009-09-13T18:35:36Z</time>
      </trkpt>
      <trkpt lat="50.717899" lon="6.354014">
        <ele>352.941160</ele>
        <time>2009-09-13T18:35:43Z</time>
      </trkpt>
      <trkpt lat="50.717934" lon="6.354037">
        <ele>353.421870</ele>
        <time>2009-09-13T18:35:44Z</time>
      </trkpt>
      <trkpt lat="50.718051" lon="6.354124">
        <ele>352.941160</ele>
        <time>2009-09-13T18:35:49Z</time>
      </trkpt>
      <trkpt lat="50.718111" lon="6.354177">
        <ele>351.018430</ele>
        <time>2009-09-13T18:35:52Z</time>
      </trkpt>
      <trkpt lat="50.718164" lon="6.354256">
        <ele>344.289420</ele>
        <time>2009-09-13T18:35:55Z</time>
      </trkpt>
      <trkpt lat="50.718255" lon="6.354325">
        <ele>343.808590</ele>
        <time>2009-09-13T18:35:59Z</time>
      </trkpt>
      <trkpt lat="50.718328" lon="6.354360">
        <ele>344.770010</ele>
        <time>2009-09-13T18:36:02Z</time>
      </trkpt>
      <trkpt lat="50.718415" lon="6.354341">
        <ele>339.963370</ele>
        <time>2009-09-13T18:36:06Z</time>
      </trkpt>
      <trkpt lat="50.718430" lon="6.354291">
        <ele>329.388910</ele>
        <time>2009-09-13T18:36:07Z</time>
      </trkpt>
      <trkpt lat="50.718483" lon="6.354244">
        <ele>326.504880</ele>
        <time>2009-09-13T18:36:10Z</time>
      </trkpt>
      <trkpt lat="50.718602" lon="6.354187">
        <ele>328.908320</ele>
        <time>2009-09-13T18:36:15Z</time>
      </trkpt>
      <trkpt lat="50.718631" lon="6.354156">
        <ele>320.256340</ele>
        <time>2009-09-13T18:36:16Z</time>
      </trkpt>
      <trkpt lat="50.718692" lon="6.354096">
        <ele>318.333610</ele>
        <time>2009-09-13T18:36:19Z</time>
      </trkpt>
      <trkpt lat="50.718706" lon="6.354095">
        <ele>318.333610</ele>
        <time>2009-09-13T18:36:19Z</time>
      </trkpt>
      <trkpt lat="50.718835" lon="6.354013">
        <ele>315.930410</ele>
        <time>2009-09-13T18:36:25Z</time>
      </trkpt>
      <trkpt lat="50.719003" lon="6.353949">
        <ele>331.311520</ele>
        <time>2009-09-13T18:36:32Z</time>
      </trkpt>
      <trkpt lat="50.719135" lon="6.353905">
        <ele>339.963370</ele>
        <time>2009-09-13T18:36:37Z</time>
      </trkpt>
      <trkpt lat="50.719245" lon="6.353900">
        <ele>343.327880</ele>
        <time>2009-09-13T18:36:42Z</time>
      </trkpt>
      <trkpt lat="50.719373" lon="6.353883">
        <ele>340.924680</ele>
        <time>2009-09-13T18:36:47Z</time>
      </trkpt>
      <trkpt lat="50.719457" lon="6.353870">
        <ele>340.444090</ele>
        <time>2009-09-13T18:36:50Z</time>
      </trkpt>
      <trkpt lat="50.719578" lon="6.353840">
        <ele>339.482660</ele>
        <time>2009-09-13T18:36:55Z</time>
      </trkpt>
      <trkpt lat="50.719590" lon="6.353827">
        <ele>335.156730</ele>
        <time>2009-09-13T18:36:56Z</time>
      </trkpt>
      <trkpt lat="50.719679" lon="6.353819">
        <ele>339.963370</ele>
        <time>2009-09-13T18:36:59Z</time>
      </trkpt>
      <trkpt lat="50.719808" lon="6.353819">
        <ele>341.885980</ele>
        <time>2009-09-13T18:37:04Z</time>
      </trkpt>
      <trkpt lat="50.719821" lon="6.353815">
        <ele>340.924680</ele>
        <time>2009-09-13T18:37:05Z</time>
      </trkpt>
      <trkpt lat="50.719880" lon="6.353777">
        <ele>340.444090</ele>
        <time>2009-09-13T18:37:08Z</time>
      </trkpt>
      <trkpt lat="50.719953" lon="6.353793">
        <ele>334.195430</ele>
        <time>2009-09-13T18:37:10Z</time>
      </trkpt>
      <trkpt lat="50.720037" lon="6.353776">
        <ele>328.427610</ele>
        <time>2009-09-13T18:37:14Z</time>
      </trkpt>
      <trkpt lat="50.720165" lon="6.353735">
        <ele>331.311520</ele>
        <time>2009-09-13T18:37:19Z</time>
      </trkpt>
      <trkpt lat="50.720239" lon="6.353728">
        <ele>331.792110</ele>
        <time>2009-09-13T18:37:22Z</time>
      </trkpt>
      <trkpt lat="50.720350" lon="6.353683">
        <ele>337.560050</ele>
        <time>2009-09-13T18:37:27Z</time>
      </trkpt>
      <trkpt lat="50.720434" lon="6.353675">
        <ele>337.079460</ele>
        <time>2009-09-13T18:37:30Z</time>
      </trkpt>
      <trkpt lat="50.720545" lon="6.353658">
        <ele>334.195430</ele>
        <time>2009-09-13T18:37:34Z</time>
      </trkpt>
      <trkpt lat="50.720630" lon="6.353673">
        <ele>334.195430</ele>
        <time>2009-09-13T18:37:38Z</time>
      </trkpt>
      <trkpt lat="50.720722" lon="6.353649">
        <ele>334.195430</ele>
        <time>2009-09-13T18:37:42Z</time>
      </trkpt>
      <trkpt lat="50.720731" lon="6.353646">
        <ele>333.234130</ele>
        <time>2009-09-13T18:37:42Z</time>
      </trkpt>
      <trkpt lat="50.720766" lon="6.353633">
        <ele>327.466180</ele>
        <time>2009-09-13T18:37:43Z</time>
      </trkpt>
      <trkpt lat="50.720864" lon="6.353641">
        <ele>326.024160</ele>
        <time>2009-09-13T18:37:47Z</time>
      </trkpt>
      <trkpt lat="50.720962" lon="6.353643">
        <ele>324.101560</ele>
        <time>2009-09-13T18:37:51Z</time>
      </trkpt>
      <trkpt lat="50.721007" lon="6.353632">
        <ele>323.140380</ele>
        <time>2009-09-13T18:37:53Z</time>
      </trkpt>
      <trkpt lat="50.721088" lon="6.353619">
        <ele>325.543570</ele>
        <time>2009-09-13T18:37:56Z</time>
      </trkpt>
      <trkpt lat="50.721106" lon="6.353629">
        <ele>324.101560</ele>
        <time>2009-09-13T18:37:57Z</time>
      </trkpt>
      <trkpt lat="50.721149" lon="6.353624">
        <ele>320.737060</ele>
        <time>2009-09-13T18:37:59Z</time>
      </trkpt>
      <trkpt lat="50.721285" lon="6.353613">
        <ele>324.582270</ele>
        <time>2009-09-13T18:38:04Z</time>
      </trkpt>
      <trkpt lat="50.721417" lon="6.353617">
        <ele>330.350210</ele>
        <time>2009-09-13T18:38:10Z</time>
      </trkpt>
      <trkpt lat="50.721542" lon="6.353587">
        <ele>333.714720</ele>
        <time>2009-09-13T18:38:15Z</time>
      </trkpt>
      <trkpt lat="50.721583" lon="6.353542">
        <ele>334.195430</ele>
        <time>2009-09-13T18:38:17Z</time>
      </trkpt>
      <trkpt lat="50.721669" lon="6.353531">
        <ele>333.714720</ele>
        <time>2009-09-13T18:38:20Z</time>
      </trkpt>
      <trkpt lat="50.721697" lon="6.353454">
        <ele>330.830930</ele>
        <time>2009-09-13T18:38:22Z</time>
      </trkpt>
      <trkpt lat="50.721729" lon="6.353411">
        <ele>326.024160</ele>
        <time>2009-09-13T18:38:24Z</time>
      </trkpt>
      <trkpt lat="50.721787" lon="6.353361">
        <ele>327.466180</ele>
        <time>2009-09-13T18:38:27Z</time>
      </trkpt>
      <trkpt lat="50.721860" lon="6.353338">
        <ele>324.582270</ele>
        <time>2009-09-13T18:38:30Z</time>
      </trkpt>
      <trkpt lat="50.721952" lon="6.353275">
        <ele>322.659660</ele>
        <time>2009-09-13T18:38:34Z</time>
      </trkpt>
      <trkpt lat="50.722022" lon="6.353205">
        <ele>323.620970</ele>
        <time>2009-09-13T18:38:37Z</time>
      </trkpt>
      <trkpt lat="50.722173" lon="6.353134">
        <ele>337.079460</ele>
        <time>2009-09-13T18:38:43Z</time>
      </trkpt>
      <trkpt lat="50.722243" lon="6.353025">
        <ele>336.598870</ele>
        <time>2009-09-13T18:38:47Z</time>
      </trkpt>
      <trkpt lat="50.722248" lon="6.352990">
        <ele>330.350210</ele>
        <time>2009-09-13T18:38:48Z</time>
      </trkpt>
      <trkpt lat="50.722247" lon="6.352930">
        <ele>327.466180</ele>
        <time>2009-09-13T18:38:50Z</time>
      </trkpt>
      <trkpt lat="50.722302" lon="6.352780">
        <ele>321.698360</ele>
        <time>2009-09-13T18:38:54Z</time>
      </trkpt>
      <trkpt lat="50.722336" lon="6.352708">
        <ele>320.256340</ele>
        <time>2009-09-13T18:38:56Z</time>
      </trkpt>
      <trkpt lat="50.722374" lon="6.352669">
        <ele>319.775630</ele>
        <time>2009-09-13T18:38:58Z</time>
      </trkpt>
      <trkpt lat="50.722463" lon="6.352594">
        <ele>320.737060</ele>
        <time>2009-09-13T18:39:02Z</time>
      </trkpt>
      <trkpt lat="50.722531" lon="6.352511">
        <ele>318.333610</ele>
        <time>2009-09-13T18:39:06Z</time>
      </trkpt>
      <trkpt lat="50.722649" lon="6.352431">
        <ele>325.062980</ele>
        <time>2009-09-13T18:39:11Z</time>
      </trkpt>
      <trkpt lat="50.722742" lon="6.352358">
        <ele>331.311520</ele>
        <time>2009-09-13T18:39:15Z</time>
      </trkpt>
      <trkpt lat="50.722780" lon="6.352292">
        <ele>322.659660</ele>
        <time>2009-09-13T18:39:17Z</time>
      </trkpt>
      <trkpt lat="50.722827" lon="6.352210">
        <ele>316.891720</ele>
        <time>2009-09-13T18:39:20Z</time>
      </trkpt>
      <trkpt lat="50.722944" lon="6.352097">
        <ele>315.930410</ele>
        <time>2009-09-13T18:39:25Z</time>
      </trkpt>
      <trkpt lat="50.723093" lon="6.352061">
        <ele>320.256340</ele>
        <time>2009-09-13T18:39:32Z</time>
      </trkpt>
      <trkpt lat="50.723204" lon="6.352019">
        <ele>322.659660</ele>
        <time>2009-09-13T18:39:36Z</time>
      </trkpt>
      <trkpt lat="50.723369" lon="6.352074">
        <ele>324.101560</ele>
        <time>2009-09-13T18:39:43Z</time>
      </trkpt>
      <trkpt lat="50.723449" lon="6.352108">
        <ele>318.333610</ele>
        <time>2009-09-13T18:39:46Z</time>
      </trkpt>
      <trkpt lat="50.723513" lon="6.352133">
        <ele>319.775630</ele>
        <time>2009-09-13T18:39:49Z</time>
      </trkpt>
      <trkpt lat="50.723598" lon="6.352182">
        <ele>319.295040</ele>
        <time>2009-09-13T18:39:52Z</time>
      </trkpt>
      <trkpt lat="50.723669" lon="6.352240">
        <ele>312.565790</ele>
        <time>2009-09-13T18:39:56Z</time>
      </trkpt>
      <trkpt lat="50.723769" lon="6.352293">
        <ele>306.797850</ele>
        <time>2009-09-13T18:40:00Z</time>
      </trkpt>
      <trkpt lat="50.723829" lon="6.352364">
        <ele>306.317260</ele>
        <time>2009-09-13T18:40:03Z</time>
      </trkpt>
      <trkpt lat="50.723925" lon="6.352443">
        <ele>305.355950</ele>
        <time>2009-09-13T18:40:07Z</time>
      </trkpt>
      <trkpt lat="50.724019" lon="6.352529">
        <ele>300.549310</ele>
        <time>2009-09-13T18:40:12Z</time>
      </trkpt>
      <trkpt lat="50.724107" lon="6.352578">
        <ele>302.471920</ele>
        <time>2009-09-13T18:40:15Z</time>
      </trkpt>
      <trkpt lat="50.724250" lon="6.352690">
        <ele>305.836660</ele>
        <time>2009-09-13T18:40:22Z</time>
      </trkpt>
      <trkpt lat="50.724327" lon="6.352770">
        <ele>303.913940</ele>
        <time>2009-09-13T18:40:25Z</time>
      </trkpt>
      <trkpt lat="50.724353" lon="6.352841">
        <ele>297.665400</ele>
        <time>2009-09-13T18:40:27Z</time>
      </trkpt>
      <trkpt lat="50.724404" lon="6.352811">
        <ele>292.378170</ele>
        <time>2009-09-13T18:40:30Z</time>
      </trkpt>
      <trkpt lat="50.724493" lon="6.352737">
        <ele>294.781370</ele>
        <time>2009-09-13T18:40:34Z</time>
      </trkpt>
      <trkpt lat="50.724573" lon="6.352635">
        <ele>298.626700</ele>
        <time>2009-09-13T18:40:38Z</time>
      </trkpt>
      <trkpt lat="50.724625" lon="6.352541">
        <ele>294.781370</ele>
        <time>2009-09-13T18:40:41Z</time>
      </trkpt>
      <trkpt lat="50.724587" lon="6.352311">
        <ele>286.610220</ele>
        <time>2009-09-13T18:40:47Z</time>
      </trkpt>
      <trkpt lat="50.724559" lon="6.352155">
        <ele>285.168210</ele>
        <time>2009-09-13T18:40:51Z</time>
      </trkpt>
      <trkpt lat="50.724567" lon="6.352140">
        <ele>284.687620</ele>
        <time>2009-09-13T18:40:51Z</time>
      </trkpt>
      <trkpt lat="50.724533" lon="6.351991">
        <ele>280.842400</ele>
        <time>2009-09-13T18:40:56Z</time>
      </trkpt>
      <trkpt lat="50.724511" lon="6.351836">
        <ele>278.438960</ele>
        <time>2009-09-13T18:41:00Z</time>
      </trkpt>
      <trkpt lat="50.724548" lon="6.351689">
        <ele>277.477660</ele>
        <time>2009-09-13T18:41:04Z</time>
      </trkpt>
      <trkpt lat="50.724566" lon="6.351619">
        <ele>279.400260</ele>
        <time>2009-09-13T18:41:05Z</time>
      </trkpt>
      <trkpt lat="50.724576" lon="6.351457">
        <ele>279.400260</ele>
        <time>2009-09-13T18:41:10Z</time>
      </trkpt>
      <trkpt lat="50.724581" lon="6.351436">
        <ele>279.880850</ele>
        <time>2009-09-13T18:41:10Z</time>
      </trkpt>
      <trkpt lat="50.724597" lon="6.351197">
        <ele>289.494140</ele>
        <time>2009-09-13T18:41:16Z</time>
      </trkpt>
      <trkpt lat="50.724599" lon="6.351168">
        <ele>290.936150</ele>
        <time>2009-09-13T18:41:17Z</time>
      </trkpt>
      <trkpt lat="50.724565" lon="6.350996">
        <ele>293.339350</ele>
        <time>2009-09-13T18:41:22Z</time>
      </trkpt>
      <trkpt lat="50.724575" lon="6.350949">
        <ele>297.665400</ele>
        <time>2009-09-13T18:41:23Z</time>
      </trkpt>
      <trkpt lat="50.724546" lon="6.350848">
        <ele>295.742670</ele>
        <time>2009-09-13T18:41:26Z</time>
      </trkpt>
      <trkpt lat="50.724557" lon="6.350772">
        <ele>298.146110</ele>
        <time>2009-09-13T18:41:28Z</time>
      </trkpt>
      <trkpt lat="50.724554" lon="6.350749">
        <ele>298.146110</ele>
        <time>2009-09-13T18:41:28Z</time>
      </trkpt>
      <trkpt lat="50.724573" lon="6.350696">
        <ele>300.549310</ele>
        <time>2009-09-13T18:41:30Z</time>
      </trkpt>
      <trkpt lat="50.724611" lon="6.350615">
        <ele>305.355950</ele>
        <time>2009-09-13T18:41:32Z</time>
      </trkpt>
      <trkpt lat="50.724539" lon="6.350415">
        <ele>294.781370</ele>
        <time>2009-09-13T18:41:38Z</time>
      </trkpt>
      <trkpt lat="50.724473" lon="6.350271">
        <ele>289.013540</ele>
        <time>2009-09-13T18:41:43Z</time>
      </trkpt>
      <trkpt lat="50.724428" lon="6.350160">
        <ele>283.726190</ele>
        <time>2009-09-13T18:41:46Z</time>
      </trkpt>
      <trkpt lat="50.724438" lon="6.350072">
        <ele>281.322990</ele>
        <time>2009-09-13T18:41:48Z</time>
      </trkpt>
      <trkpt lat="50.724452" lon="6.349875">
        <ele>282.284300</ele>
        <time>2009-09-13T18:41:53Z</time>
      </trkpt>
      <trkpt lat="50.724435" lon="6.349730">
        <ele>278.919670</ele>
        <time>2009-09-13T18:41:57Z</time>
      </trkpt>
      <trkpt lat="50.724404" lon="6.349596">
        <ele>271.709710</ele>
        <time>2009-09-13T18:42:01Z</time>
      </trkpt>
      <trkpt lat="50.724382" lon="6.349543">
        <ele>267.383910</ele>
        <time>2009-09-13T18:42:02Z</time>
      </trkpt>
      <trkpt lat="50.724388" lon="6.349512">
        <ele>266.422480</ele>
        <time>2009-09-13T18:42:03Z</time>
      </trkpt>
      <trkpt lat="50.724438" lon="6.349392">
        <ele>264.019280</ele>
        <time>2009-09-13T18:42:07Z</time>
      </trkpt>
      <trkpt lat="50.724492" lon="6.349248">
        <ele>263.538570</ele>
        <time>2009-09-13T18:42:11Z</time>
      </trkpt>
      <trkpt lat="50.724483" lon="6.349190">
        <ele>262.577140</ele>
        <time>2009-09-13T18:42:12Z</time>
      </trkpt>
      <trkpt lat="50.724521" lon="6.349012">
        <ele>261.615960</ele>
        <time>2009-09-13T18:42:17Z</time>
      </trkpt>
      <trkpt lat="50.724591" lon="6.348867">
        <ele>266.903190</ele>
        <time>2009-09-13T18:42:22Z</time>
      </trkpt>
      <trkpt lat="50.724640" lon="6.348716">
        <ele>266.422480</ele>
        <time>2009-09-13T18:42:26Z</time>
      </trkpt>
      <trkpt lat="50.724727" lon="6.348619">
        <ele>267.864500</ele>
        <time>2009-09-13T18:42:30Z</time>
      </trkpt>
      <trkpt lat="50.724824" lon="6.348436">
        <ele>276.997070</ele>
        <time>2009-09-13T18:42:36Z</time>
      </trkpt>
      <trkpt lat="50.724871" lon="6.348304">
        <ele>273.151850</ele>
        <time>2009-09-13T18:42:40Z</time>
      </trkpt>
      <trkpt lat="50.724891" lon="6.348138">
        <ele>268.345090</ele>
        <time>2009-09-13T18:42:45Z</time>
      </trkpt>
      <trkpt lat="50.724979" lon="6.347991">
        <ele>268.345090</ele>
        <time>2009-09-13T18:42:50Z</time>
      </trkpt>
      <trkpt lat="50.725020" lon="6.347973">
        <ele>270.267700</ele>
        <time>2009-09-13T18:42:51Z</time>
      </trkpt>
      <trkpt lat="50.725063" lon="6.347811">
        <ele>270.748410</ele>
        <time>2009-09-13T18:42:56Z</time>
      </trkpt>
      <trkpt lat="50.725156" lon="6.347715">
        <ele>272.190420</ele>
        <time>2009-09-13T18:43:00Z</time>
      </trkpt>
      <trkpt lat="50.725286" lon="6.347596">
        <ele>276.035640</ele>
        <time>2009-09-13T18:43:06Z</time>
      </trkpt>
      <trkpt lat="50.725388" lon="6.347455">
        <ele>276.997070</ele>
        <time>2009-09-13T18:43:12Z</time>
      </trkpt>
      <trkpt lat="50.725467" lon="6.347372">
        <ele>278.919670</ele>
        <time>2009-09-13T18:43:15Z</time>
      </trkpt>
      <trkpt lat="50.725565" lon="6.347336">
        <ele>275.074460</ele>
        <time>2009-09-13T18:43:20Z</time>
      </trkpt>
      <trkpt lat="50.725582" lon="6.347332">
        <ele>274.593750</ele>
        <time>2009-09-13T18:43:20Z</time>
      </trkpt>
      <trkpt lat="50.725656" lon="6.347292">
        <ele>273.151850</ele>
        <time>2009-09-13T18:43:23Z</time>
      </trkpt>
      <trkpt lat="50.725729" lon="6.347216">
        <ele>270.267700</ele>
        <time>2009-09-13T18:43:27Z</time>
      </trkpt>
      <trkpt lat="50.725805" lon="6.347158">
        <ele>277.477660</ele>
        <time>2009-09-13T18:43:30Z</time>
      </trkpt>
      <trkpt lat="50.725959" lon="6.346997">
        <ele>289.974850</ele>
        <time>2009-09-13T18:43:38Z</time>
      </trkpt>
      <trkpt lat="50.725970" lon="6.346972">
        <ele>291.897460</ele>
        <time>2009-09-13T18:43:38Z</time>
      </trkpt>
      <trkpt lat="50.726058" lon="6.346845">
        <ele>297.184690</ele>
        <time>2009-09-13T18:43:43Z</time>
      </trkpt>
      <trkpt lat="50.726158" lon="6.346823">
        <ele>299.107290</ele>
        <time>2009-09-13T18:43:47Z</time>
      </trkpt>
      <trkpt lat="50.726182" lon="6.346766">
        <ele>296.223510</ele>
        <time>2009-09-13T18:43:49Z</time>
      </trkpt>
      <trkpt lat="50.726228" lon="6.346742">
        <ele>291.897460</ele>
        <time>2009-09-13T18:43:51Z</time>
      </trkpt>
      <trkpt lat="50.726255" lon="6.346715">
        <ele>289.974850</ele>
        <time>2009-09-13T18:43:52Z</time>
      </trkpt>
      <trkpt lat="50.726311" lon="6.346622">
        <ele>282.284300</ele>
        <time>2009-09-13T18:43:55Z</time>
      </trkpt>
      <trkpt lat="50.726350" lon="6.346533">
        <ele>269.787100</ele>
        <time>2009-09-13T18:43:58Z</time>
      </trkpt>
      <trkpt lat="50.726400" lon="6.346466">
        <ele>261.135250</ele>
        <time>2009-09-13T18:44:01Z</time>
      </trkpt>
      <trkpt lat="50.726467" lon="6.346408">
        <ele>258.251340</ele>
        <time>2009-09-13T18:44:04Z</time>
      </trkpt>
      <trkpt lat="50.726539" lon="6.346289">
        <ele>256.809320</ele>
        <time>2009-09-13T18:44:08Z</time>
      </trkpt>
      <trkpt lat="50.726656" lon="6.346259">
        <ele>260.173950</ele>
        <time>2009-09-13T18:44:13Z</time>
      </trkpt>
      <trkpt lat="50.726810" lon="6.346223">
        <ele>265.461300</ele>
        <time>2009-09-13T18:44:19Z</time>
      </trkpt>
      <trkpt lat="50.726837" lon="6.346208">
        <ele>264.980590</ele>
        <time>2009-09-13T18:44:20Z</time>
      </trkpt>
      <trkpt lat="50.726906" lon="6.346187">
        <ele>263.538570</ele>
        <time>2009-09-13T18:44:23Z</time>
      </trkpt>
      <trkpt lat="50.726988" lon="6.346182">
        <ele>269.306510</ele>
        <time>2009-09-13T18:44:26Z</time>
      </trkpt>
      <trkpt lat="50.727005" lon="6.346296">
        <ele>255.367300</ele>
        <time>2009-09-13T18:44:29Z</time>
      </trkpt>
      <trkpt lat="50.727008" lon="6.346293">
        <ele>254.886590</ele>
        <time>2009-09-13T18:44:29Z</time>
      </trkpt>
      <trkpt lat="50.727024" lon="6.346279">
        <ele>255.848020</ele>
        <time>2009-09-13T18:44:30Z</time>
      </trkpt>
      <trkpt lat="50.727045" lon="6.346129">
        <ele>259.212640</ele>
        <time>2009-09-13T18:44:34Z</time>
      </trkpt>
      <trkpt lat="50.727048" lon="6.346109">
        <ele>260.654540</ele>
        <time>2009-09-13T18:44:35Z</time>
      </trkpt>
      <trkpt lat="50.727081" lon="6.346022">
        <ele>269.306510</ele>
        <time>2009-09-13T18:44:37Z</time>
      </trkpt>
      <trkpt lat="50.727163" lon="6.345845">
        <ele>275.074460</ele>
        <time>2009-09-13T18:44:43Z</time>
      </trkpt>
      <trkpt lat="50.727228" lon="6.345719">
        <ele>273.151850</ele>
        <time>2009-09-13T18:44:47Z</time>
      </trkpt>
      <trkpt lat="50.727216" lon="6.345589">
        <ele>269.787100</ele>
        <time>2009-09-13T18:44:50Z</time>
      </trkpt>
      <trkpt lat="50.727208" lon="6.345502">
        <ele>271.229120</ele>
        <time>2009-09-13T18:44:52Z</time>
      </trkpt>
      <trkpt lat="50.727297" lon="6.345425">
        <ele>275.074460</ele>
        <time>2009-09-13T18:44:56Z</time>
      </trkpt>
      <trkpt lat="50.727417" lon="6.345322">
        <ele>289.494140</ele>
        <time>2009-09-13T18:45:02Z</time>
      </trkpt>
      <trkpt lat="50.727577" lon="6.345382">
        <ele>302.952510</ele>
        <time>2009-09-13T18:45:08Z</time>
      </trkpt>
      <trkpt lat="50.727627" lon="6.345360">
        <ele>307.759270</ele>
        <time>2009-09-13T18:45:10Z</time>
      </trkpt>
      <trkpt lat="50.727622" lon="6.345239">
        <ele>312.085200</ele>
        <time>2009-09-13T18:45:14Z</time>
      </trkpt>
      <trkpt lat="50.727762" lon="6.345254">
        <ele>320.737060</ele>
        <time>2009-09-13T18:45:19Z</time>
      </trkpt>
      <trkpt lat="50.727818" lon="6.345221">
        <ele>314.969110</ele>
        <time>2009-09-13T18:45:22Z</time>
      </trkpt>
      <trkpt lat="50.727890" lon="6.345187">
        <ele>313.527220</ele>
        <time>2009-09-13T18:45:25Z</time>
      </trkpt>
      <trkpt lat="50.727908" lon="6.345154">
        <ele>308.720450</ele>
        <time>2009-09-13T18:45:26Z</time>
      </trkpt>
      <trkpt lat="50.727985" lon="6.345098">
        <ele>301.991330</ele>
        <time>2009-09-13T18:45:29Z</time>
      </trkpt>
      <trkpt lat="50.728056" lon="6.345088">
        <ele>299.588010</ele>
        <time>2009-09-13T18:45:32Z</time>
      </trkpt>
      <trkpt lat="50.728109" lon="6.345081">
        <ele>297.665400</ele>
        <time>2009-09-13T18:45:34Z</time>
      </trkpt>
      <trkpt lat="50.728146" lon="6.345085">
        <ele>299.588010</ele>
        <time>2009-09-13T18:45:36Z</time>
      </trkpt>
      <trkpt lat="50.728271" lon="6.345106">
        <ele>305.355950</ele>
        <time>2009-09-13T18:45:41Z</time>
      </trkpt>
      <trkpt lat="50.728389" lon="6.345144">
        <ele>320.737060</ele>
        <time>2009-09-13T18:45:45Z</time>
      </trkpt>
      <trkpt lat="50.728446" lon="6.345157">
        <ele>327.466180</ele>
        <time>2009-09-13T18:45:48Z</time>
      </trkpt>
      <trkpt lat="50.728565" lon="6.345172">
        <ele>325.543570</ele>
        <time>2009-09-13T18:45:52Z</time>
      </trkpt>
      <trkpt lat="50.728533" lon="6.345096">
        <ele>314.488400</ele>
        <time>2009-09-13T18:45:55Z</time>
      </trkpt>
      <trkpt lat="50.728603" lon="6.345073">
        <ele>312.565790</ele>
        <time>2009-09-13T18:45:58Z</time>
      </trkpt>
      <trkpt lat="50.728694" lon="6.345096">
        <ele>314.007810</ele>
        <time>2009-09-13T18:46:01Z</time>
      </trkpt>
      <trkpt lat="50.728795" lon="6.345104">
        <ele>315.930410</ele>
        <time>2009-09-13T18:46:05Z</time>
      </trkpt>
      <trkpt lat="50.728846" lon="6.345124">
        <ele>313.046500</ele>
        <time>2009-09-13T18:46:08Z</time>
      </trkpt>
      <trkpt lat="50.728879" lon="6.345097">
        <ele>307.759270</ele>
        <time>2009-09-13T18:46:09Z</time>
      </trkpt>
      <trkpt lat="50.728920" lon="6.345029">
        <ele>303.913940</ele>
        <time>2009-09-13T18:46:11Z</time>
      </trkpt>
      <trkpt lat="50.728994" lon="6.345011">
        <ele>303.433220</ele>
        <time>2009-09-13T18:46:14Z</time>
      </trkpt>
      <trkpt lat="50.729006" lon="6.344975">
        <ele>301.510620</ele>
        <time>2009-09-13T18:46:15Z</time>
      </trkpt>
      <trkpt lat="50.729079" lon="6.344852">
        <ele>304.875240</ele>
        <time>2009-09-13T18:46:20Z</time>
      </trkpt>
      <trkpt lat="50.729122" lon="6.344777">
        <ele>298.626700</ele>
        <time>2009-09-13T18:46:22Z</time>
      </trkpt>
      <trkpt lat="50.729198" lon="6.344731">
        <ele>299.588010</ele>
        <time>2009-09-13T18:46:26Z</time>
      </trkpt>
      <trkpt lat="50.729253" lon="6.344710">
        <ele>303.433220</ele>
        <time>2009-09-13T18:46:28Z</time>
      </trkpt>
      <trkpt lat="50.729336" lon="6.344564">
        <ele>306.797850</ele>
        <time>2009-09-13T18:46:33Z</time>
      </trkpt>
      <trkpt lat="50.729407" lon="6.344481">
        <ele>305.355950</ele>
        <time>2009-09-13T18:46:36Z</time>
      </trkpt>
      <trkpt lat="50.729437" lon="6.344448">
        <ele>303.433220</ele>
        <time>2009-09-13T18:46:38Z</time>
      </trkpt>
      <trkpt lat="50.729476" lon="6.344382">
        <ele>304.394650</ele>
        <time>2009-09-13T18:46:40Z</time>
      </trkpt>
      <trkpt lat="50.729611" lon="6.344346">
        <ele>309.201170</ele>
        <time>2009-09-13T18:46:46Z</time>
      </trkpt>
      <trkpt lat="50.729671" lon="6.344340">
        <ele>314.007810</ele>
        <time>2009-09-13T18:46:48Z</time>
      </trkpt>
      <trkpt lat="50.729840" lon="6.344278">
        <ele>318.333610</ele>
        <time>2009-09-13T18:46:55Z</time>
      </trkpt>
      <trkpt lat="50.730029" lon="6.344240">
        <ele>320.256340</ele>
        <time>2009-09-13T18:47:02Z</time>
      </trkpt>
      <trkpt lat="50.730066" lon="6.344222">
        <ele>320.737060</ele>
        <time>2009-09-13T18:47:04Z</time>
      </trkpt>
      <trkpt lat="50.730179" lon="6.344181">
        <ele>308.239860</ele>
        <time>2009-09-13T18:47:09Z</time>
      </trkpt>
      <trkpt lat="50.730200" lon="6.344127">
        <ele>302.471920</ele>
        <time>2009-09-13T18:47:10Z</time>
      </trkpt>
      <trkpt lat="50.730251" lon="6.344126">
        <ele>303.913940</ele>
        <time>2009-09-13T18:47:12Z</time>
      </trkpt>
      <trkpt lat="50.730366" lon="6.344087">
        <ele>302.952510</ele>
        <time>2009-09-13T18:47:17Z</time>
      </trkpt>
      <trkpt lat="50.730460" lon="6.344058">
        <ele>304.875240</ele>
        <time>2009-09-13T18:47:21Z</time>
      </trkpt>
      <trkpt lat="50.730546" lon="6.344019">
        <ele>308.720450</ele>
        <time>2009-09-13T18:47:24Z</time>
      </trkpt>
      <trkpt lat="50.730638" lon="6.343983">
        <ele>308.720450</ele>
        <time>2009-09-13T18:47:28Z</time>
      </trkpt>
      <trkpt lat="50.730691" lon="6.343944">
        <ele>305.355950</ele>
        <time>2009-09-13T18:47:31Z</time>
      </trkpt>
      <trkpt lat="50.730733" lon="6.343918">
        <ele>308.239860</ele>
        <time>2009-09-13T18:47:32Z</time>
      </trkpt>
      <trkpt lat="50.730753" lon="6.343897">
        <ele>307.278560</ele>
        <time>2009-09-13T18:47:33Z</time>
      </trkpt>
      <trkpt lat="50.730830" lon="6.343886">
        <ele>307.759270</ele>
        <time>2009-09-13T18:47:36Z</time>
      </trkpt>
      <trkpt lat="50.730961" lon="6.343870">
        <ele>305.355950</ele>
        <time>2009-09-13T18:47:42Z</time>
      </trkpt>
      <trkpt lat="50.730979" lon="6.343860">
        <ele>300.549310</ele>
        <time>2009-09-13T18:47:42Z</time>
      </trkpt>
      <trkpt lat="50.731012" lon="6.343873">
        <ele>298.146110</ele>
        <time>2009-09-13T18:47:44Z</time>
      </trkpt>
      <trkpt lat="50.731114" lon="6.343865">
        <ele>300.068720</ele>
        <time>2009-09-13T18:47:48Z</time>
      </trkpt>
      <trkpt lat="50.731123" lon="6.343832">
        <ele>293.339350</ele>
        <time>2009-09-13T18:47:49Z</time>
      </trkpt>
      <trkpt lat="50.731183" lon="6.343819">
        <ele>291.897460</ele>
        <time>2009-09-13T18:47:51Z</time>
      </trkpt>
      <trkpt lat="50.731288" lon="6.343801">
        <ele>293.339350</ele>
        <time>2009-09-13T18:47:55Z</time>
      </trkpt>
      <trkpt lat="50.731403" lon="6.343778">
        <ele>298.626700</ele>
        <time>2009-09-13T18:48:00Z</time>
      </trkpt>
      <trkpt lat="50.731482" lon="6.343761">
        <ele>298.146110</ele>
        <time>2009-09-13T18:48:03Z</time>
      </trkpt>
      <trkpt lat="50.731591" lon="6.343794">
        <ele>295.742670</ele>
        <time>2009-09-13T18:48:08Z</time>
      </trkpt>
      <trkpt lat="50.731614" lon="6.343805">
        <ele>294.300780</ele>
        <time>2009-09-13T18:48:09Z</time>
      </trkpt>
      <trkpt lat="50.731671" lon="6.343809">
        <ele>293.339350</ele>
        <time>2009-09-13T18:48:11Z</time>
      </trkpt>
      <trkpt lat="50.731743" lon="6.343831">
        <ele>291.897460</ele>
        <time>2009-09-13T18:48:14Z</time>
      </trkpt>
      <trkpt lat="50.731799" lon="6.343846">
        <ele>289.974850</ele>
        <time>2009-09-13T18:48:16Z</time>
      </trkpt>
      <trkpt lat="50.731916" lon="6.343864">
        <ele>286.610220</ele>
        <time>2009-09-13T18:48:21Z</time>
      </trkpt>
      <trkpt lat="50.732004" lon="6.343852">
        <ele>284.687620</ele>
        <time>2009-09-13T18:48:24Z</time>
      </trkpt>
      <trkpt lat="50.732052" lon="6.343857">
        <ele>285.168210</ele>
        <time>2009-09-13T18:48:26Z</time>
      </trkpt>
      <trkpt lat="50.732170" lon="6.343884">
        <ele>283.245600</ele>
        <time>2009-09-13T18:48:31Z</time>
      </trkpt>
      <trkpt lat="50.732250" lon="6.343877">
        <ele>279.400260</ele>
        <time>2009-09-13T18:48:34Z</time>
      </trkpt>
      <trkpt lat="50.732350" lon="6.343901">
        <ele>276.997070</ele>
        <time>2009-09-13T18:48:38Z</time>
      </trkpt>
      <trkpt lat="50.732470" lon="6.343900">
        <ele>278.919670</ele>
        <time>2009-09-13T18:48:43Z</time>
      </trkpt>
      <trkpt lat="50.732554" lon="6.343902">
        <ele>280.361690</ele>
        <time>2009-09-13T18:48:47Z</time>
      </trkpt>
      <trkpt lat="50.732644" lon="6.343913">
        <ele>279.880850</ele>
        <time>2009-09-13T18:48:50Z</time>
      </trkpt>
      <trkpt lat="50.732676" lon="6.343901">
        <ele>279.400260</ele>
        <time>2009-09-13T18:48:51Z</time>
      </trkpt>
      <trkpt lat="50.732765" lon="6.343884">
        <ele>278.919670</ele>
        <time>2009-09-13T18:48:55Z</time>
      </trkpt>
      <trkpt lat="50.732846" lon="6.343853">
        <ele>282.284300</ele>
        <time>2009-09-13T18:48:58Z</time>
      </trkpt>
      <trkpt lat="50.732923" lon="6.343846">
        <ele>281.803580</ele>
        <time>2009-09-13T18:49:01Z</time>
      </trkpt>
      <trkpt lat="50.733052" lon="6.343838">
        <ele>281.322990</ele>
        <time>2009-09-13T18:49:07Z</time>
      </trkpt>
      <trkpt lat="50.733222" lon="6.343751">
        <ele>285.648800</ele>
        <time>2009-09-13T18:49:14Z</time>
      </trkpt>
      <trkpt lat="50.733231" lon="6.343738">
        <ele>285.648800</ele>
        <time>2009-09-13T18:49:14Z</time>
      </trkpt>
      <trkpt lat="50.733334" lon="6.343641">
        <ele>289.013540</ele>
        <time>2009-09-13T18:49:19Z</time>
      </trkpt>
      <trkpt lat="50.733399" lon="6.343558">
        <ele>284.206900</ele>
        <time>2009-09-13T18:49:22Z</time>
      </trkpt>
      <trkpt lat="50.733458" lon="6.343459">
        <ele>283.726190</ele>
        <time>2009-09-13T18:49:26Z</time>
      </trkpt>
      <trkpt lat="50.733516" lon="6.343362">
        <ele>281.803580</ele>
        <time>2009-09-13T18:49:29Z</time>
      </trkpt>
      <trkpt lat="50.733518" lon="6.343316">
        <ele>280.842400</ele>
        <time>2009-09-13T18:49:30Z</time>
      </trkpt>
      <trkpt lat="50.733512" lon="6.343279">
        <ele>279.880850</ele>
        <time>2009-09-13T18:49:31Z</time>
      </trkpt>
      <trkpt lat="50.733506" lon="6.343184">
        <ele>277.477660</ele>
        <time>2009-09-13T18:49:34Z</time>
      </trkpt>
      <trkpt lat="50.733514" lon="6.343129">
        <ele>277.477660</ele>
        <time>2009-09-13T18:49:35Z</time>
      </trkpt>
      <trkpt lat="50.733526" lon="6.343049">
        <ele>277.477660</ele>
        <time>2009-09-13T18:49:37Z</time>
      </trkpt>
      <trkpt lat="50.733396" lon="6.342841">
        <ele>273.151850</ele>
        <time>2009-09-13T18:49:45Z</time>
      </trkpt>
      <trkpt lat="50.733399" lon="6.342725">
        <ele>273.632440</ele>
        <time>2009-09-13T18:49:48Z</time>
      </trkpt>
      <trkpt lat="50.733411" lon="6.342697">
        <ele>274.593750</ele>
        <time>2009-09-13T18:49:49Z</time>
      </trkpt>
      <trkpt lat="50.733405" lon="6.342590">
        <ele>277.958250</ele>
        <time>2009-09-13T18:49:51Z</time>
      </trkpt>
      <trkpt lat="50.733406" lon="6.342562">
        <ele>277.958250</ele>
        <time>2009-09-13T18:49:52Z</time>
      </trkpt>
      <trkpt lat="50.733361" lon="6.342409">
        <ele>279.400260</ele>
        <time>2009-09-13T18:49:56Z</time>
      </trkpt>
      <trkpt lat="50.733346" lon="6.342273">
        <ele>279.400260</ele>
        <time>2009-09-13T18:50:00Z</time>
      </trkpt>
      <trkpt lat="50.733341" lon="6.342166">
        <ele>284.206900</ele>
        <time>2009-09-13T18:50:02Z</time>
      </trkpt>
      <trkpt lat="50.733254" lon="6.341990">
        <ele>278.919670</ele>
        <time>2009-09-13T18:50:08Z</time>
      </trkpt>
      <trkpt lat="50.733193" lon="6.341824">
        <ele>277.958250</ele>
        <time>2009-09-13T18:50:13Z</time>
      </trkpt>
      <trkpt lat="50.733186" lon="6.341735">
        <ele>281.803580</ele>
        <time>2009-09-13T18:50:15Z</time>
      </trkpt>
      <trkpt lat="50.733143" lon="6.341625">
        <ele>281.803580</ele>
        <time>2009-09-13T18:50:19Z</time>
      </trkpt>
      <trkpt lat="50.733147" lon="6.341557">
        <ele>282.284300</ele>
        <time>2009-09-13T18:50:20Z</time>
      </trkpt>
      <trkpt lat="50.733102" lon="6.341389">
        <ele>283.726190</ele>
        <time>2009-09-13T18:50:25Z</time>
      </trkpt>
      <trkpt lat="50.733119" lon="6.341307">
        <ele>287.090820</ele>
        <time>2009-09-13T18:50:27Z</time>
      </trkpt>
      <trkpt lat="50.733087" lon="6.341236">
        <ele>282.765010</ele>
        <time>2009-09-13T18:50:29Z</time>
      </trkpt>
      <trkpt lat="50.733062" lon="6.341141">
        <ele>281.803580</ele>
        <time>2009-09-13T18:50:32Z</time>
      </trkpt>
      <trkpt lat="50.733022" lon="6.340980">
        <ele>278.438960</ele>
        <time>2009-09-13T18:50:36Z</time>
      </trkpt>
      <trkpt lat="50.732982" lon="6.340895">
        <ele>275.074460</ele>
        <time>2009-09-13T18:50:39Z</time>
      </trkpt>
      <trkpt lat="50.732971" lon="6.340726">
        <ele>273.632440</ele>
        <time>2009-09-13T18:50:43Z</time>
      </trkpt>
      <trkpt lat="50.732988" lon="6.340514">
        <ele>278.438960</ele>
        <time>2009-09-13T18:50:49Z</time>
      </trkpt>
      <trkpt lat="50.733102" lon="6.340445">
        <ele>285.648800</ele>
        <time>2009-09-13T18:50:54Z</time>
      </trkpt>
      <trkpt lat="50.733186" lon="6.340477">
        <ele>287.090820</ele>
        <time>2009-09-13T18:50:57Z</time>
      </trkpt>
      <trkpt lat="50.733264" lon="6.340568">
        <ele>289.494140</ele>
        <time>2009-09-13T18:51:01Z</time>
      </trkpt>
      <trkpt lat="50.733432" lon="6.340704">
        <ele>295.261960</ele>
        <time>2009-09-13T18:51:08Z</time>
      </trkpt>
      <trkpt lat="50.733454" lon="6.340724">
        <ele>295.261960</ele>
        <time>2009-09-13T18:51:09Z</time>
      </trkpt>
      <trkpt lat="50.733520" lon="6.340830">
        <ele>291.416740</ele>
        <time>2009-09-13T18:51:13Z</time>
      </trkpt>
      <trkpt lat="50.733594" lon="6.340966">
        <ele>295.261960</ele>
        <time>2009-09-13T18:51:18Z</time>
      </trkpt>
      <trkpt lat="50.733635" lon="6.341045">
        <ele>297.665400</ele>
        <time>2009-09-13T18:51:20Z</time>
      </trkpt>
      <trkpt lat="50.733715" lon="6.341095">
        <ele>288.052240</ele>
        <time>2009-09-13T18:51:24Z</time>
      </trkpt>
      <trkpt lat="50.733721" lon="6.341109">
        <ele>287.571410</ele>
        <time>2009-09-13T18:51:24Z</time>
      </trkpt>
      <trkpt lat="50.733743" lon="6.341199">
        <ele>287.090820</ele>
        <time>2009-09-13T18:51:27Z</time>
      </trkpt>
      <trkpt lat="50.733770" lon="6.341239">
        <ele>283.726190</ele>
        <time>2009-09-13T18:51:28Z</time>
      </trkpt>
      <trkpt lat="50.733813" lon="6.341350">
        <ele>285.648800</ele>
        <time>2009-09-13T18:51:31Z</time>
      </trkpt>
      <trkpt lat="50.733891" lon="6.341463">
        <ele>291.416740</ele>
        <time>2009-09-13T18:51:36Z</time>
      </trkpt>
      <trkpt lat="50.733985" lon="6.341536">
        <ele>296.704100</ele>
        <time>2009-09-13T18:51:40Z</time>
      </trkpt>
      <trkpt lat="50.734023" lon="6.341637">
        <ele>301.991330</ele>
        <time>2009-09-13T18:51:43Z</time>
      </trkpt>
      <trkpt lat="50.734089" lon="6.341722">
        <ele>307.278560</ele>
        <time>2009-09-13T18:51:46Z</time>
      </trkpt>
      <trkpt lat="50.734107" lon="6.341758">
        <ele>301.991330</ele>
        <time>2009-09-13T18:51:47Z</time>
      </trkpt>
      <trkpt lat="50.734152" lon="6.341852">
        <ele>300.549310</ele>
        <time>2009-09-13T18:51:50Z</time>
      </trkpt>
      <trkpt lat="50.734169" lon="6.341878">
        <ele>301.510620</ele>
        <time>2009-09-13T18:51:51Z</time>
      </trkpt>
      <trkpt lat="50.734242" lon="6.341967">
        <ele>301.991330</ele>
        <time>2009-09-13T18:51:55Z</time>
      </trkpt>
      <trkpt lat="50.734316" lon="6.342038">
        <ele>300.068720</ele>
        <time>2009-09-13T18:51:59Z</time>
      </trkpt>
      <trkpt lat="50.734334" lon="6.342058">
        <ele>298.626700</ele>
        <time>2009-09-13T18:51:59Z</time>
      </trkpt>
      <trkpt lat="50.734343" lon="6.342147">
        <ele>298.626700</ele>
        <time>2009-09-13T18:52:02Z</time>
      </trkpt>
      <trkpt lat="50.734409" lon="6.342249">
        <ele>300.068720</ele>
        <time>2009-09-13T18:52:05Z</time>
      </trkpt>
      <trkpt lat="50.734488" lon="6.342333">
        <ele>297.184690</ele>
        <time>2009-09-13T18:52:09Z</time>
      </trkpt>
      <trkpt lat="50.734553" lon="6.342404">
        <ele>296.704100</ele>
        <time>2009-09-13T18:52:12Z</time>
      </trkpt>
      <trkpt lat="50.734549" lon="6.342508">
        <ele>288.052240</ele>
        <time>2009-09-13T18:52:15Z</time>
      </trkpt>
      <trkpt lat="50.734577" lon="6.342628">
        <ele>286.610220</ele>
        <time>2009-09-13T18:52:18Z</time>
      </trkpt>
      <trkpt lat="50.734591" lon="6.342761">
        <ele>289.013540</ele>
        <time>2009-09-13T18:52:22Z</time>
      </trkpt>
      <trkpt lat="50.734658" lon="6.342871">
        <ele>292.378170</ele>
        <time>2009-09-13T18:52:25Z</time>
      </trkpt>
      <trkpt lat="50.734734" lon="6.342987">
        <ele>296.223510</ele>
        <time>2009-09-13T18:52:30Z</time>
      </trkpt>
      <trkpt lat="50.734766" lon="6.343098">
        <ele>293.820060</ele>
        <time>2009-09-13T18:52:33Z</time>
      </trkpt>
      <trkpt lat="50.734782" lon="6.343217">
        <ele>296.704100</ele>
        <time>2009-09-13T18:52:36Z</time>
      </trkpt>
      <trkpt lat="50.734786" lon="6.343229">
        <ele>292.858760</ele>
        <time>2009-09-13T18:52:36Z</time>
      </trkpt>
      <trkpt lat="50.734784" lon="6.343323">
        <ele>285.648800</ele>
        <time>2009-09-13T18:52:39Z</time>
      </trkpt>
      <trkpt lat="50.734848" lon="6.343458">
        <ele>279.400260</ele>
        <time>2009-09-13T18:52:43Z</time>
      </trkpt>
      <trkpt lat="50.734863" lon="6.343514">
        <ele>276.035640</ele>
        <time>2009-09-13T18:52:44Z</time>
      </trkpt>
      <trkpt lat="50.734891" lon="6.343636">
        <ele>272.671140</ele>
        <time>2009-09-13T18:52:48Z</time>
      </trkpt>
      <trkpt lat="50.734943" lon="6.343732">
        <ele>270.748410</ele>
        <time>2009-09-13T18:52:51Z</time>
      </trkpt>
      <trkpt lat="50.734983" lon="6.343832">
        <ele>266.903190</ele>
        <time>2009-09-13T18:52:54Z</time>
      </trkpt>
      <trkpt lat="50.735016" lon="6.343942">
        <ele>267.383910</ele>
        <time>2009-09-13T18:52:57Z</time>
      </trkpt>
      <trkpt lat="50.735065" lon="6.344006">
        <ele>272.671140</ele>
        <time>2009-09-13T18:53:00Z</time>
      </trkpt>
      <trkpt lat="50.735124" lon="6.344109">
        <ele>277.958250</ele>
        <time>2009-09-13T18:53:03Z</time>
      </trkpt>
      <trkpt lat="50.735183" lon="6.344232">
        <ele>287.090820</ele>
        <time>2009-09-13T18:53:07Z</time>
      </trkpt>
      <trkpt lat="50.735244" lon="6.344332">
        <ele>290.455560</ele>
        <time>2009-09-13T18:53:10Z</time>
      </trkpt>
      <trkpt lat="50.735316" lon="6.344447">
        <ele>293.339350</ele>
        <time>2009-09-13T18:53:15Z</time>
      </trkpt>
      <trkpt lat="50.735376" lon="6.344499">
        <ele>296.704100</ele>
        <time>2009-09-13T18:53:17Z</time>
      </trkpt>
      <trkpt lat="50.735436" lon="6.344531">
        <ele>301.510620</ele>
        <time>2009-09-13T18:53:20Z</time>
      </trkpt>
      <trkpt lat="50.735495" lon="6.344581">
        <ele>303.433220</ele>
        <time>2009-09-13T18:53:23Z</time>
      </trkpt>
      <trkpt lat="50.735532" lon="6.344607">
        <ele>301.991330</ele>
        <time>2009-09-13T18:53:24Z</time>
      </trkpt>
      <trkpt lat="50.735596" lon="6.344633">
        <ele>294.781370</ele>
        <time>2009-09-13T18:53:27Z</time>
      </trkpt>
      <trkpt lat="50.735698" lon="6.344732">
        <ele>295.261960</ele>
        <time>2009-09-13T18:53:32Z</time>
      </trkpt>
      <trkpt lat="50.735732" lon="6.344747">
        <ele>294.300780</ele>
        <time>2009-09-13T18:53:33Z</time>
      </trkpt>
      <trkpt lat="50.735825" lon="6.344836">
        <ele>293.339350</ele>
        <time>2009-09-13T18:53:37Z</time>
      </trkpt>
      <trkpt lat="50.735886" lon="6.344909">
        <ele>288.052240</ele>
        <time>2009-09-13T18:53:40Z</time>
      </trkpt>
      <trkpt lat="50.735949" lon="6.344972">
        <ele>289.013540</ele>
        <time>2009-09-13T18:53:43Z</time>
      </trkpt>
      <trkpt lat="50.736034" lon="6.345067">
        <ele>291.416740</ele>
        <time>2009-09-13T18:53:48Z</time>
      </trkpt>
      <trkpt lat="50.736117" lon="6.345173">
        <ele>292.858760</ele>
        <time>2009-09-13T18:53:52Z</time>
      </trkpt>
      <trkpt lat="50.736174" lon="6.345273">
        <ele>297.184690</ele>
        <time>2009-09-13T18:53:55Z</time>
      </trkpt>
      <trkpt lat="50.736242" lon="6.345365">
        <ele>290.936150</ele>
        <time>2009-09-13T18:53:59Z</time>
      </trkpt>
      <trkpt lat="50.736319" lon="6.345426">
        <ele>287.571410</ele>
        <time>2009-09-13T18:54:02Z</time>
      </trkpt>
      <trkpt lat="50.736364" lon="6.345485">
        <ele>287.571410</ele>
        <time>2009-09-13T18:54:05Z</time>
      </trkpt>
      <trkpt lat="50.736378" lon="6.345521">
        <ele>282.284300</ele>
        <time>2009-09-13T18:54:06Z</time>
      </trkpt>
      <trkpt lat="50.736443" lon="6.345575">
        <ele>280.842400</ele>
        <time>2009-09-13T18:54:09Z</time>
      </trkpt>
      <trkpt lat="50.736494" lon="6.345647">
        <ele>276.997070</ele>
        <time>2009-09-13T18:54:11Z</time>
      </trkpt>
      <trkpt lat="50.736572" lon="6.345726">
        <ele>276.516350</ele>
        <time>2009-09-13T18:54:15Z</time>
      </trkpt>
      <trkpt lat="50.736654" lon="6.345811">
        <ele>274.113030</ele>
        <time>2009-09-13T18:54:19Z</time>
      </trkpt>
      <trkpt lat="50.736723" lon="6.345876">
        <ele>275.555050</ele>
        <time>2009-09-13T18:54:22Z</time>
      </trkpt>
      <trkpt lat="50.736792" lon="6.345954">
        <ele>277.958250</ele>
        <time>2009-09-13T18:54:26Z</time>
      </trkpt>
      <trkpt lat="50.736848" lon="6.346008">
        <ele>276.997070</ele>
        <time>2009-09-13T18:54:28Z</time>
      </trkpt>
      <trkpt lat="50.736881" lon="6.346045">
        <ele>275.555050</ele>
        <time>2009-09-13T18:54:30Z</time>
      </trkpt>
      <trkpt lat="50.736921" lon="6.346094">
        <ele>276.516350</ele>
        <time>2009-09-13T18:54:32Z</time>
      </trkpt>
      <trkpt lat="50.737045" lon="6.346222">
        <ele>281.803580</ele>
        <time>2009-09-13T18:54:38Z</time>
      </trkpt>
      <trkpt lat="50.737107" lon="6.346296">
        <ele>284.206900</ele>
        <time>2009-09-13T18:54:41Z</time>
      </trkpt>
      <trkpt lat="50.737173" lon="6.346353">
        <ele>286.610220</ele>
        <time>2009-09-13T18:54:44Z</time>
      </trkpt>
      <trkpt lat="50.737240" lon="6.346430">
        <ele>284.206900</ele>
        <time>2009-09-13T18:54:47Z</time>
      </trkpt>
      <trkpt lat="50.737241" lon="6.346441">
        <ele>282.765010</ele>
        <time>2009-09-13T18:54:48Z</time>
      </trkpt>
      <trkpt lat="50.737321" lon="6.346515">
        <ele>283.726190</ele>
        <time>2009-09-13T18:54:51Z</time>
      </trkpt>
      <trkpt lat="50.737384" lon="6.346604">
        <ele>277.958250</ele>
        <time>2009-09-13T18:54:55Z</time>
      </trkpt>
      <trkpt lat="50.737427" lon="6.346628">
        <ele>278.919670</ele>
        <time>2009-09-13T18:54:56Z</time>
      </trkpt>
      <trkpt lat="50.737493" lon="6.346607">
        <ele>278.438960</ele>
        <time>2009-09-13T18:54:59Z</time>
      </trkpt>
      <trkpt lat="50.737575" lon="6.346593">
        <ele>276.997070</ele>
        <time>2009-09-13T18:55:02Z</time>
      </trkpt>
      <trkpt lat="50.737642" lon="6.346574">
        <ele>276.035640</ele>
        <time>2009-09-13T18:55:05Z</time>
      </trkpt>
      <trkpt lat="50.737655" lon="6.346543">
        <ele>275.074460</ele>
        <time>2009-09-13T18:55:06Z</time>
      </trkpt>
      <trkpt lat="50.737715" lon="6.346527">
        <ele>273.151850</ele>
        <time>2009-09-13T18:55:09Z</time>
      </trkpt>
      <trkpt lat="50.737811" lon="6.346614">
        <ele>274.593750</ele>
        <time>2009-09-13T18:55:13Z</time>
      </trkpt>
      <trkpt lat="50.737840" lon="6.346719">
        <ele>274.593750</ele>
        <time>2009-09-13T18:55:16Z</time>
      </trkpt>
      <trkpt lat="50.737841" lon="6.346804">
        <ele>278.919670</ele>
        <time>2009-09-13T18:55:18Z</time>
      </trkpt>
      <trkpt lat="50.737849" lon="6.346828">
        <ele>279.400260</ele>
        <time>2009-09-13T18:55:19Z</time>
      </trkpt>
      <trkpt lat="50.737890" lon="6.346953">
        <ele>283.245600</ele>
        <time>2009-09-13T18:55:22Z</time>
      </trkpt>
      <trkpt lat="50.737963" lon="6.347123">
        <ele>281.803580</ele>
        <time>2009-09-13T18:55:28Z</time>
      </trkpt>
      <trkpt lat="50.737968" lon="6.347219">
        <ele>282.284300</ele>
        <time>2009-09-13T18:55:30Z</time>
      </trkpt>
      <trkpt lat="50.738012" lon="6.347344">
        <ele>281.803580</ele>
        <time>2009-09-13T18:55:34Z</time>
      </trkpt>
      <trkpt lat="50.738001" lon="6.347391">
        <ele>277.958250</ele>
        <time>2009-09-13T18:55:35Z</time>
      </trkpt>
      <trkpt lat="50.737988" lon="6.347531">
        <ele>275.074460</ele>
        <time>2009-09-13T18:55:38Z</time>
      </trkpt>
      <trkpt lat="50.738011" lon="6.347663">
        <ele>276.035640</ele>
        <time>2009-09-13T18:55:42Z</time>
      </trkpt>
      <trkpt lat="50.738002" lon="6.347706">
        <ele>275.555050</ele>
        <time>2009-09-13T18:55:43Z</time>
      </trkpt>
      <trkpt lat="50.737975" lon="6.347799">
        <ele>275.555050</ele>
        <time>2009-09-13T18:55:46Z</time>
      </trkpt>
      <trkpt lat="50.737961" lon="6.347927">
        <ele>274.113030</ele>
        <time>2009-09-13T18:55:49Z</time>
      </trkpt>
      <trkpt lat="50.737957" lon="6.347955">
        <ele>270.748410</ele>
        <time>2009-09-13T18:55:50Z</time>
      </trkpt>
      <trkpt lat="50.737895" lon="6.348055">
        <ele>265.461300</ele>
        <time>2009-09-13T18:55:53Z</time>
      </trkpt>
      <trkpt lat="50.737778" lon="6.348147">
        <ele>264.499870</ele>
        <time>2009-09-13T18:55:58Z</time>
      </trkpt>
      <trkpt lat="50.737761" lon="6.348155">
        <ele>265.461300</ele>
        <time>2009-09-13T18:55:59Z</time>
      </trkpt>
      <trkpt lat="50.737688" lon="6.348218">
        <ele>270.748410</ele>
        <time>2009-09-13T18:56:02Z</time>
      </trkpt>
      <trkpt lat="50.737665" lon="6.348228">
        <ele>270.748410</ele>
        <time>2009-09-13T18:56:03Z</time>
      </trkpt>
      <trkpt lat="50.737581" lon="6.348197">
        <ele>267.383910</ele>
        <time>2009-09-13T18:56:07Z</time>
      </trkpt>
      <trkpt lat="50.737511" lon="6.348229">
        <ele>264.499870</ele>
        <time>2009-09-13T18:56:10Z</time>
      </trkpt>
      <trkpt lat="50.737457" lon="6.348234">
        <ele>265.461300</ele>
        <time>2009-09-13T18:56:12Z</time>
      </trkpt>
      <trkpt lat="50.737379" lon="6.348199">
        <ele>264.499870</ele>
        <time>2009-09-13T18:56:15Z</time>
      </trkpt>
      <trkpt lat="50.737312" lon="6.348188">
        <ele>264.980590</ele>
        <time>2009-09-13T18:56:18Z</time>
      </trkpt>
      <trkpt lat="50.737232" lon="6.348163">
        <ele>261.135250</ele>
        <time>2009-09-13T18:56:21Z</time>
      </trkpt>
      <trkpt lat="50.737100" lon="6.348104">
        <ele>253.925410</ele>
        <time>2009-09-13T18:56:27Z</time>
      </trkpt>
      <trkpt lat="50.737003" lon="6.348064">
        <ele>250.080200</ele>
        <time>2009-09-13T18:56:31Z</time>
      </trkpt>
      <trkpt lat="50.736930" lon="6.348076">
        <ele>249.599480</ele>
        <time>2009-09-13T18:56:34Z</time>
      </trkpt>
      <trkpt lat="50.736865" lon="6.348067">
        <ele>252.963980</ele>
        <time>2009-09-13T18:56:36Z</time>
      </trkpt>
      <trkpt lat="50.736805" lon="6.348044">
        <ele>253.444700</ele>
        <time>2009-09-13T18:56:39Z</time>
      </trkpt>
      <trkpt lat="50.736696" lon="6.348026">
        <ele>251.041380</ele>
        <time>2009-09-13T18:56:43Z</time>
      </trkpt>
      <trkpt lat="50.736680" lon="6.348025">
        <ele>250.560790</ele>
        <time>2009-09-13T18:56:44Z</time>
      </trkpt>
      <trkpt lat="50.736599" lon="6.348013">
        <ele>242.389640</ele>
        <time>2009-09-13T18:56:47Z</time>
      </trkpt>
      <trkpt lat="50.736550" lon="6.348035">
        <ele>250.560790</ele>
        <time>2009-09-13T18:56:49Z</time>
      </trkpt>
      <trkpt lat="50.736482" lon="6.348053">
        <ele>255.367300</ele>
        <time>2009-09-13T18:56:52Z</time>
      </trkpt>
      <trkpt lat="50.736477" lon="6.348045">
        <ele>256.328730</ele>
        <time>2009-09-13T18:56:52Z</time>
      </trkpt>
      <trkpt lat="50.736471" lon="6.348020">
        <ele>255.367300</ele>
        <time>2009-09-13T18:56:53Z</time>
      </trkpt>
      <trkpt lat="50.736472" lon="6.348019">
        <ele>254.886590</ele>
        <time>2009-09-13T18:56:53Z</time>
      </trkpt>
      <trkpt lat="50.736498" lon="6.347994">
        <ele>252.963980</ele>
        <time>2009-09-13T18:56:54Z</time>
      </trkpt>
      <trkpt lat="50.736562" lon="6.347959">
        <ele>252.483390</ele>
        <time>2009-09-13T18:56:57Z</time>
      </trkpt>
      <trkpt lat="50.736618" lon="6.347964">
        <ele>250.560790</ele>
        <time>2009-09-13T18:56:59Z</time>
      </trkpt>
      <trkpt lat="50.736686" lon="6.347944">
        <ele>250.080200</ele>
        <time>2009-09-13T18:57:02Z</time>
      </trkpt>
      <trkpt lat="50.736746" lon="6.347936">
        <ele>245.754150</ele>
        <time>2009-09-13T18:57:04Z</time>
      </trkpt>
      <trkpt lat="50.736822" lon="6.347953">
        <ele>245.754150</ele>
        <time>2009-09-13T18:57:07Z</time>
      </trkpt>
      <trkpt lat="50.736851" lon="6.347968">
        <ele>246.715450</ele>
        <time>2009-09-13T18:57:08Z</time>
      </trkpt>
      <trkpt lat="50.736937" lon="6.348022">
        <ele>248.638180</ele>
        <time>2009-09-13T18:57:12Z</time>
      </trkpt>
      <trkpt lat="50.736986" lon="6.348018">
        <ele>244.792840</ele>
        <time>2009-09-13T18:57:14Z</time>
      </trkpt>
      <trkpt lat="50.736974" lon="6.348127">
        <ele>258.731930</ele>
        <time>2009-09-13T18:57:17Z</time>
      </trkpt>
      <trkpt lat="50.736977" lon="6.348103">
        <ele>266.422480</ele>
        <time>2009-09-13T18:57:18Z</time>
      </trkpt>
      <trkpt lat="50.736988" lon="6.348075">
        <ele>265.461300</ele>
        <time>2009-09-13T18:57:18Z</time>
      </trkpt>
      <trkpt lat="50.737114" lon="6.348100">
        <ele>264.019280</ele>
        <time>2009-09-13T18:57:23Z</time>
      </trkpt>
      <trkpt lat="50.737165" lon="6.348111">
        <ele>260.654540</ele>
        <time>2009-09-13T18:57:25Z</time>
      </trkpt>
      <trkpt lat="50.737183" lon="6.348112">
        <ele>262.577140</ele>
        <time>2009-09-13T18:57:26Z</time>
      </trkpt>
      <trkpt lat="50.737272" lon="6.348148">
        <ele>266.422480</ele>
        <time>2009-09-13T18:57:30Z</time>
      </trkpt>
      <trkpt lat="50.737352" lon="6.348112">
        <ele>264.019280</ele>
        <time>2009-09-13T18:57:33Z</time>
      </trkpt>
      <trkpt lat="50.737415" lon="6.348124">
        <ele>266.903190</ele>
        <time>2009-09-13T18:57:36Z</time>
      </trkpt>
      <trkpt lat="50.737457" lon="6.348118">
        <ele>267.383910</ele>
        <time>2009-09-13T18:57:37Z</time>
      </trkpt>
      <trkpt lat="50.737546" lon="6.348120">
        <ele>263.538570</ele>
        <time>2009-09-13T18:57:41Z</time>
      </trkpt>
      <trkpt lat="50.737569" lon="6.348125">
        <ele>264.019280</ele>
        <time>2009-09-13T18:57:42Z</time>
      </trkpt>
      <trkpt lat="50.737637" lon="6.348103">
        <ele>259.693350</ele>
        <time>2009-09-13T18:57:45Z</time>
      </trkpt>
      <trkpt lat="50.737725" lon="6.348120">
        <ele>262.096550</ele>
        <time>2009-09-13T18:57:48Z</time>
      </trkpt>
      <trkpt lat="50.737808" lon="6.348128">
        <ele>264.019280</ele>
        <time>2009-09-13T18:57:52Z</time>
      </trkpt>
      <trkpt lat="50.737864" lon="6.348038">
        <ele>262.096550</ele>
        <time>2009-09-13T18:57:55Z</time>
      </trkpt>
      <trkpt lat="50.737876" lon="6.348001">
        <ele>263.057860</ele>
        <time>2009-09-13T18:57:56Z</time>
      </trkpt>
      <trkpt lat="50.737897" lon="6.347921">
        <ele>263.538570</ele>
        <time>2009-09-13T18:57:58Z</time>
      </trkpt>
      <trkpt lat="50.737901" lon="6.347839">
        <ele>264.980590</ele>
        <time>2009-09-13T18:58:00Z</time>
      </trkpt>
      <trkpt lat="50.737928" lon="6.347715">
        <ele>267.383910</ele>
        <time>2009-09-13T18:58:03Z</time>
      </trkpt>
      <trkpt lat="50.737963" lon="6.347691">
        <ele>272.190420</ele>
        <time>2009-09-13T18:58:05Z</time>
      </trkpt>
      <trkpt lat="50.737974" lon="6.347583">
        <ele>270.267700</ele>
        <time>2009-09-13T18:58:08Z</time>
      </trkpt>
      <trkpt lat="50.737947" lon="6.347491">
        <ele>271.709710</ele>
        <time>2009-09-13T18:58:10Z</time>
      </trkpt>
      <trkpt lat="50.737933" lon="6.347362">
        <ele>269.306510</ele>
        <time>2009-09-13T18:58:14Z</time>
      </trkpt>
      <trkpt lat="50.737937" lon="6.347271">
        <ele>273.632440</ele>
        <time>2009-09-13T18:58:16Z</time>
      </trkpt>
      <trkpt lat="50.737913" lon="6.347192">
        <ele>276.997070</ele>
        <time>2009-09-13T18:58:18Z</time>
      </trkpt>
      <trkpt lat="50.737876" lon="6.347113">
        <ele>282.284300</ele>
        <time>2009-09-13T18:58:21Z</time>
      </trkpt>
      <trkpt lat="50.737863" lon="6.346979">
        <ele>276.997070</ele>
        <time>2009-09-13T18:58:24Z</time>
      </trkpt>
      <trkpt lat="50.737837" lon="6.346843">
        <ele>276.516350</ele>
        <time>2009-09-13T18:58:28Z</time>
      </trkpt>
      <trkpt lat="50.737826" lon="6.346806">
        <ele>275.074460</ele>
        <time>2009-09-13T18:58:29Z</time>
      </trkpt>
      <trkpt lat="50.737819" lon="6.346762">
        <ele>277.958250</ele>
        <time>2009-09-13T18:58:30Z</time>
      </trkpt>
      <trkpt lat="50.737805" lon="6.346627">
        <ele>283.245600</ele>
        <time>2009-09-13T18:58:33Z</time>
      </trkpt>
      <trkpt lat="50.737794" lon="6.346578">
        <ele>283.245600</ele>
        <time>2009-09-13T18:58:35Z</time>
      </trkpt>
      <trkpt lat="50.737744" lon="6.346434">
        <ele>282.765010</ele>
        <time>2009-09-13T18:58:39Z</time>
      </trkpt>
      <trkpt lat="50.737726" lon="6.346331">
        <ele>281.322990</ele>
        <time>2009-09-13T18:58:42Z</time>
      </trkpt>
      <trkpt lat="50.737686" lon="6.346220">
        <ele>289.013540</ele>
        <time>2009-09-13T18:58:45Z</time>
      </trkpt>
      <trkpt lat="50.737690" lon="6.346202">
        <ele>289.494140</ele>
        <time>2009-09-13T18:58:45Z</time>
      </trkpt>
      <trkpt lat="50.737692" lon="6.346158">
        <ele>289.013540</ele>
        <time>2009-09-13T18:58:46Z</time>
      </trkpt>
      <trkpt lat="50.737672" lon="6.346030">
        <ele>287.571410</ele>
        <time>2009-09-13T18:58:50Z</time>
      </trkpt>
      <trkpt lat="50.737631" lon="6.345905">
        <ele>291.416740</ele>
        <time>2009-09-13T18:58:53Z</time>
      </trkpt>
      <trkpt lat="50.737568" lon="6.345755">
        <ele>297.184690</ele>
        <time>2009-09-13T18:58:58Z</time>
      </trkpt>
      <trkpt lat="50.737530" lon="6.345637">
        <ele>291.897460</ele>
        <time>2009-09-13T18:59:01Z</time>
      </trkpt>
      <trkpt lat="50.737518" lon="6.345576">
        <ele>293.339350</ele>
        <time>2009-09-13T18:59:03Z</time>
      </trkpt>
      <trkpt lat="50.737501" lon="6.345506">
        <ele>291.897460</ele>
        <time>2009-09-13T18:59:05Z</time>
      </trkpt>
      <trkpt lat="50.737466" lon="6.345372">
        <ele>291.416740</ele>
        <time>2009-09-13T18:59:08Z</time>
      </trkpt>
      <trkpt lat="50.737398" lon="6.345211">
        <ele>282.765010</ele>
        <time>2009-09-13T18:59:13Z</time>
      </trkpt>
      <trkpt lat="50.737389" lon="6.345175">
        <ele>281.803580</ele>
        <time>2009-09-13T18:59:14Z</time>
      </trkpt>
      <trkpt lat="50.737356" lon="6.345010">
        <ele>279.400260</ele>
        <time>2009-09-13T18:59:19Z</time>
      </trkpt>
      <trkpt lat="50.737334" lon="6.344919">
        <ele>278.919670</ele>
        <time>2009-09-13T18:59:21Z</time>
      </trkpt>
      <trkpt lat="50.737295" lon="6.344796">
        <ele>278.919670</ele>
        <time>2009-09-13T18:59:25Z</time>
      </trkpt>
      <trkpt lat="50.737281" lon="6.344677">
        <ele>281.803580</ele>
        <time>2009-09-13T18:59:28Z</time>
      </trkpt>
      <trkpt lat="50.737241" lon="6.344538">
        <ele>282.284300</ele>
        <time>2009-09-13T18:59:32Z</time>
      </trkpt>
      <trkpt lat="50.737236" lon="6.344527">
        <ele>282.765010</ele>
        <time>2009-09-13T18:59:32Z</time>
      </trkpt>
      <trkpt lat="50.737209" lon="6.344414">
        <ele>284.687620</ele>
        <time>2009-09-13T18:59:35Z</time>
      </trkpt>
      <trkpt lat="50.737187" lon="6.344392">
        <ele>286.129510</ele>
        <time>2009-09-13T18:59:36Z</time>
      </trkpt>
      <trkpt lat="50.737146" lon="6.344275">
        <ele>293.339350</ele>
        <time>2009-09-13T18:59:39Z</time>
      </trkpt>
      <trkpt lat="50.737134" lon="6.344239">
        <ele>295.742670</ele>
        <time>2009-09-13T18:59:40Z</time>
      </trkpt>
      <trkpt lat="50.737104" lon="6.344090">
        <ele>294.781370</ele>
        <time>2009-09-13T18:59:44Z</time>
      </trkpt>
      <trkpt lat="50.737101" lon="6.344067">
        <ele>294.781370</ele>
        <time>2009-09-13T18:59:45Z</time>
      </trkpt>
      <trkpt lat="50.737094" lon="6.343960">
        <ele>295.261960</ele>
        <time>2009-09-13T18:59:48Z</time>
      </trkpt>
      <trkpt lat="50.737103" lon="6.343908">
        <ele>295.742670</ele>
        <time>2009-09-13T18:59:49Z</time>
      </trkpt>
      <trkpt lat="50.737107" lon="6.343813">
        <ele>295.261960</ele>
        <time>2009-09-13T18:59:51Z</time>
      </trkpt>
      <trkpt lat="50.737078" lon="6.343658">
        <ele>296.223510</ele>
        <time>2009-09-13T18:59:56Z</time>
      </trkpt>
      <trkpt lat="50.737023" lon="6.343544">
        <ele>296.223510</ele>
        <time>2009-09-13T18:59:59Z</time>
      </trkpt>
      <trkpt lat="50.736993" lon="6.343431">
        <ele>296.704100</ele>
        <time>2009-09-13T19:00:02Z</time>
      </trkpt>
      <trkpt lat="50.736963" lon="6.343294">
        <ele>298.146110</ele>
        <time>2009-09-13T19:00:06Z</time>
      </trkpt>
      <trkpt lat="50.736915" lon="6.343165">
        <ele>300.068720</ele>
        <time>2009-09-13T19:00:10Z</time>
      </trkpt>
      <trkpt lat="50.736881" lon="6.343029">
        <ele>299.107290</ele>
        <time>2009-09-13T19:00:13Z</time>
      </trkpt>
      <trkpt lat="50.736873" lon="6.343000">
        <ele>300.549310</ele>
        <time>2009-09-13T19:00:14Z</time>
      </trkpt>
      <trkpt lat="50.736832" lon="6.342892">
        <ele>297.665400</ele>
        <time>2009-09-13T19:00:17Z</time>
      </trkpt>
      <trkpt lat="50.736800" lon="6.342704">
        <ele>296.223510</ele>
        <time>2009-09-13T19:00:22Z</time>
      </trkpt>
      <trkpt lat="50.736755" lon="6.342560">
        <ele>298.146110</ele>
        <time>2009-09-13T19:00:26Z</time>
      </trkpt>
      <trkpt lat="50.736757" lon="6.342485">
        <ele>298.626700</ele>
        <time>2009-09-13T19:00:28Z</time>
      </trkpt>
      <trkpt lat="50.736749" lon="6.342435">
        <ele>298.626700</ele>
        <time>2009-09-13T19:00:30Z</time>
      </trkpt>
      <trkpt lat="50.736738" lon="6.342360">
        <ele>298.146110</ele>
        <time>2009-09-13T19:00:32Z</time>
      </trkpt>
      <trkpt lat="50.736731" lon="6.342294">
        <ele>298.626700</ele>
        <time>2009-09-13T19:00:33Z</time>
      </trkpt>
      <trkpt lat="50.736707" lon="6.342143">
        <ele>298.146110</ele>
        <time>2009-09-13T19:00:37Z</time>
      </trkpt>
      <trkpt lat="50.736692" lon="6.342023">
        <ele>298.146110</ele>
        <time>2009-09-13T19:00:40Z</time>
      </trkpt>
      <trkpt lat="50.736692" lon="6.342005">
        <ele>297.665400</ele>
        <time>2009-09-13T19:00:41Z</time>
      </trkpt>
      <trkpt lat="50.736667" lon="6.341926">
        <ele>301.029900</ele>
        <time>2009-09-13T19:00:43Z</time>
      </trkpt>
      <trkpt lat="50.736631" lon="6.341768">
        <ele>301.510620</ele>
        <time>2009-09-13T19:00:47Z</time>
      </trkpt>
      <trkpt lat="50.736613" lon="6.341636">
        <ele>297.665400</ele>
        <time>2009-09-13T19:00:51Z</time>
      </trkpt>
      <trkpt lat="50.736594" lon="6.341567">
        <ele>300.549310</ele>
        <time>2009-09-13T19:00:53Z</time>
      </trkpt>
      <trkpt lat="50.736559" lon="6.341458">
        <ele>307.278560</ele>
        <time>2009-09-13T19:00:56Z</time>
      </trkpt>
      <trkpt lat="50.736527" lon="6.341372">
        <ele>312.565790</ele>
        <time>2009-09-13T19:00:58Z</time>
      </trkpt>
      <trkpt lat="50.736517" lon="6.341318">
        <ele>314.007810</ele>
        <time>2009-09-13T19:01:00Z</time>
      </trkpt>
      <trkpt lat="50.736470" lon="6.341168">
        <ele>311.123770</ele>
        <time>2009-09-13T19:01:04Z</time>
      </trkpt>
      <trkpt lat="50.736449" lon="6.341028">
        <ele>306.797850</ele>
        <time>2009-09-13T19:01:08Z</time>
      </trkpt>
      <trkpt lat="50.736409" lon="6.340902">
        <ele>314.007810</ele>
        <time>2009-09-13T19:01:11Z</time>
      </trkpt>
      <trkpt lat="50.736389" lon="6.340782">
        <ele>314.007810</ele>
        <time>2009-09-13T19:01:14Z</time>
      </trkpt>
      <trkpt lat="50.736337" lon="6.340651">
        <ele>314.488400</ele>
        <time>2009-09-13T19:01:18Z</time>
      </trkpt>
      <trkpt lat="50.736291" lon="6.340488">
        <ele>311.123770</ele>
        <time>2009-09-13T19:01:23Z</time>
      </trkpt>
      <trkpt lat="50.736257" lon="6.340359">
        <ele>311.123770</ele>
        <time>2009-09-13T19:01:26Z</time>
      </trkpt>
      <trkpt lat="50.736247" lon="6.340350">
        <ele>313.046500</ele>
        <time>2009-09-13T19:01:27Z</time>
      </trkpt>
      <trkpt lat="50.736218" lon="6.340187">
        <ele>313.527220</ele>
        <time>2009-09-13T19:01:31Z</time>
      </trkpt>
      <trkpt lat="50.736198" lon="6.340093">
        <ele>314.488400</ele>
        <time>2009-09-13T19:01:34Z</time>
      </trkpt>
      <trkpt lat="50.736182" lon="6.340013">
        <ele>313.046500</ele>
        <time>2009-09-13T19:01:36Z</time>
      </trkpt>
      <trkpt lat="50.736162" lon="6.339938">
        <ele>313.046500</ele>
        <time>2009-09-13T19:01:38Z</time>
      </trkpt>
      <trkpt lat="50.736126" lon="6.339830">
        <ele>317.372430</ele>
        <time>2009-09-13T19:01:41Z</time>
      </trkpt>
      <trkpt lat="50.736114" lon="6.339744">
        <ele>316.411010</ele>
        <time>2009-09-13T19:01:43Z</time>
      </trkpt>
      <trkpt lat="50.736087" lon="6.339589">
        <ele>316.411010</ele>
        <time>2009-09-13T19:01:47Z</time>
      </trkpt>
      <trkpt lat="50.736066" lon="6.339483">
        <ele>316.891720</ele>
        <time>2009-09-13T19:01:50Z</time>
      </trkpt>
      <trkpt lat="50.736062" lon="6.339465">
        <ele>315.930410</ele>
        <time>2009-09-13T19:01:50Z</time>
      </trkpt>
      <trkpt lat="50.736028" lon="6.339341">
        <ele>315.449820</ele>
        <time>2009-09-13T19:01:54Z</time>
      </trkpt>
      <trkpt lat="50.735987" lon="6.339277">
        <ele>317.853020</ele>
        <time>2009-09-13T19:01:56Z</time>
      </trkpt>
      <trkpt lat="50.735948" lon="6.339146">
        <ele>322.659660</ele>
        <time>2009-09-13T19:02:00Z</time>
      </trkpt>
      <trkpt lat="50.735927" lon="6.339036">
        <ele>320.737060</ele>
        <time>2009-09-13T19:02:03Z</time>
      </trkpt>
      <trkpt lat="50.735913" lon="6.338926">
        <ele>317.853020</ele>
        <time>2009-09-13T19:02:06Z</time>
      </trkpt>
      <trkpt lat="50.735888" lon="6.338786">
        <ele>317.372430</ele>
        <time>2009-09-13T19:02:09Z</time>
      </trkpt>
      <trkpt lat="50.735874" lon="6.338659">
        <ele>314.969110</ele>
        <time>2009-09-13T19:02:13Z</time>
      </trkpt>
      <trkpt lat="50.735859" lon="6.338562">
        <ele>314.488400</ele>
        <time>2009-09-13T19:02:15Z</time>
      </trkpt>
      <trkpt lat="50.735843" lon="6.338485">
        <ele>313.046500</ele>
        <time>2009-09-13T19:02:17Z</time>
      </trkpt>
      <trkpt lat="50.735801" lon="6.338365">
        <ele>312.565790</ele>
        <time>2009-09-13T19:02:21Z</time>
      </trkpt>
      <trkpt lat="50.735800" lon="6.338321">
        <ele>311.604490</ele>
        <time>2009-09-13T19:02:22Z</time>
      </trkpt>
      <trkpt lat="50.735775" lon="6.338204">
        <ele>315.930410</ele>
        <time>2009-09-13T19:02:25Z</time>
      </trkpt>
      <trkpt lat="50.735768" lon="6.338182">
        <ele>316.891720</ele>
        <time>2009-09-13T19:02:25Z</time>
      </trkpt>
      <trkpt lat="50.735735" lon="6.338027">
        <ele>317.372430</ele>
        <time>2009-09-13T19:02:30Z</time>
      </trkpt>
      <trkpt lat="50.735695" lon="6.337909">
        <ele>318.333610</ele>
        <time>2009-09-13T19:02:33Z</time>
      </trkpt>
      <trkpt lat="50.735664" lon="6.337775">
        <ele>321.217770</ele>
        <time>2009-09-13T19:02:37Z</time>
      </trkpt>
      <trkpt lat="50.735657" lon="6.337748">
        <ele>321.217770</ele>
        <time>2009-09-13T19:02:37Z</time>
      </trkpt>
      <trkpt lat="50.735622" lon="6.337592">
        <ele>319.295040</ele>
        <time>2009-09-13T19:02:42Z</time>
      </trkpt>
      <trkpt lat="50.735594" lon="6.337483">
        <ele>318.814330</ele>
        <time>2009-09-13T19:02:45Z</time>
      </trkpt>
      <trkpt lat="50.735565" lon="6.337378">
        <ele>319.295040</ele>
        <time>2009-09-13T19:02:47Z</time>
      </trkpt>
      <trkpt lat="50.735540" lon="6.337310">
        <ele>319.295040</ele>
        <time>2009-09-13T19:02:49Z</time>
      </trkpt>
      <trkpt lat="50.735532" lon="6.337233">
        <ele>319.295040</ele>
        <time>2009-09-13T19:02:51Z</time>
      </trkpt>
      <trkpt lat="50.735527" lon="6.337198">
        <ele>320.256340</ele>
        <time>2009-09-13T19:02:52Z</time>
      </trkpt>
      <trkpt lat="50.735486" lon="6.337038">
        <ele>323.620970</ele>
        <time>2009-09-13T19:02:57Z</time>
      </trkpt>
      <trkpt lat="50.735480" lon="6.337004">
        <ele>322.659660</ele>
        <time>2009-09-13T19:02:58Z</time>
      </trkpt>
      <trkpt lat="50.735437" lon="6.336881">
        <ele>321.698360</ele>
        <time>2009-09-13T19:03:01Z</time>
      </trkpt>
      <trkpt lat="50.735423" lon="6.336844">
        <ele>322.659660</ele>
        <time>2009-09-13T19:03:02Z</time>
      </trkpt>
      <trkpt lat="50.735384" lon="6.336701">
        <ele>324.101560</ele>
        <time>2009-09-13T19:03:06Z</time>
      </trkpt>
      <trkpt lat="50.735362" lon="6.336623">
        <ele>323.620970</ele>
        <time>2009-09-13T19:03:08Z</time>
      </trkpt>
      <trkpt lat="50.735357" lon="6.336539">
        <ele>323.620970</ele>
        <time>2009-09-13T19:03:10Z</time>
      </trkpt>
      <trkpt lat="50.735308" lon="6.336337">
        <ele>325.062980</ele>
        <time>2009-09-13T19:03:16Z</time>
      </trkpt>
      <trkpt lat="50.735254" lon="6.336170">
        <ele>326.985590</ele>
        <time>2009-09-13T19:03:21Z</time>
      </trkpt>
      <trkpt lat="50.735248" lon="6.336149">
        <ele>326.985590</ele>
        <time>2009-09-13T19:03:21Z</time>
      </trkpt>
      <trkpt lat="50.735225" lon="6.336047">
        <ele>327.466180</ele>
        <time>2009-09-13T19:03:24Z</time>
      </trkpt>
      <trkpt lat="50.735188" lon="6.335952">
        <ele>328.908320</ele>
        <time>2009-09-13T19:03:27Z</time>
      </trkpt>
      <trkpt lat="50.735156" lon="6.335873">
        <ele>330.830930</ele>
        <time>2009-09-13T19:03:29Z</time>
      </trkpt>
      <trkpt lat="50.735115" lon="6.335749">
        <ele>326.024160</ele>
        <time>2009-09-13T19:03:33Z</time>
      </trkpt>
      <trkpt lat="50.735106" lon="6.335723">
        <ele>326.024160</ele>
        <time>2009-09-13T19:03:34Z</time>
      </trkpt>
      <trkpt lat="50.735088" lon="6.335701">
        <ele>326.024160</ele>
        <time>2009-09-13T19:03:34Z</time>
      </trkpt>
      <trkpt lat="50.735012" lon="6.335572">
        <ele>327.946770</ele>
        <time>2009-09-13T19:03:39Z</time>
      </trkpt>
      <trkpt lat="50.734950" lon="6.335477">
        <ele>326.504880</ele>
        <time>2009-09-13T19:03:42Z</time>
      </trkpt>
      <trkpt lat="50.734877" lon="6.335388">
        <ele>327.466180</ele>
        <time>2009-09-13T19:03:46Z</time>
      </trkpt>
      <trkpt lat="50.734815" lon="6.335275">
        <ele>327.946770</ele>
        <time>2009-09-13T19:03:50Z</time>
      </trkpt>
      <trkpt lat="50.734773" lon="6.335229">
        <ele>328.427610</ele>
        <time>2009-09-13T19:03:52Z</time>
      </trkpt>
      <trkpt lat="50.734691" lon="6.335123">
        <ele>329.869500</ele>
        <time>2009-09-13T19:03:56Z</time>
      </trkpt>
      <trkpt lat="50.734633" lon="6.334999">
        <ele>328.427610</ele>
        <time>2009-09-13T19:04:00Z</time>
      </trkpt>
      <trkpt lat="50.734580" lon="6.334902">
        <ele>330.830930</ele>
        <time>2009-09-13T19:04:03Z</time>
      </trkpt>
      <trkpt lat="50.734571" lon="6.334873">
        <ele>331.311520</ele>
        <time>2009-09-13T19:04:04Z</time>
      </trkpt>
      <trkpt lat="50.734583" lon="6.334850">
        <ele>332.753540</ele>
        <time>2009-09-13T19:04:05Z</time>
      </trkpt>
      <trkpt lat="50.734572" lon="6.334844">
        <ele>333.234130</ele>
        <time>2009-09-13T19:04:05Z</time>
      </trkpt>
      <trkpt lat="50.734509" lon="6.334715">
        <ele>333.714720</ele>
        <time>2009-09-13T19:04:09Z</time>
      </trkpt>
      <trkpt lat="50.734469" lon="6.334602">
        <ele>332.753540</ele>
        <time>2009-09-13T19:04:13Z</time>
      </trkpt>
      <trkpt lat="50.734435" lon="6.334485">
        <ele>327.946770</ele>
        <time>2009-09-13T19:04:16Z</time>
      </trkpt>
      <trkpt lat="50.734377" lon="6.334356">
        <ele>325.543570</ele>
        <time>2009-09-13T19:04:20Z</time>
      </trkpt>
      <trkpt lat="50.734341" lon="6.334242">
        <ele>324.582270</ele>
        <time>2009-09-13T19:04:23Z</time>
      </trkpt>
      <trkpt lat="50.734280" lon="6.334144">
        <ele>326.024160</ele>
        <time>2009-09-13T19:04:27Z</time>
      </trkpt>
      <trkpt lat="50.734245" lon="6.334021">
        <ele>324.101560</ele>
        <time>2009-09-13T19:04:30Z</time>
      </trkpt>
      <trkpt lat="50.734212" lon="6.333913">
        <ele>322.178950</ele>
        <time>2009-09-13T19:04:33Z</time>
      </trkpt>
      <trkpt lat="50.734206" lon="6.333884">
        <ele>321.698360</ele>
        <time>2009-09-13T19:04:34Z</time>
      </trkpt>
      <trkpt lat="50.734195" lon="6.333701">
        <ele>318.814330</ele>
        <time>2009-09-13T19:04:39Z</time>
      </trkpt>
      <trkpt lat="50.734166" lon="6.333551">
        <ele>316.891720</ele>
        <time>2009-09-13T19:04:43Z</time>
      </trkpt>
      <trkpt lat="50.734162" lon="6.333423">
        <ele>314.488400</ele>
        <time>2009-09-13T19:04:46Z</time>
      </trkpt>
      <trkpt lat="50.734149" lon="6.333354">
        <ele>314.969110</ele>
        <time>2009-09-13T19:04:48Z</time>
      </trkpt>
      <trkpt lat="50.734129" lon="6.333234">
        <ele>313.527220</ele>
        <time>2009-09-13T19:04:51Z</time>
      </trkpt>
      <trkpt lat="50.734139" lon="6.333127">
        <ele>311.604490</ele>
        <time>2009-09-13T19:04:54Z</time>
      </trkpt>
      <trkpt lat="50.734147" lon="6.333044">
        <ele>310.643060</ele>
        <time>2009-09-13T19:04:56Z</time>
      </trkpt>
      <trkpt lat="50.734144" lon="6.332993">
        <ele>310.643060</ele>
        <time>2009-09-13T19:04:57Z</time>
      </trkpt>
      <trkpt lat="50.734127" lon="6.332928">
        <ele>308.720450</ele>
        <time>2009-09-13T19:04:59Z</time>
      </trkpt>
      <trkpt lat="50.734125" lon="6.332834">
        <ele>308.720450</ele>
        <time>2009-09-13T19:05:01Z</time>
      </trkpt>
      <trkpt lat="50.734130" lon="6.332785">
        <ele>309.201170</ele>
        <time>2009-09-13T19:05:02Z</time>
      </trkpt>
      <trkpt lat="50.734110" lon="6.332667">
        <ele>307.278560</ele>
        <time>2009-09-13T19:05:05Z</time>
      </trkpt>
      <trkpt lat="50.734114" lon="6.332565">
        <ele>307.759270</ele>
        <time>2009-09-13T19:05:08Z</time>
      </trkpt>
      <trkpt lat="50.734099" lon="6.332461">
        <ele>306.797850</ele>
        <time>2009-09-13T19:05:11Z</time>
      </trkpt>
      <trkpt lat="50.734098" lon="6.332440">
        <ele>307.278560</ele>
        <time>2009-09-13T19:05:11Z</time>
      </trkpt>
      <trkpt lat="50.734075" lon="6.332294">
        <ele>308.720450</ele>
        <time>2009-09-13T19:05:15Z</time>
      </trkpt>
      <trkpt lat="50.734047" lon="6.332167">
        <ele>308.239860</ele>
        <time>2009-09-13T19:05:18Z</time>
      </trkpt>
      <trkpt lat="50.734050" lon="6.332115">
        <ele>307.759270</ele>
        <time>2009-09-13T19:05:20Z</time>
      </trkpt>
      <trkpt lat="50.734034" lon="6.331969">
        <ele>308.239860</ele>
        <time>2009-09-13T19:05:24Z</time>
      </trkpt>
      <trkpt lat="50.734005" lon="6.331842">
        <ele>306.797850</ele>
        <time>2009-09-13T19:05:27Z</time>
      </trkpt>
      <trkpt lat="50.733996" lon="6.331800">
        <ele>307.278560</ele>
        <time>2009-09-13T19:05:28Z</time>
      </trkpt>
      <trkpt lat="50.733971" lon="6.331704">
        <ele>306.797850</ele>
        <time>2009-09-13T19:05:31Z</time>
      </trkpt>
      <trkpt lat="50.733978" lon="6.331566">
        <ele>305.355950</ele>
        <time>2009-09-13T19:05:34Z</time>
      </trkpt>
      <trkpt lat="50.733980" lon="6.331436">
        <ele>304.875240</ele>
        <time>2009-09-13T19:05:38Z</time>
      </trkpt>
      <trkpt lat="50.733974" lon="6.331314">
        <ele>305.355950</ele>
        <time>2009-09-13T19:05:41Z</time>
      </trkpt>
      <trkpt lat="50.733982" lon="6.331161">
        <ele>306.317260</ele>
        <time>2009-09-13T19:05:45Z</time>
      </trkpt>
      <trkpt lat="50.733976" lon="6.331080">
        <ele>307.278560</ele>
        <time>2009-09-13T19:05:47Z</time>
      </trkpt>
      <trkpt lat="50.733989" lon="6.330965">
        <ele>305.836660</ele>
        <time>2009-09-13T19:05:50Z</time>
      </trkpt>
      <trkpt lat="50.733992" lon="6.330796">
        <ele>306.797850</ele>
        <time>2009-09-13T19:05:54Z</time>
      </trkpt>
      <trkpt lat="50.733988" lon="6.330673">
        <ele>306.797850</ele>
        <time>2009-09-13T19:05:57Z</time>
      </trkpt>
      <trkpt lat="50.733997" lon="6.330518">
        <ele>305.355950</ele>
        <time>2009-09-13T19:06:01Z</time>
      </trkpt>
      <trkpt lat="50.733988" lon="6.330402">
        <ele>304.394650</ele>
        <time>2009-09-13T19:06:04Z</time>
      </trkpt>
      <trkpt lat="50.733953" lon="6.330309">
        <ele>304.875240</ele>
        <time>2009-09-13T19:06:07Z</time>
      </trkpt>
      <trkpt lat="50.733902" lon="6.330253">
        <ele>304.394650</ele>
        <time>2009-09-13T19:06:09Z</time>
      </trkpt>
      <trkpt lat="50.733854" lon="6.330174">
        <ele>305.355950</ele>
        <time>2009-09-13T19:06:12Z</time>
      </trkpt>
      <trkpt lat="50.733783" lon="6.330090">
        <ele>304.875240</ele>
        <time>2009-09-13T19:06:15Z</time>
      </trkpt>
      <trkpt lat="50.733714" lon="6.329948">
        <ele>302.471920</ele>
        <time>2009-09-13T19:06:20Z</time>
      </trkpt>
      <trkpt lat="50.733651" lon="6.329883">
        <ele>300.068720</ele>
        <time>2009-09-13T19:06:23Z</time>
      </trkpt>
      <trkpt lat="50.733621" lon="6.329814">
        <ele>299.107290</ele>
        <time>2009-09-13T19:06:25Z</time>
      </trkpt>
      <trkpt lat="50.733590" lon="6.329729">
        <ele>297.184690</ele>
        <time>2009-09-13T19:06:28Z</time>
      </trkpt>
      <trkpt lat="50.733568" lon="6.329662">
        <ele>296.223510</ele>
        <time>2009-09-13T19:06:30Z</time>
      </trkpt>
      <trkpt lat="50.733508" lon="6.329528">
        <ele>299.588010</ele>
        <time>2009-09-13T19:06:34Z</time>
      </trkpt>
      <trkpt lat="50.733485" lon="6.329461">
        <ele>299.107290</ele>
        <time>2009-09-13T19:06:36Z</time>
      </trkpt>
      <trkpt lat="50.733446" lon="6.329375">
        <ele>296.704100</ele>
        <time>2009-09-13T19:06:38Z</time>
      </trkpt>
      <trkpt lat="50.733409" lon="6.329279">
        <ele>295.261960</ele>
        <time>2009-09-13T19:06:41Z</time>
      </trkpt>
      <trkpt lat="50.733398" lon="6.329264">
        <ele>295.261960</ele>
        <time>2009-09-13T19:06:42Z</time>
      </trkpt>
      <trkpt lat="50.733332" lon="6.329148">
        <ele>296.223510</ele>
        <time>2009-09-13T19:06:46Z</time>
      </trkpt>
      <trkpt lat="50.733280" lon="6.329072">
        <ele>297.184690</ele>
        <time>2009-09-13T19:06:48Z</time>
      </trkpt>
      <trkpt lat="50.733204" lon="6.328916">
        <ele>300.068720</ele>
        <time>2009-09-13T19:06:53Z</time>
      </trkpt>
      <trkpt lat="50.733165" lon="6.328823">
        <ele>298.626700</ele>
        <time>2009-09-13T19:06:56Z</time>
      </trkpt>
      <trkpt lat="50.733109" lon="6.328649">
        <ele>298.626700</ele>
        <time>2009-09-13T19:07:01Z</time>
      </trkpt>
      <trkpt lat="50.733090" lon="6.328517">
        <ele>299.107290</ele>
        <time>2009-09-13T19:07:05Z</time>
      </trkpt>
      <trkpt lat="50.733081" lon="6.328434">
        <ele>298.626700</ele>
        <time>2009-09-13T19:07:07Z</time>
      </trkpt>
      <trkpt lat="50.733090" lon="6.328272">
        <ele>300.549310</ele>
        <time>2009-09-13T19:07:11Z</time>
      </trkpt>
      <trkpt lat="50.733096" lon="6.328199">
        <ele>302.471920</ele>
        <time>2009-09-13T19:07:13Z</time>
      </trkpt>
      <trkpt lat="50.733153" lon="6.328077">
        <ele>301.510620</ele>
        <time>2009-09-13T19:07:17Z</time>
      </trkpt>
      <trkpt lat="50.733214" lon="6.327942">
        <ele>302.471920</ele>
        <time>2009-09-13T19:07:21Z</time>
      </trkpt>
      <trkpt lat="50.733291" lon="6.327903">
        <ele>302.952510</ele>
        <time>2009-09-13T19:07:24Z</time>
      </trkpt>
      <trkpt lat="50.733349" lon="6.327829">
        <ele>301.991330</ele>
        <time>2009-09-13T19:07:27Z</time>
      </trkpt>
      <trkpt lat="50.733366" lon="6.327794">
        <ele>301.510620</ele>
        <time>2009-09-13T19:07:28Z</time>
      </trkpt>
      <trkpt lat="50.733403" lon="6.327578">
        <ele>298.626700</ele>
        <time>2009-09-13T19:07:34Z</time>
      </trkpt>
      <trkpt lat="50.733407" lon="6.327464">
        <ele>297.184690</ele>
        <time>2009-09-13T19:07:37Z</time>
      </trkpt>
      <trkpt lat="50.733411" lon="6.327443">
        <ele>296.704100</ele>
        <time>2009-09-13T19:07:37Z</time>
      </trkpt>
      <trkpt lat="50.733412" lon="6.327301">
        <ele>294.781370</ele>
        <time>2009-09-13T19:07:41Z</time>
      </trkpt>
      <trkpt lat="50.733418" lon="6.327159">
        <ele>295.742670</ele>
        <time>2009-09-13T19:07:44Z</time>
      </trkpt>
      <trkpt lat="50.733416" lon="6.327138">
        <ele>295.742670</ele>
        <time>2009-09-13T19:07:45Z</time>
      </trkpt>
      <trkpt lat="50.733388" lon="6.326994">
        <ele>294.300780</ele>
        <time>2009-09-13T19:07:49Z</time>
      </trkpt>
      <trkpt lat="50.733338" lon="6.326879">
        <ele>297.665400</ele>
        <time>2009-09-13T19:07:52Z</time>
      </trkpt>
      <trkpt lat="50.733303" lon="6.326835">
        <ele>298.626700</ele>
        <time>2009-09-13T19:07:54Z</time>
      </trkpt>
      <trkpt lat="50.733268" lon="6.326774">
        <ele>299.107290</ele>
        <time>2009-09-13T19:07:56Z</time>
      </trkpt>
      <trkpt lat="50.733244" lon="6.326748">
        <ele>298.626700</ele>
        <time>2009-09-13T19:07:57Z</time>
      </trkpt>
      <trkpt lat="50.733182" lon="6.326663">
        <ele>296.223510</ele>
        <time>2009-09-13T19:08:01Z</time>
      </trkpt>
      <trkpt lat="50.733116" lon="6.326600">
        <ele>297.665400</ele>
        <time>2009-09-13T19:08:04Z</time>
      </trkpt>
      <trkpt lat="50.733048" lon="6.326539">
        <ele>296.223510</ele>
        <time>2009-09-13T19:08:07Z</time>
      </trkpt>
      <trkpt lat="50.732947" lon="6.326424">
        <ele>295.261960</ele>
        <time>2009-09-13T19:08:12Z</time>
      </trkpt>
      <trkpt lat="50.732839" lon="6.326349">
        <ele>297.184690</ele>
        <time>2009-09-13T19:08:17Z</time>
      </trkpt>
      <trkpt lat="50.732824" lon="6.326342">
        <ele>296.223510</ele>
        <time>2009-09-13T19:08:17Z</time>
      </trkpt>
      <trkpt lat="50.732776" lon="6.326321">
        <ele>295.742670</ele>
        <time>2009-09-13T19:08:19Z</time>
      </trkpt>
      <trkpt lat="50.732671" lon="6.326263">
        <ele>293.820060</ele>
        <time>2009-09-13T19:08:24Z</time>
      </trkpt>
      <trkpt lat="50.732562" lon="6.326216">
        <ele>293.820060</ele>
        <time>2009-09-13T19:08:28Z</time>
      </trkpt>
      <trkpt lat="50.732545" lon="6.326205">
        <ele>293.820060</ele>
        <time>2009-09-13T19:08:29Z</time>
      </trkpt>
      <trkpt lat="50.732488" lon="6.326199">
        <ele>294.781370</ele>
        <time>2009-09-13T19:08:31Z</time>
      </trkpt>
      <trkpt lat="50.732395" lon="6.326177">
        <ele>293.820060</ele>
        <time>2009-09-13T19:08:35Z</time>
      </trkpt>
      <trkpt lat="50.732323" lon="6.326198">
        <ele>294.781370</ele>
        <time>2009-09-13T19:08:38Z</time>
      </trkpt>
      <trkpt lat="50.732235" lon="6.326155">
        <ele>293.820060</ele>
        <time>2009-09-13T19:08:42Z</time>
      </trkpt>
      <trkpt lat="50.732166" lon="6.326163">
        <ele>293.820060</ele>
        <time>2009-09-13T19:08:44Z</time>
      </trkpt>
      <trkpt lat="50.732119" lon="6.326154">
        <ele>295.261960</ele>
        <time>2009-09-13T19:08:46Z</time>
      </trkpt>
      <trkpt lat="50.732063" lon="6.326137">
        <ele>292.378170</ele>
        <time>2009-09-13T19:08:49Z</time>
      </trkpt>
      <trkpt lat="50.731972" lon="6.326155">
        <ele>294.781370</ele>
        <time>2009-09-13T19:08:52Z</time>
      </trkpt>
      <trkpt lat="50.731892" lon="6.326090">
        <ele>295.261960</ele>
        <time>2009-09-13T19:08:56Z</time>
      </trkpt>
      <trkpt lat="50.731776" lon="6.326044">
        <ele>299.107290</ele>
        <time>2009-09-13T19:09:01Z</time>
      </trkpt>
      <trkpt lat="50.731713" lon="6.325954">
        <ele>298.146110</ele>
        <time>2009-09-13T19:09:04Z</time>
      </trkpt>
      <trkpt lat="50.731691" lon="6.325891">
        <ele>297.184690</ele>
        <time>2009-09-13T19:09:06Z</time>
      </trkpt>
      <trkpt lat="50.731684" lon="6.325850">
        <ele>296.223510</ele>
        <time>2009-09-13T19:09:07Z</time>
      </trkpt>
      <trkpt lat="50.731691" lon="6.325752">
        <ele>290.455560</ele>
        <time>2009-09-13T19:09:09Z</time>
      </trkpt>
      <trkpt lat="50.731667" lon="6.325699">
        <ele>289.013540</ele>
        <time>2009-09-13T19:09:11Z</time>
      </trkpt>
      <trkpt lat="50.731644" lon="6.325666">
        <ele>288.532950</ele>
        <time>2009-09-13T19:09:12Z</time>
      </trkpt>
      <trkpt lat="50.731557" lon="6.325636">
        <ele>286.610220</ele>
        <time>2009-09-13T19:09:16Z</time>
      </trkpt>
      <trkpt lat="50.731543" lon="6.325623">
        <ele>286.610220</ele>
        <time>2009-09-13T19:09:17Z</time>
      </trkpt>
      <trkpt lat="50.731457" lon="6.325615">
        <ele>282.284300</ele>
        <time>2009-09-13T19:09:20Z</time>
      </trkpt>
      <trkpt lat="50.731381" lon="6.325600">
        <ele>284.687620</ele>
        <time>2009-09-13T19:09:23Z</time>
      </trkpt>
      <trkpt lat="50.731320" lon="6.325574">
        <ele>282.284300</ele>
        <time>2009-09-13T19:09:26Z</time>
      </trkpt>
      <trkpt lat="50.731259" lon="6.325487">
        <ele>286.610220</ele>
        <time>2009-09-13T19:09:29Z</time>
      </trkpt>
      <trkpt lat="50.731187" lon="6.325406">
        <ele>285.648800</ele>
        <time>2009-09-13T19:09:32Z</time>
      </trkpt>
      <trkpt lat="50.731176" lon="6.325382">
        <ele>285.648800</ele>
        <time>2009-09-13T19:09:33Z</time>
      </trkpt>
      <trkpt lat="50.731097" lon="6.325275">
        <ele>289.494140</ele>
        <time>2009-09-13T19:09:37Z</time>
      </trkpt>
      <trkpt lat="50.731003" lon="6.325178">
        <ele>293.339350</ele>
        <time>2009-09-13T19:09:42Z</time>
      </trkpt>
      <trkpt lat="50.730948" lon="6.325077">
        <ele>292.378170</ele>
        <time>2009-09-13T19:09:45Z</time>
      </trkpt>
      <trkpt lat="50.730912" lon="6.325021">
        <ele>289.974850</ele>
        <time>2009-09-13T19:09:47Z</time>
      </trkpt>
      <trkpt lat="50.730823" lon="6.324947">
        <ele>294.300780</ele>
        <time>2009-09-13T19:09:51Z</time>
      </trkpt>
      <trkpt lat="50.730809" lon="6.324908">
        <ele>297.184690</ele>
        <time>2009-09-13T19:09:52Z</time>
      </trkpt>
      <trkpt lat="50.730733" lon="6.324807">
        <ele>299.107290</ele>
        <time>2009-09-13T19:09:56Z</time>
      </trkpt>
      <trkpt lat="50.730711" lon="6.324796">
        <ele>299.588010</ele>
        <time>2009-09-13T19:09:57Z</time>
      </trkpt>
      <trkpt lat="50.730672" lon="6.324714">
        <ele>296.223510</ele>
        <time>2009-09-13T19:10:00Z</time>
      </trkpt>
      <trkpt lat="50.730648" lon="6.324679">
        <ele>292.378170</ele>
        <time>2009-09-13T19:10:01Z</time>
      </trkpt>
      <trkpt lat="50.730608" lon="6.324604">
        <ele>284.687620</ele>
        <time>2009-09-13T19:10:04Z</time>
      </trkpt>
      <trkpt lat="50.730550" lon="6.324517">
        <ele>280.842400</ele>
        <time>2009-09-13T19:10:07Z</time>
      </trkpt>
      <trkpt lat="50.730478" lon="6.324387">
        <ele>274.113030</ele>
        <time>2009-09-13T19:10:11Z</time>
      </trkpt>
      <trkpt lat="50.730471" lon="6.324373">
        <ele>273.632440</ele>
        <time>2009-09-13T19:10:12Z</time>
      </trkpt>
      <trkpt lat="50.730431" lon="6.324250">
        <ele>272.671140</ele>
        <time>2009-09-13T19:10:15Z</time>
      </trkpt>
      <trkpt lat="50.730336" lon="6.324088">
        <ele>274.593750</ele>
        <time>2009-09-13T19:10:21Z</time>
      </trkpt>
      <trkpt lat="50.730220" lon="6.323955">
        <ele>274.113030</ele>
        <time>2009-09-13T19:10:27Z</time>
      </trkpt>
      <trkpt lat="50.730137" lon="6.323925">
        <ele>274.593750</ele>
        <time>2009-09-13T19:10:30Z</time>
      </trkpt>
      <trkpt lat="50.730037" lon="6.324015">
        <ele>284.687620</ele>
        <time>2009-09-13T19:10:35Z</time>
      </trkpt>
      <trkpt lat="50.729934" lon="6.324195">
        <ele>297.665400</ele>
        <time>2009-09-13T19:10:41Z</time>
      </trkpt>
      <trkpt lat="50.729825" lon="6.324309">
        <ele>307.759270</ele>
        <time>2009-09-13T19:10:46Z</time>
      </trkpt>
      <trkpt lat="50.729689" lon="6.324285">
        <ele>303.913940</ele>
        <time>2009-09-13T19:10:51Z</time>
      </trkpt>
      <trkpt lat="50.729575" lon="6.324298">
        <ele>301.991330</ele>
        <time>2009-09-13T19:10:56Z</time>
      </trkpt>
      <trkpt lat="50.729496" lon="6.324274">
        <ele>301.510620</ele>
        <time>2009-09-13T19:10:59Z</time>
      </trkpt>
      <trkpt lat="50.729395" lon="6.324228">
        <ele>294.300780</ele>
        <time>2009-09-13T19:11:03Z</time>
      </trkpt>
      <trkpt lat="50.729332" lon="6.324224">
        <ele>290.936150</ele>
        <time>2009-09-13T19:11:06Z</time>
      </trkpt>
      <trkpt lat="50.729243" lon="6.324239">
        <ele>290.455560</ele>
        <time>2009-09-13T19:11:10Z</time>
      </trkpt>
      <trkpt lat="50.729130" lon="6.324220">
        <ele>287.571410</ele>
        <time>2009-09-13T19:11:14Z</time>
      </trkpt>
      <trkpt lat="50.729044" lon="6.324196">
        <ele>285.648800</ele>
        <time>2009-09-13T19:11:18Z</time>
      </trkpt>
      <trkpt lat="50.728961" lon="6.324190">
        <ele>286.610220</ele>
        <time>2009-09-13T19:11:21Z</time>
      </trkpt>
      <trkpt lat="50.728864" lon="6.324177">
        <ele>285.168210</ele>
        <time>2009-09-13T19:11:25Z</time>
      </trkpt>
      <trkpt lat="50.728828" lon="6.324185">
        <ele>284.687620</ele>
        <time>2009-09-13T19:11:26Z</time>
      </trkpt>
      <trkpt lat="50.728772" lon="6.324131">
        <ele>288.532950</ele>
        <time>2009-09-13T19:11:29Z</time>
      </trkpt>
      <trkpt lat="50.728738" lon="6.324111">
        <ele>287.571410</ele>
        <time>2009-09-13T19:11:30Z</time>
      </trkpt>
      <trkpt lat="50.728676" lon="6.324084">
        <ele>289.013540</ele>
        <time>2009-09-13T19:11:33Z</time>
      </trkpt>
      <trkpt lat="50.728635" lon="6.324080">
        <ele>290.455560</ele>
        <time>2009-09-13T19:11:35Z</time>
      </trkpt>
      <trkpt lat="50.728578" lon="6.324024">
        <ele>289.013540</ele>
        <time>2009-09-13T19:11:37Z</time>
      </trkpt>
      <trkpt lat="50.728522" lon="6.323993">
        <ele>289.494140</ele>
        <time>2009-09-13T19:11:40Z</time>
      </trkpt>
      <trkpt lat="50.728453" lon="6.323961">
        <ele>289.494140</ele>
        <time>2009-09-13T19:11:42Z</time>
      </trkpt>
      <trkpt lat="50.728396" lon="6.323896">
        <ele>287.571410</ele>
        <time>2009-09-13T19:11:45Z</time>
      </trkpt>
      <trkpt lat="50.728353" lon="6.323846">
        <ele>286.129510</ele>
        <time>2009-09-13T19:11:47Z</time>
      </trkpt>
      <trkpt lat="50.728288" lon="6.323795">
        <ele>286.129510</ele>
        <time>2009-09-13T19:11:50Z</time>
      </trkpt>
      <trkpt lat="50.728218" lon="6.323736">
        <ele>285.648800</ele>
        <time>2009-09-13T19:11:54Z</time>
      </trkpt>
      <trkpt lat="50.728211" lon="6.323726">
        <ele>286.610220</ele>
        <time>2009-09-13T19:11:54Z</time>
      </trkpt>
      <trkpt lat="50.728136" lon="6.323665">
        <ele>290.455560</ele>
        <time>2009-09-13T19:11:57Z</time>
      </trkpt>
      <trkpt lat="50.728035" lon="6.323622">
        <ele>292.378170</ele>
        <time>2009-09-13T19:12:01Z</time>
      </trkpt>
      <trkpt lat="50.728002" lon="6.323606">
        <ele>292.858760</ele>
        <time>2009-09-13T19:12:03Z</time>
      </trkpt>
      <trkpt lat="50.727979" lon="6.323601">
        <ele>292.858760</ele>
        <time>2009-09-13T19:12:04Z</time>
      </trkpt>
      <trkpt lat="50.727941" lon="6.323571">
        <ele>292.378170</ele>
        <time>2009-09-13T19:12:05Z</time>
      </trkpt>
      <trkpt lat="50.727901" lon="6.323545">
        <ele>290.936150</ele>
        <time>2009-09-13T19:12:07Z</time>
      </trkpt>
      <trkpt lat="50.727889" lon="6.323509">
        <ele>288.052240</ele>
        <time>2009-09-13T19:12:08Z</time>
      </trkpt>
      <trkpt lat="50.727789" lon="6.323494">
        <ele>291.416740</ele>
        <time>2009-09-13T19:12:12Z</time>
      </trkpt>
      <trkpt lat="50.727753" lon="6.323485">
        <ele>291.897460</ele>
        <time>2009-09-13T19:12:14Z</time>
      </trkpt>
      <trkpt lat="50.727695" lon="6.323489">
        <ele>292.378170</ele>
        <time>2009-09-13T19:12:16Z</time>
      </trkpt>
      <trkpt lat="50.727593" lon="6.323445">
        <ele>292.378170</ele>
        <time>2009-09-13T19:12:20Z</time>
      </trkpt>
      <trkpt lat="50.727519" lon="6.323430">
        <ele>292.858760</ele>
        <time>2009-09-13T19:12:23Z</time>
      </trkpt>
      <trkpt lat="50.727467" lon="6.323438">
        <ele>297.665400</ele>
        <time>2009-09-13T19:12:25Z</time>
      </trkpt>
      <trkpt lat="50.727374" lon="6.323434">
        <ele>299.107290</ele>
        <time>2009-09-13T19:12:29Z</time>
      </trkpt>
      <trkpt lat="50.727353" lon="6.323426">
        <ele>299.588010</ele>
        <time>2009-09-13T19:12:30Z</time>
      </trkpt>
      <trkpt lat="50.727289" lon="6.323361">
        <ele>300.549310</ele>
        <time>2009-09-13T19:12:33Z</time>
      </trkpt>
      <trkpt lat="50.727176" lon="6.323261">
        <ele>301.029900</ele>
        <time>2009-09-13T19:12:38Z</time>
      </trkpt>
      <trkpt lat="50.727103" lon="6.323249">
        <ele>302.471920</ele>
        <time>2009-09-13T19:12:41Z</time>
      </trkpt>
      <trkpt lat="50.727042" lon="6.323254">
        <ele>303.913940</ele>
        <time>2009-09-13T19:12:44Z</time>
      </trkpt>
      <trkpt lat="50.727020" lon="6.323240">
        <ele>303.433220</ele>
        <time>2009-09-13T19:12:45Z</time>
      </trkpt>
      <trkpt lat="50.726900" lon="6.323170">
        <ele>303.433220</ele>
        <time>2009-09-13T19:12:50Z</time>
      </trkpt>
      <trkpt lat="50.726847" lon="6.323149">
        <ele>301.029900</ele>
        <time>2009-09-13T19:12:52Z</time>
      </trkpt>
      <trkpt lat="50.726786" lon="6.323099">
        <ele>297.184690</ele>
        <time>2009-09-13T19:12:55Z</time>
      </trkpt>
      <trkpt lat="50.726720" lon="6.323073">
        <ele>295.261960</ele>
        <time>2009-09-13T19:12:57Z</time>
      </trkpt>
      <trkpt lat="50.726632" lon="6.323036">
        <ele>297.665400</ele>
        <time>2009-09-13T19:13:01Z</time>
      </trkpt>
      <trkpt lat="50.726591" lon="6.323018">
        <ele>300.549310</ele>
        <time>2009-09-13T19:13:03Z</time>
      </trkpt>
      <trkpt lat="50.726485" lon="6.322932">
        <ele>292.858760</ele>
        <time>2009-09-13T19:13:07Z</time>
      </trkpt>
      <trkpt lat="50.726429" lon="6.322882">
        <ele>292.378170</ele>
        <time>2009-09-13T19:13:10Z</time>
      </trkpt>
      <trkpt lat="50.726327" lon="6.322829">
        <ele>289.013540</ele>
        <time>2009-09-13T19:13:14Z</time>
      </trkpt>
      <trkpt lat="50.726241" lon="6.322738">
        <ele>288.532950</ele>
        <time>2009-09-13T19:13:18Z</time>
      </trkpt>
      <trkpt lat="50.726215" lon="6.322717">
        <ele>290.936150</ele>
        <time>2009-09-13T19:13:20Z</time>
      </trkpt>
      <trkpt lat="50.726171" lon="6.322661">
        <ele>290.455560</ele>
        <time>2009-09-13T19:13:22Z</time>
      </trkpt>
      <trkpt lat="50.726122" lon="6.322615">
        <ele>292.378170</ele>
        <time>2009-09-13T19:13:24Z</time>
      </trkpt>
      <trkpt lat="50.726041" lon="6.322570">
        <ele>294.300780</ele>
        <time>2009-09-13T19:13:28Z</time>
      </trkpt>
      <trkpt lat="50.725918" lon="6.322486">
        <ele>294.781370</ele>
        <time>2009-09-13T19:13:33Z</time>
      </trkpt>
      <trkpt lat="50.725908" lon="6.322477">
        <ele>294.300780</ele>
        <time>2009-09-13T19:13:33Z</time>
      </trkpt>
      <trkpt lat="50.725886" lon="6.322418">
        <ele>293.339350</ele>
        <time>2009-09-13T19:13:35Z</time>
      </trkpt>
      <trkpt lat="50.725839" lon="6.322319">
        <ele>293.339350</ele>
        <time>2009-09-13T19:13:38Z</time>
      </trkpt>
      <trkpt lat="50.725788" lon="6.322255">
        <ele>291.897460</ele>
        <time>2009-09-13T19:13:41Z</time>
      </trkpt>
      <trkpt lat="50.725712" lon="6.322135">
        <ele>293.820060</ele>
        <time>2009-09-13T19:13:45Z</time>
      </trkpt>
      <trkpt lat="50.725688" lon="6.322116">
        <ele>293.339350</ele>
        <time>2009-09-13T19:13:46Z</time>
      </trkpt>
      <trkpt lat="50.725662" lon="6.322077">
        <ele>292.378170</ele>
        <time>2009-09-13T19:13:48Z</time>
      </trkpt>
      <trkpt lat="50.725597" lon="6.322031">
        <ele>292.378170</ele>
        <time>2009-09-13T19:13:51Z</time>
      </trkpt>
      <trkpt lat="50.725538" lon="6.322015">
        <ele>291.416740</ele>
        <time>2009-09-13T19:13:53Z</time>
      </trkpt>
      <trkpt lat="50.725495" lon="6.322011">
        <ele>296.704100</ele>
        <time>2009-09-13T19:13:55Z</time>
      </trkpt>
      <trkpt lat="50.725406" lon="6.321968">
        <ele>296.704100</ele>
        <time>2009-09-13T19:13:58Z</time>
      </trkpt>
      <trkpt lat="50.725328" lon="6.321897">
        <ele>292.378170</ele>
        <time>2009-09-13T19:14:02Z</time>
      </trkpt>
      <trkpt lat="50.725290" lon="6.321886">
        <ele>292.858760</ele>
        <time>2009-09-13T19:14:04Z</time>
      </trkpt>
      <trkpt lat="50.725245" lon="6.321859">
        <ele>293.820060</ele>
        <time>2009-09-13T19:14:05Z</time>
      </trkpt>
      <trkpt lat="50.725176" lon="6.321809">
        <ele>291.416740</ele>
        <time>2009-09-13T19:14:09Z</time>
      </trkpt>
      <trkpt lat="50.725079" lon="6.321756">
        <ele>291.416740</ele>
        <time>2009-09-13T19:14:13Z</time>
      </trkpt>
      <trkpt lat="50.725065" lon="6.321749">
        <ele>291.897460</ele>
        <time>2009-09-13T19:14:13Z</time>
      </trkpt>
      <trkpt lat="50.725014" lon="6.321738">
        <ele>294.300780</ele>
        <time>2009-09-13T19:14:15Z</time>
      </trkpt>
      <trkpt lat="50.724918" lon="6.321689">
        <ele>295.742670</ele>
        <time>2009-09-13T19:14:19Z</time>
      </trkpt>
      <trkpt lat="50.724904" lon="6.321686">
        <ele>295.261960</ele>
        <time>2009-09-13T19:14:20Z</time>
      </trkpt>
      <trkpt lat="50.724842" lon="6.321655">
        <ele>295.261960</ele>
        <time>2009-09-13T19:14:22Z</time>
      </trkpt>
      <trkpt lat="50.724813" lon="6.321629">
        <ele>295.261960</ele>
        <time>2009-09-13T19:14:24Z</time>
      </trkpt>
      <trkpt lat="50.724742" lon="6.321538">
        <ele>293.820060</ele>
        <time>2009-09-13T19:14:27Z</time>
      </trkpt>
      <trkpt lat="50.724715" lon="6.321477">
        <ele>297.184690</ele>
        <time>2009-09-13T19:14:29Z</time>
      </trkpt>
      <trkpt lat="50.724671" lon="6.321412">
        <ele>296.223510</ele>
        <time>2009-09-13T19:14:32Z</time>
      </trkpt>
      <trkpt lat="50.724627" lon="6.321322">
        <ele>294.300780</ele>
        <time>2009-09-13T19:14:35Z</time>
      </trkpt>
      <trkpt lat="50.724604" lon="6.321236">
        <ele>292.378170</ele>
        <time>2009-09-13T19:14:37Z</time>
      </trkpt>
      <trkpt lat="50.724565" lon="6.321133">
        <ele>293.339350</ele>
        <time>2009-09-13T19:14:40Z</time>
      </trkpt>
      <trkpt lat="50.724482" lon="6.321011">
        <ele>296.223510</ele>
        <time>2009-09-13T19:14:45Z</time>
      </trkpt>
      <trkpt lat="50.724422" lon="6.320922">
        <ele>296.223510</ele>
        <time>2009-09-13T19:14:48Z</time>
      </trkpt>
      <trkpt lat="50.724367" lon="6.320863">
        <ele>293.820060</ele>
        <time>2009-09-13T19:14:51Z</time>
      </trkpt>
      <trkpt lat="50.724305" lon="6.320783">
        <ele>292.378170</ele>
        <time>2009-09-13T19:14:54Z</time>
      </trkpt>
      <trkpt lat="50.724240" lon="6.320739">
        <ele>292.378170</ele>
        <time>2009-09-13T19:14:57Z</time>
      </trkpt>
      <trkpt lat="50.724232" lon="6.320718">
        <ele>292.858760</ele>
        <time>2009-09-13T19:14:57Z</time>
      </trkpt>
      <trkpt lat="50.724170" lon="6.320598">
        <ele>294.300780</ele>
        <time>2009-09-13T19:15:01Z</time>
      </trkpt>
      <trkpt lat="50.724114" lon="6.320546">
        <ele>297.184690</ele>
        <time>2009-09-13T19:15:04Z</time>
      </trkpt>
      <trkpt lat="50.724059" lon="6.320508">
        <ele>301.510620</ele>
        <time>2009-09-13T19:15:06Z</time>
      </trkpt>
      <trkpt lat="50.723988" lon="6.320447">
        <ele>303.433220</ele>
        <time>2009-09-13T19:15:09Z</time>
      </trkpt>
      <trkpt lat="50.723968" lon="6.320427">
        <ele>304.394650</ele>
        <time>2009-09-13T19:15:10Z</time>
      </trkpt>
      <trkpt lat="50.723936" lon="6.320397">
        <ele>306.317260</ele>
        <time>2009-09-13T19:15:12Z</time>
      </trkpt>
      <trkpt lat="50.723904" lon="6.320373">
        <ele>307.759270</ele>
        <time>2009-09-13T19:15:13Z</time>
      </trkpt>
      <trkpt lat="50.723866" lon="6.320342">
        <ele>306.317260</ele>
        <time>2009-09-13T19:15:15Z</time>
      </trkpt>
      <trkpt lat="50.723792" lon="6.320324">
        <ele>309.201170</ele>
        <time>2009-09-13T19:15:18Z</time>
      </trkpt>
      <trkpt lat="50.723701" lon="6.320290">
        <ele>310.643060</ele>
        <time>2009-09-13T19:15:22Z</time>
      </trkpt>
      <trkpt lat="50.723617" lon="6.320297">
        <ele>310.643060</ele>
        <time>2009-09-13T19:15:25Z</time>
      </trkpt>
      <trkpt lat="50.723535" lon="6.320260">
        <ele>313.527220</ele>
        <time>2009-09-13T19:15:28Z</time>
      </trkpt>
      <trkpt lat="50.723493" lon="6.320272">
        <ele>314.488400</ele>
        <time>2009-09-13T19:15:30Z</time>
      </trkpt>
      <trkpt lat="50.723368" lon="6.320286">
        <ele>319.775630</ele>
        <time>2009-09-13T19:15:35Z</time>
      </trkpt>
      <trkpt lat="50.723309" lon="6.320275">
        <ele>318.333610</ele>
        <time>2009-09-13T19:15:38Z</time>
      </trkpt>
      <trkpt lat="50.723235" lon="6.320246">
        <ele>315.449820</ele>
        <time>2009-09-13T19:15:41Z</time>
      </trkpt>
      <trkpt lat="50.723222" lon="6.320252">
        <ele>314.007810</ele>
        <time>2009-09-13T19:15:41Z</time>
      </trkpt>
      <trkpt lat="50.723167" lon="6.320232">
        <ele>311.123770</ele>
        <time>2009-09-13T19:15:43Z</time>
      </trkpt>
      <trkpt lat="50.723082" lon="6.320174">
        <ele>308.720450</ele>
        <time>2009-09-13T19:15:47Z</time>
      </trkpt>
      <trkpt lat="50.722987" lon="6.320115">
        <ele>303.913940</ele>
        <time>2009-09-13T19:15:51Z</time>
      </trkpt>
      <trkpt lat="50.722924" lon="6.320044">
        <ele>303.433220</ele>
        <time>2009-09-13T19:15:54Z</time>
      </trkpt>
      <trkpt lat="50.722886" lon="6.320009">
        <ele>304.875240</ele>
        <time>2009-09-13T19:15:56Z</time>
      </trkpt>
      <trkpt lat="50.722802" lon="6.319933">
        <ele>307.759270</ele>
        <time>2009-09-13T19:16:00Z</time>
      </trkpt>
      <trkpt lat="50.722734" lon="6.319859">
        <ele>310.643060</ele>
        <time>2009-09-13T19:16:03Z</time>
      </trkpt>
      <trkpt lat="50.722718" lon="6.319841">
        <ele>310.643060</ele>
        <time>2009-09-13T19:16:04Z</time>
      </trkpt>
      <trkpt lat="50.722677" lon="6.319787">
        <ele>312.085200</ele>
        <time>2009-09-13T19:16:06Z</time>
      </trkpt>
      <trkpt lat="50.722623" lon="6.319698">
        <ele>309.201170</ele>
        <time>2009-09-13T19:16:09Z</time>
      </trkpt>
      <trkpt lat="50.722617" lon="6.319682">
        <ele>308.239860</ele>
        <time>2009-09-13T19:16:10Z</time>
      </trkpt>
      <trkpt lat="50.722594" lon="6.319661">
        <ele>309.681880</ele>
        <time>2009-09-13T19:16:11Z</time>
      </trkpt>
      <trkpt lat="50.722546" lon="6.319647">
        <ele>311.604490</ele>
        <time>2009-09-13T19:16:13Z</time>
      </trkpt>
      <trkpt lat="50.722505" lon="6.319651">
        <ele>312.565790</ele>
        <time>2009-09-13T19:16:14Z</time>
      </trkpt>
      <trkpt lat="50.722443" lon="6.319588">
        <ele>309.681880</ele>
        <time>2009-09-13T19:16:17Z</time>
      </trkpt>
      <trkpt lat="50.722371" lon="6.319513">
        <ele>308.239860</ele>
        <time>2009-09-13T19:16:21Z</time>
      </trkpt>
      <trkpt lat="50.722342" lon="6.319492">
        <ele>307.759270</ele>
        <time>2009-09-13T19:16:22Z</time>
      </trkpt>
      <trkpt lat="50.722291" lon="6.319378">
        <ele>304.875240</ele>
        <time>2009-09-13T19:16:26Z</time>
      </trkpt>
      <trkpt lat="50.722196" lon="6.319302">
        <ele>310.643060</ele>
        <time>2009-09-13T19:16:30Z</time>
      </trkpt>
      <trkpt lat="50.722121" lon="6.319235">
        <ele>311.123770</ele>
        <time>2009-09-13T19:16:33Z</time>
      </trkpt>
      <trkpt lat="50.722070" lon="6.319204">
        <ele>307.278560</ele>
        <time>2009-09-13T19:16:36Z</time>
      </trkpt>
      <trkpt lat="50.721996" lon="6.319158">
        <ele>308.239860</ele>
        <time>2009-09-13T19:16:39Z</time>
      </trkpt>
      <trkpt lat="50.721984" lon="6.319162">
        <ele>309.201170</ele>
        <time>2009-09-13T19:16:39Z</time>
      </trkpt>
      <trkpt lat="50.721924" lon="6.319127">
        <ele>310.162470</ele>
        <time>2009-09-13T19:16:42Z</time>
      </trkpt>
      <trkpt lat="50.721856" lon="6.319098">
        <ele>310.643060</ele>
        <time>2009-09-13T19:16:45Z</time>
      </trkpt>
      <trkpt lat="50.721851" lon="6.319101">
        <ele>311.604490</ele>
        <time>2009-09-13T19:16:45Z</time>
      </trkpt>
      <trkpt lat="50.721908" lon="6.319116">
        <ele>315.449820</ele>
        <time>2009-09-13T19:16:47Z</time>
      </trkpt>
      <trkpt lat="50.721902" lon="6.319084">
        <ele>315.449820</ele>
        <time>2009-09-13T19:16:48Z</time>
      </trkpt>
      <trkpt lat="50.721868" lon="6.319032">
        <ele>313.527220</ele>
        <time>2009-09-13T19:16:50Z</time>
      </trkpt>
      <trkpt lat="50.721759" lon="6.319011">
        <ele>321.698360</ele>
        <time>2009-09-13T19:16:54Z</time>
      </trkpt>
      <trkpt lat="50.721656" lon="6.319005">
        <ele>322.659660</ele>
        <time>2009-09-13T19:16:58Z</time>
      </trkpt>
      <trkpt lat="50.721612" lon="6.318964">
        <ele>318.814330</ele>
        <time>2009-09-13T19:17:00Z</time>
      </trkpt>
      <trkpt lat="50.721601" lon="6.318949">
        <ele>317.372430</ele>
        <time>2009-09-13T19:17:01Z</time>
      </trkpt>
      <trkpt lat="50.721569" lon="6.318924">
        <ele>315.449820</ele>
        <time>2009-09-13T19:17:02Z</time>
      </trkpt>
      <trkpt lat="50.721549" lon="6.318903">
        <ele>313.527220</ele>
        <time>2009-09-13T19:17:03Z</time>
      </trkpt>
      <trkpt lat="50.721460" lon="6.318856">
        <ele>309.201170</ele>
        <time>2009-09-13T19:17:07Z</time>
      </trkpt>
      <trkpt lat="50.721424" lon="6.318819">
        <ele>308.239860</ele>
        <time>2009-09-13T19:17:09Z</time>
      </trkpt>
      <trkpt lat="50.721376" lon="6.318750">
        <ele>306.317260</ele>
        <time>2009-09-13T19:17:11Z</time>
      </trkpt>
      <trkpt lat="50.721324" lon="6.318654">
        <ele>304.394650</ele>
        <time>2009-09-13T19:17:15Z</time>
      </trkpt>
      <trkpt lat="50.721270" lon="6.318598">
        <ele>302.952510</ele>
        <time>2009-09-13T19:17:17Z</time>
      </trkpt>
      <trkpt lat="50.721206" lon="6.318518">
        <ele>301.510620</ele>
        <time>2009-09-13T19:17:20Z</time>
      </trkpt>
      <trkpt lat="50.721169" lon="6.318497">
        <ele>301.029900</ele>
        <time>2009-09-13T19:17:22Z</time>
      </trkpt>
      <trkpt lat="50.721104" lon="6.318440">
        <ele>300.068720</ele>
        <time>2009-09-13T19:17:25Z</time>
      </trkpt>
      <trkpt lat="50.721011" lon="6.318371">
        <ele>300.549310</ele>
        <time>2009-09-13T19:17:29Z</time>
      </trkpt>
      <trkpt lat="50.720925" lon="6.318317">
        <ele>300.068720</ele>
        <time>2009-09-13T19:17:33Z</time>
      </trkpt>
      <trkpt lat="50.720855" lon="6.318245">
        <ele>301.991330</ele>
        <time>2009-09-13T19:17:36Z</time>
      </trkpt>
      <trkpt lat="50.720769" lon="6.318166">
        <ele>302.952510</ele>
        <time>2009-09-13T19:17:40Z</time>
      </trkpt>
      <trkpt lat="50.720676" lon="6.318072">
        <ele>304.875240</ele>
        <time>2009-09-13T19:17:45Z</time>
      </trkpt>
      <trkpt lat="50.720598" lon="6.317986">
        <ele>305.355950</ele>
        <time>2009-09-13T19:17:48Z</time>
      </trkpt>
      <trkpt lat="50.720551" lon="6.317919">
        <ele>304.394650</ele>
        <time>2009-09-13T19:17:51Z</time>
      </trkpt>
      <trkpt lat="50.720476" lon="6.317809">
        <ele>305.836660</ele>
        <time>2009-09-13T19:17:55Z</time>
      </trkpt>
      <trkpt lat="50.720439" lon="6.317758">
        <ele>303.913940</ele>
        <time>2009-09-13T19:17:57Z</time>
      </trkpt>
      <trkpt lat="50.720370" lon="6.317637">
        <ele>304.394650</ele>
        <time>2009-09-13T19:18:01Z</time>
      </trkpt>
      <trkpt lat="50.720311" lon="6.317552">
        <ele>306.317260</ele>
        <time>2009-09-13T19:18:04Z</time>
      </trkpt>
      <trkpt lat="50.720278" lon="6.317515">
        <ele>307.278560</ele>
        <time>2009-09-13T19:18:06Z</time>
      </trkpt>
      <trkpt lat="50.720226" lon="6.317418">
        <ele>308.720450</ele>
        <time>2009-09-13T19:18:09Z</time>
      </trkpt>
      <trkpt lat="50.720184" lon="6.317339">
        <ele>307.278560</ele>
        <time>2009-09-13T19:18:12Z</time>
      </trkpt>
      <trkpt lat="50.720124" lon="6.317252">
        <ele>308.720450</ele>
        <time>2009-09-13T19:18:15Z</time>
      </trkpt>
      <trkpt lat="50.720073" lon="6.317146">
        <ele>307.759270</ele>
        <time>2009-09-13T19:18:18Z</time>
      </trkpt>
      <trkpt lat="50.720017" lon="6.317059">
        <ele>309.201170</ele>
        <time>2009-09-13T19:18:22Z</time>
      </trkpt>
      <trkpt lat="50.719956" lon="6.316963">
        <ele>311.123770</ele>
        <time>2009-09-13T19:18:25Z</time>
      </trkpt>
      <trkpt lat="50.719902" lon="6.316869">
        <ele>311.123770</ele>
        <time>2009-09-13T19:18:28Z</time>
      </trkpt>
      <trkpt lat="50.719869" lon="6.316814">
        <ele>310.643060</ele>
        <time>2009-09-13T19:18:30Z</time>
      </trkpt>
      <trkpt lat="50.719808" lon="6.316706">
        <ele>312.565790</ele>
        <time>2009-09-13T19:18:34Z</time>
      </trkpt>
      <trkpt lat="50.719742" lon="6.316566">
        <ele>315.449820</ele>
        <time>2009-09-13T19:18:38Z</time>
      </trkpt>
      <trkpt lat="50.719691" lon="6.316490">
        <ele>314.488400</ele>
        <time>2009-09-13T19:18:41Z</time>
      </trkpt>
      <trkpt lat="50.719638" lon="6.316390">
        <ele>313.046500</ele>
        <time>2009-09-13T19:18:44Z</time>
      </trkpt>
      <trkpt lat="50.719554" lon="6.316294">
        <ele>314.007810</ele>
        <time>2009-09-13T19:18:49Z</time>
      </trkpt>
      <trkpt lat="50.719500" lon="6.316212">
        <ele>314.969110</ele>
        <time>2009-09-13T19:18:52Z</time>
      </trkpt>
      <trkpt lat="50.719443" lon="6.316152">
        <ele>318.814330</ele>
        <time>2009-09-13T19:18:54Z</time>
      </trkpt>
      <trkpt lat="50.719408" lon="6.316111">
        <ele>319.775630</ele>
        <time>2009-09-13T19:18:56Z</time>
      </trkpt>
      <trkpt lat="50.719391" lon="6.316015">
        <ele>321.698360</ele>
        <time>2009-09-13T19:18:59Z</time>
      </trkpt>
      <trkpt lat="50.719311" lon="6.315848">
        <ele>329.388910</ele>
        <time>2009-09-13T19:19:04Z</time>
      </trkpt>
      <trkpt lat="50.719231" lon="6.315782">
        <ele>333.234130</ele>
        <time>2009-09-13T19:19:07Z</time>
      </trkpt>
      <trkpt lat="50.719179" lon="6.315786">
        <ele>333.234130</ele>
        <time>2009-09-13T19:19:10Z</time>
      </trkpt>
      <trkpt lat="50.719153" lon="6.315782">
        <ele>331.792110</ele>
        <time>2009-09-13T19:19:11Z</time>
      </trkpt>
      <trkpt lat="50.719122" lon="6.315740">
        <ele>327.466180</ele>
        <time>2009-09-13T19:19:12Z</time>
      </trkpt>
      <trkpt lat="50.719089" lon="6.315715">
        <ele>324.101560</ele>
        <time>2009-09-13T19:19:14Z</time>
      </trkpt>
      <trkpt lat="50.719009" lon="6.315659">
        <ele>319.775630</ele>
        <time>2009-09-13T19:19:17Z</time>
      </trkpt>
      <trkpt lat="50.718940" lon="6.315595">
        <ele>314.969110</ele>
        <time>2009-09-13T19:19:20Z</time>
      </trkpt>
      <trkpt lat="50.718865" lon="6.315506">
        <ele>314.488400</ele>
        <time>2009-09-13T19:19:24Z</time>
      </trkpt>
      <trkpt lat="50.718746" lon="6.315463">
        <ele>316.891720</ele>
        <time>2009-09-13T19:19:29Z</time>
      </trkpt>
      <trkpt lat="50.718737" lon="6.315453">
        <ele>316.891720</ele>
        <time>2009-09-13T19:19:29Z</time>
      </trkpt>
      <trkpt lat="50.718690" lon="6.315454">
        <ele>318.814330</ele>
        <time>2009-09-13T19:19:31Z</time>
      </trkpt>
      <trkpt lat="50.718610" lon="6.315368">
        <ele>320.737060</ele>
        <time>2009-09-13T19:19:35Z</time>
      </trkpt>
      <trkpt lat="50.718593" lon="6.315355">
        <ele>321.217770</ele>
        <time>2009-09-13T19:19:36Z</time>
      </trkpt>
      <trkpt lat="50.718558" lon="6.315286">
        <ele>321.217770</ele>
        <time>2009-09-13T19:19:38Z</time>
      </trkpt>
      <trkpt lat="50.718509" lon="6.315279">
        <ele>323.620970</ele>
        <time>2009-09-13T19:19:40Z</time>
      </trkpt>
      <trkpt lat="50.718469" lon="6.315276">
        <ele>324.582270</ele>
        <time>2009-09-13T19:19:42Z</time>
      </trkpt>
      <trkpt lat="50.718381" lon="6.315246">
        <ele>327.466180</ele>
        <time>2009-09-13T19:19:45Z</time>
      </trkpt>
      <trkpt lat="50.718274" lon="6.315163">
        <ele>329.869500</ele>
        <time>2009-09-13T19:19:50Z</time>
      </trkpt>
      <trkpt lat="50.718262" lon="6.315162">
        <ele>330.350210</ele>
        <time>2009-09-13T19:19:51Z</time>
      </trkpt>
      <trkpt lat="50.718235" lon="6.315157">
        <ele>332.272820</ele>
        <time>2009-09-13T19:19:52Z</time>
      </trkpt>
      <trkpt lat="50.718127" lon="6.315137">
        <ele>337.079460</ele>
        <time>2009-09-13T19:19:56Z</time>
      </trkpt>
      <trkpt lat="50.718032" lon="6.315086">
        <ele>341.405270</ele>
        <time>2009-09-13T19:20:00Z</time>
      </trkpt>
      <trkpt lat="50.718031" lon="6.315059">
        <ele>339.002070</ele>
        <time>2009-09-13T19:20:01Z</time>
      </trkpt>
      <trkpt lat="50.717955" lon="6.314977">
        <ele>335.156730</ele>
        <time>2009-09-13T19:20:04Z</time>
      </trkpt>
      <trkpt lat="50.717916" lon="6.314948">
        <ele>330.350210</ele>
        <time>2009-09-13T19:20:06Z</time>
      </trkpt>
      <trkpt lat="50.717866" lon="6.314918">
        <ele>326.504880</ele>
        <time>2009-09-13T19:20:08Z</time>
      </trkpt>
      <trkpt lat="50.717796" lon="6.314852">
        <ele>321.217770</ele>
        <time>2009-09-13T19:20:12Z</time>
      </trkpt>
      <trkpt lat="50.717740" lon="6.314833">
        <ele>322.659660</ele>
        <time>2009-09-13T19:20:14Z</time>
      </trkpt>
      <trkpt lat="50.717733" lon="6.314824">
        <ele>322.178950</ele>
        <time>2009-09-13T19:20:14Z</time>
      </trkpt>
      <trkpt lat="50.717653" lon="6.314742">
        <ele>322.178950</ele>
        <time>2009-09-13T19:20:18Z</time>
      </trkpt>
      <trkpt lat="50.717556" lon="6.314646">
        <ele>325.543570</ele>
        <time>2009-09-13T19:20:23Z</time>
      </trkpt>
      <trkpt lat="50.717501" lon="6.314558">
        <ele>326.504880</ele>
        <time>2009-09-13T19:20:26Z</time>
      </trkpt>
      <trkpt lat="50.717408" lon="6.314488">
        <ele>326.985590</ele>
        <time>2009-09-13T19:20:30Z</time>
      </trkpt>
      <trkpt lat="50.717352" lon="6.314488">
        <ele>329.869500</ele>
        <time>2009-09-13T19:20:32Z</time>
      </trkpt>
      <trkpt lat="50.717295" lon="6.314440">
        <ele>328.427610</ele>
        <time>2009-09-13T19:20:35Z</time>
      </trkpt>
      <trkpt lat="50.717237" lon="6.314393">
        <ele>325.543570</ele>
        <time>2009-09-13T19:20:37Z</time>
      </trkpt>
      <trkpt lat="50.717222" lon="6.314362">
        <ele>324.582270</ele>
        <time>2009-09-13T19:20:38Z</time>
      </trkpt>
      <trkpt lat="50.717194" lon="6.314359">
        <ele>326.504880</ele>
        <time>2009-09-13T19:20:39Z</time>
      </trkpt>
      <trkpt lat="50.717104" lon="6.314314">
        <ele>330.830930</ele>
        <time>2009-09-13T19:20:43Z</time>
      </trkpt>
      <trkpt lat="50.717056" lon="6.314288">
        <ele>331.792110</ele>
        <time>2009-09-13T19:20:45Z</time>
      </trkpt>
      <trkpt lat="50.716974" lon="6.314237">
        <ele>333.234130</ele>
        <time>2009-09-13T19:20:49Z</time>
      </trkpt>
      <trkpt lat="50.716964" lon="6.314224">
        <ele>331.792110</ele>
        <time>2009-09-13T19:20:49Z</time>
      </trkpt>
      <trkpt lat="50.716915" lon="6.314150">
        <ele>331.311520</ele>
        <time>2009-09-13T19:20:52Z</time>
      </trkpt>
      <trkpt lat="50.716865" lon="6.314070">
        <ele>332.272820</ele>
        <time>2009-09-13T19:20:55Z</time>
      </trkpt>
      <trkpt lat="50.716804" lon="6.314052">
        <ele>332.272820</ele>
        <time>2009-09-13T19:20:57Z</time>
      </trkpt>
      <trkpt lat="50.716733" lon="6.313980">
        <ele>332.753540</ele>
        <time>2009-09-13T19:21:01Z</time>
      </trkpt>
      <trkpt lat="50.716652" lon="6.313884">
        <ele>326.985590</ele>
        <time>2009-09-13T19:21:05Z</time>
      </trkpt>
      <trkpt lat="50.716644" lon="6.313857">
        <ele>325.543570</ele>
        <time>2009-09-13T19:21:06Z</time>
      </trkpt>
      <trkpt lat="50.716597" lon="6.313787">
        <ele>322.178950</ele>
        <time>2009-09-13T19:21:08Z</time>
      </trkpt>
      <trkpt lat="50.716580" lon="6.313739">
        <ele>320.256340</ele>
        <time>2009-09-13T19:21:10Z</time>
      </trkpt>
      <trkpt lat="50.716547" lon="6.313657">
        <ele>316.891720</ele>
        <time>2009-09-13T19:21:12Z</time>
      </trkpt>
      <trkpt lat="50.716500" lon="6.313638">
        <ele>317.853020</ele>
        <time>2009-09-13T19:21:14Z</time>
      </trkpt>
      <trkpt lat="50.716381" lon="6.313616">
        <ele>321.217770</ele>
        <time>2009-09-13T19:21:19Z</time>
      </trkpt>
      <trkpt lat="50.716268" lon="6.313610">
        <ele>324.582270</ele>
        <time>2009-09-13T19:21:23Z</time>
      </trkpt>
      <trkpt lat="50.716240" lon="6.313595">
        <ele>325.543570</ele>
        <time>2009-09-13T19:21:24Z</time>
      </trkpt>
      <trkpt lat="50.716196" lon="6.313537">
        <ele>327.466180</ele>
        <time>2009-09-13T19:21:27Z</time>
      </trkpt>
      <trkpt lat="50.716168" lon="6.313519">
        <ele>328.908320</ele>
        <time>2009-09-13T19:21:28Z</time>
      </trkpt>
      <trkpt lat="50.716080" lon="6.313435">
        <ele>332.272820</ele>
        <time>2009-09-13T19:21:32Z</time>
      </trkpt>
      <trkpt lat="50.716051" lon="6.313411">
        <ele>334.195430</ele>
        <time>2009-09-13T19:21:33Z</time>
      </trkpt>
      <trkpt lat="50.715982" lon="6.313329">
        <ele>339.002070</ele>
        <time>2009-09-13T19:21:37Z</time>
      </trkpt>
      <trkpt lat="50.715895" lon="6.313210">
        <ele>341.405270</ele>
        <time>2009-09-13T19:21:41Z</time>
      </trkpt>
      <trkpt lat="50.715821" lon="6.313088">
        <ele>339.963370</ele>
        <time>2009-09-13T19:21:46Z</time>
      </trkpt>
      <trkpt lat="50.715738" lon="6.313019">
        <ele>341.405270</ele>
        <time>2009-09-13T19:21:49Z</time>
      </trkpt>
      <trkpt lat="50.715672" lon="6.313032">
        <ele>337.079460</ele>
        <time>2009-09-13T19:21:52Z</time>
      </trkpt>
      <trkpt lat="50.715586" lon="6.313011">
        <ele>334.676140</ele>
        <time>2009-09-13T19:21:56Z</time>
      </trkpt>
      <trkpt lat="50.715504" lon="6.312992">
        <ele>334.195430</ele>
        <time>2009-09-13T19:21:59Z</time>
      </trkpt>
      <trkpt lat="50.715415" lon="6.312953">
        <ele>336.598870</ele>
        <time>2009-09-13T19:22:03Z</time>
      </trkpt>
      <trkpt lat="50.715354" lon="6.312938">
        <ele>338.521480</ele>
        <time>2009-09-13T19:22:05Z</time>
      </trkpt>
      <trkpt lat="50.715312" lon="6.312955">
        <ele>340.924680</ele>
        <time>2009-09-13T19:22:07Z</time>
      </trkpt>
      <trkpt lat="50.715228" lon="6.312927">
        <ele>341.405270</ele>
        <time>2009-09-13T19:22:10Z</time>
      </trkpt>
      <trkpt lat="50.715071" lon="6.312891">
        <ele>339.482660</ele>
        <time>2009-09-13T19:22:17Z</time>
      </trkpt>
      <trkpt lat="50.714976" lon="6.312920">
        <ele>338.040770</ele>
        <time>2009-09-13T19:22:20Z</time>
      </trkpt>
      <trkpt lat="50.714953" lon="6.312956">
        <ele>335.637320</ele>
        <time>2009-09-13T19:22:22Z</time>
      </trkpt>
      <trkpt lat="50.714939" lon="6.313044">
        <ele>333.714720</ele>
        <time>2009-09-13T19:22:24Z</time>
      </trkpt>
      <trkpt lat="50.714948" lon="6.313113">
        <ele>332.753540</ele>
        <time>2009-09-13T19:22:26Z</time>
      </trkpt>
      <trkpt lat="50.714898" lon="6.313280">
        <ele>338.521480</ele>
        <time>2009-09-13T19:22:31Z</time>
      </trkpt>
      <trkpt lat="50.714919" lon="6.313352">
        <ele>340.924680</ele>
        <time>2009-09-13T19:22:33Z</time>
      </trkpt>
      <trkpt lat="50.714941" lon="6.313491">
        <ele>348.134640</ele>
        <time>2009-09-13T19:22:36Z</time>
      </trkpt>
      <trkpt lat="50.714980" lon="6.313536">
        <ele>347.653930</ele>
        <time>2009-09-13T19:22:38Z</time>
      </trkpt>
      <trkpt lat="50.715052" lon="6.313568">
        <ele>345.731320</ele>
        <time>2009-09-13T19:22:41Z</time>
      </trkpt>
      <trkpt lat="50.715058" lon="6.313575">
        <ele>345.731320</ele>
        <time>2009-09-13T19:22:41Z</time>
      </trkpt>
      <trkpt lat="50.715113" lon="6.313526">
        <ele>348.134640</ele>
        <time>2009-09-13T19:22:44Z</time>
      </trkpt>
      <trkpt lat="50.715176" lon="6.313564">
        <ele>346.692620</ele>
        <time>2009-09-13T19:22:47Z</time>
      </trkpt>
      <trkpt lat="50.715281" lon="6.313630">
        <ele>342.366690</ele>
        <time>2009-09-13T19:22:51Z</time>
      </trkpt>
      <trkpt lat="50.715295" lon="6.313646">
        <ele>341.405270</ele>
        <time>2009-09-13T19:22:52Z</time>
      </trkpt>
      <trkpt lat="50.715337" lon="6.313676">
        <ele>339.002070</ele>
        <time>2009-09-13T19:22:54Z</time>
      </trkpt>
      <trkpt lat="50.715400" lon="6.313712">
        <ele>339.482660</ele>
        <time>2009-09-13T19:22:56Z</time>
      </trkpt>
      <trkpt lat="50.715478" lon="6.313768">
        <ele>341.405270</ele>
        <time>2009-09-13T19:23:00Z</time>
      </trkpt>
      <trkpt lat="50.715533" lon="6.313809">
        <ele>340.444090</ele>
        <time>2009-09-13T19:23:02Z</time>
      </trkpt>
      <trkpt lat="50.715564" lon="6.313883">
        <ele>338.040770</ele>
        <time>2009-09-13T19:23:04Z</time>
      </trkpt>
      <trkpt lat="50.715652" lon="6.314020">
        <ele>337.560050</ele>
        <time>2009-09-13T19:23:09Z</time>
      </trkpt>
      <trkpt lat="50.715668" lon="6.314061">
        <ele>337.079460</ele>
        <time>2009-09-13T19:23:11Z</time>
      </trkpt>
      <trkpt lat="50.715733" lon="6.314186">
        <ele>336.118160</ele>
        <time>2009-09-13T19:23:15Z</time>
      </trkpt>
      <trkpt lat="50.715740" lon="6.314229">
        <ele>335.637320</ele>
        <time>2009-09-13T19:23:16Z</time>
      </trkpt>
      <trkpt lat="50.715758" lon="6.314332">
        <ele>338.521480</ele>
        <time>2009-09-13T19:23:19Z</time>
      </trkpt>
      <trkpt lat="50.715763" lon="6.314351">
        <ele>339.002070</ele>
        <time>2009-09-13T19:23:19Z</time>
      </trkpt>
      <trkpt lat="50.715780" lon="6.314388">
        <ele>339.002070</ele>
        <time>2009-09-13T19:23:20Z</time>
      </trkpt>
      <trkpt lat="50.715744" lon="6.314518">
        <ele>340.444090</ele>
        <time>2009-09-13T19:23:24Z</time>
      </trkpt>
      <trkpt lat="50.715739" lon="6.314533">
        <ele>340.444090</ele>
        <time>2009-09-13T19:23:24Z</time>
      </trkpt>
      <trkpt lat="50.715671" lon="6.314651">
        <ele>341.885980</ele>
        <time>2009-09-13T19:23:28Z</time>
      </trkpt>
      <trkpt lat="50.715671" lon="6.314705">
        <ele>342.847290</ele>
        <time>2009-09-13T19:23:30Z</time>
      </trkpt>
      <trkpt lat="50.715646" lon="6.314813">
        <ele>341.405270</ele>
        <time>2009-09-13T19:23:33Z</time>
      </trkpt>
      <trkpt lat="50.715626" lon="6.314873">
        <ele>340.444090</ele>
        <time>2009-09-13T19:23:34Z</time>
      </trkpt>
      <trkpt lat="50.715569" lon="6.315011">
        <ele>342.366690</ele>
        <time>2009-09-13T19:23:39Z</time>
      </trkpt>
      <trkpt lat="50.715537" lon="6.315123">
        <ele>345.250610</ele>
        <time>2009-09-13T19:23:42Z</time>
      </trkpt>
      <trkpt lat="50.715553" lon="6.315220">
        <ele>348.134640</ele>
        <time>2009-09-13T19:23:44Z</time>
      </trkpt>
      <trkpt lat="50.715539" lon="6.315380">
        <ele>348.134640</ele>
        <time>2009-09-13T19:23:48Z</time>
      </trkpt>
      <trkpt lat="50.715535" lon="6.315494">
        <ele>350.537840</ele>
        <time>2009-09-13T19:23:51Z</time>
      </trkpt>
      <trkpt lat="50.715588" lon="6.315580">
        <ele>352.460570</ele>
        <time>2009-09-13T19:23:54Z</time>
      </trkpt>
      <trkpt lat="50.715632" lon="6.315684">
        <ele>350.537840</ele>
        <time>2009-09-13T19:23:57Z</time>
      </trkpt>
      <trkpt lat="50.715662" lon="6.315746">
        <ele>347.653930</ele>
        <time>2009-09-13T19:23:59Z</time>
      </trkpt>
      <trkpt lat="50.715670" lon="6.315766">
        <ele>348.615230</ele>
        <time>2009-09-13T19:24:00Z</time>
      </trkpt>
      <trkpt lat="50.715723" lon="6.315812">
        <ele>345.250610</ele>
        <time>2009-09-13T19:24:02Z</time>
      </trkpt>
      <trkpt lat="50.715769" lon="6.315836">
        <ele>346.692620</ele>
        <time>2009-09-13T19:24:04Z</time>
      </trkpt>
      <trkpt lat="50.715836" lon="6.315881">
        <ele>348.615230</ele>
        <time>2009-09-13T19:24:07Z</time>
      </trkpt>
      <trkpt lat="50.715908" lon="6.315975">
        <ele>347.653930</ele>
        <time>2009-09-13T19:24:11Z</time>
      </trkpt>
      <trkpt lat="50.715975" lon="6.316037">
        <ele>350.057250</ele>
        <time>2009-09-13T19:24:14Z</time>
      </trkpt>
      <trkpt lat="50.716035" lon="6.316179">
        <ele>348.134640</ele>
        <time>2009-09-13T19:24:18Z</time>
      </trkpt>
      <trkpt lat="50.716072" lon="6.316303">
        <ele>345.731320</ele>
        <time>2009-09-13T19:24:22Z</time>
      </trkpt>
      <trkpt lat="50.716178" lon="6.316346">
        <ele>349.576530</ele>
        <time>2009-09-13T19:24:26Z</time>
      </trkpt>
      <trkpt lat="50.716208" lon="6.316376">
        <ele>350.057250</ele>
        <time>2009-09-13T19:24:28Z</time>
      </trkpt>
      <trkpt lat="50.716277" lon="6.316427">
        <ele>350.057250</ele>
        <time>2009-09-13T19:24:31Z</time>
      </trkpt>
      <trkpt lat="50.716300" lon="6.316450">
        <ele>350.057250</ele>
        <time>2009-09-13T19:24:32Z</time>
      </trkpt>
      <trkpt lat="50.716351" lon="6.316547">
        <ele>348.615230</ele>
        <time>2009-09-13T19:24:35Z</time>
      </trkpt>
      <trkpt lat="50.716389" lon="6.316657">
        <ele>345.731320</ele>
        <time>2009-09-13T19:24:38Z</time>
      </trkpt>
      <trkpt lat="50.716448" lon="6.316762">
        <ele>344.770010</ele>
        <time>2009-09-13T19:24:42Z</time>
      </trkpt>
      <trkpt lat="50.716467" lon="6.316815">
        <ele>346.692620</ele>
        <time>2009-09-13T19:24:43Z</time>
      </trkpt>
      <trkpt lat="50.716511" lon="6.316980">
        <ele>349.095820</ele>
        <time>2009-09-13T19:24:48Z</time>
      </trkpt>
      <trkpt lat="50.716521" lon="6.316999">
        <ele>349.095820</ele>
        <time>2009-09-13T19:24:48Z</time>
      </trkpt>
      <trkpt lat="50.716525" lon="6.317070">
        <ele>349.095820</ele>
        <time>2009-09-13T19:24:50Z</time>
      </trkpt>
      <trkpt lat="50.716557" lon="6.317149">
        <ele>351.018430</ele>
        <time>2009-09-13T19:24:53Z</time>
      </trkpt>
      <trkpt lat="50.716569" lon="6.317257">
        <ele>350.057250</ele>
        <time>2009-09-13T19:24:55Z</time>
      </trkpt>
      <trkpt lat="50.716581" lon="6.317309">
        <ele>351.018430</ele>
        <time>2009-09-13T19:24:57Z</time>
      </trkpt>
      <trkpt lat="50.716635" lon="6.317424">
        <ele>351.979850</ele>
        <time>2009-09-13T19:25:00Z</time>
      </trkpt>
      <trkpt lat="50.716662" lon="6.317564">
        <ele>355.344480</ele>
        <time>2009-09-13T19:25:04Z</time>
      </trkpt>
      <trkpt lat="50.716619" lon="6.317657">
        <ele>355.344480</ele>
        <time>2009-09-13T19:25:07Z</time>
      </trkpt>
      <trkpt lat="50.716616" lon="6.317672">
        <ele>354.863760</ele>
        <time>2009-09-13T19:25:07Z</time>
      </trkpt>
      <trkpt lat="50.716628" lon="6.317743">
        <ele>357.747800</ele>
        <time>2009-09-13T19:25:09Z</time>
      </trkpt>
      <trkpt lat="50.716619" lon="6.317874">
        <ele>357.267080</ele>
        <time>2009-09-13T19:25:13Z</time>
      </trkpt>
      <trkpt lat="50.716613" lon="6.317950">
        <ele>355.825190</ele>
        <time>2009-09-13T19:25:15Z</time>
      </trkpt>
      <trkpt lat="50.716642" lon="6.318087">
        <ele>352.460570</ele>
        <time>2009-09-13T19:25:18Z</time>
      </trkpt>
      <trkpt lat="50.716699" lon="6.318241">
        <ele>351.499140</ele>
        <time>2009-09-13T19:25:23Z</time>
      </trkpt>
      <trkpt lat="50.716708" lon="6.318280">
        <ele>351.499140</ele>
        <time>2009-09-13T19:25:24Z</time>
      </trkpt>
      <trkpt lat="50.716729" lon="6.318310">
        <ele>353.902580</ele>
        <time>2009-09-13T19:25:25Z</time>
      </trkpt>
      <trkpt lat="50.716757" lon="6.318358">
        <ele>355.825190</ele>
        <time>2009-09-13T19:25:27Z</time>
      </trkpt>
      <trkpt lat="50.716800" lon="6.318407">
        <ele>355.344480</ele>
        <time>2009-09-13T19:25:29Z</time>
      </trkpt>
      <trkpt lat="50.716814" lon="6.318479">
        <ele>353.421870</ele>
        <time>2009-09-13T19:25:31Z</time>
      </trkpt>
      <trkpt lat="50.716867" lon="6.318554">
        <ele>351.018430</ele>
        <time>2009-09-13T19:25:34Z</time>
      </trkpt>
      <trkpt lat="50.716902" lon="6.318596">
        <ele>350.057250</ele>
        <time>2009-09-13T19:25:35Z</time>
      </trkpt>
      <trkpt lat="50.716949" lon="6.318632">
        <ele>347.653930</ele>
        <time>2009-09-13T19:25:37Z</time>
      </trkpt>
      <trkpt lat="50.717049" lon="6.318754">
        <ele>345.731320</ele>
        <time>2009-09-13T19:25:42Z</time>
      </trkpt>
      <trkpt lat="50.717102" lon="6.318883">
        <ele>346.692620</ele>
        <time>2009-09-13T19:25:46Z</time>
      </trkpt>
      <trkpt lat="50.717110" lon="6.318899">
        <ele>346.212030</ele>
        <time>2009-09-13T19:25:47Z</time>
      </trkpt>
      <trkpt lat="50.717117" lon="6.318998">
        <ele>345.731320</ele>
        <time>2009-09-13T19:25:49Z</time>
      </trkpt>
      <trkpt lat="50.717186" lon="6.319165">
        <ele>349.095820</ele>
        <time>2009-09-13T19:25:54Z</time>
      </trkpt>
      <trkpt lat="50.717213" lon="6.319287">
        <ele>352.941160</ele>
        <time>2009-09-13T19:25:58Z</time>
      </trkpt>
      <trkpt lat="50.717220" lon="6.319310">
        <ele>353.421870</ele>
        <time>2009-09-13T19:25:58Z</time>
      </trkpt>
      <trkpt lat="50.717281" lon="6.319374">
        <ele>353.421870</ele>
        <time>2009-09-13T19:26:01Z</time>
      </trkpt>
      <trkpt lat="50.717305" lon="6.319425">
        <ele>351.979850</ele>
        <time>2009-09-13T19:26:03Z</time>
      </trkpt>
      <trkpt lat="50.717348" lon="6.319450">
        <ele>357.267080</ele>
        <time>2009-09-13T19:26:05Z</time>
      </trkpt>
      <trkpt lat="50.717385" lon="6.319475">
        <ele>360.151120</ele>
        <time>2009-09-13T19:26:06Z</time>
      </trkpt>
      <trkpt lat="50.717443" lon="6.319516">
        <ele>362.073730</ele>
        <time>2009-09-13T19:26:09Z</time>
      </trkpt>
      <trkpt lat="50.717495" lon="6.319575">
        <ele>363.035030</ele>
        <time>2009-09-13T19:26:11Z</time>
      </trkpt>
      <trkpt lat="50.717501" lon="6.319587">
        <ele>363.996330</ele>
        <time>2009-09-13T19:26:12Z</time>
      </trkpt>
      <trkpt lat="50.717594" lon="6.319620">
        <ele>364.476920</ele>
        <time>2009-09-13T19:26:16Z</time>
      </trkpt>
      <trkpt lat="50.717625" lon="6.319639">
        <ele>363.996330</ele>
        <time>2009-09-13T19:26:17Z</time>
      </trkpt>
      <trkpt lat="50.717648" lon="6.319652">
        <ele>363.035030</ele>
        <time>2009-09-13T19:26:18Z</time>
      </trkpt>
      <trkpt lat="50.717672" lon="6.319694">
        <ele>361.112420</ele>
        <time>2009-09-13T19:26:19Z</time>
      </trkpt>
      <trkpt lat="50.717754" lon="6.319803">
        <ele>357.747800</ele>
        <time>2009-09-13T19:26:24Z</time>
      </trkpt>
      <trkpt lat="50.717774" lon="6.319847">
        <ele>356.305780</ele>
        <time>2009-09-13T19:26:25Z</time>
      </trkpt>
      <trkpt lat="50.717808" lon="6.319923">
        <ele>352.941160</ele>
        <time>2009-09-13T19:26:27Z</time>
      </trkpt>
      <trkpt lat="50.717838" lon="6.319989">
        <ele>355.344480</ele>
        <time>2009-09-13T19:26:30Z</time>
      </trkpt>
      <trkpt lat="50.717878" lon="6.320057">
        <ele>356.305780</ele>
        <time>2009-09-13T19:26:32Z</time>
      </trkpt>
      <trkpt lat="50.717940" lon="6.320181">
        <ele>352.941160</ele>
        <time>2009-09-13T19:26:36Z</time>
      </trkpt>
      <trkpt lat="50.717952" lon="6.320194">
        <ele>352.460570</ele>
        <time>2009-09-13T19:26:36Z</time>
      </trkpt>
      <trkpt lat="50.718018" lon="6.320295">
        <ele>353.421870</ele>
        <time>2009-09-13T19:26:40Z</time>
      </trkpt>
      <trkpt lat="50.718096" lon="6.320377">
        <ele>356.786370</ele>
        <time>2009-09-13T19:26:44Z</time>
      </trkpt>
      <trkpt lat="50.718116" lon="6.320474">
        <ele>357.747800</ele>
        <time>2009-09-13T19:26:46Z</time>
      </trkpt>
      <trkpt lat="50.718190" lon="6.320561">
        <ele>358.228390</ele>
        <time>2009-09-13T19:26:50Z</time>
      </trkpt>
      <trkpt lat="50.718196" lon="6.320600">
        <ele>358.708980</ele>
        <time>2009-09-13T19:26:51Z</time>
      </trkpt>
      <trkpt lat="50.718239" lon="6.320733">
        <ele>359.189690</ele>
        <time>2009-09-13T19:26:55Z</time>
      </trkpt>
      <trkpt lat="50.718257" lon="6.320870">
        <ele>360.151120</ele>
        <time>2009-09-13T19:26:58Z</time>
      </trkpt>
      <trkpt lat="50.718308" lon="6.320953">
        <ele>358.228390</ele>
        <time>2009-09-13T19:27:01Z</time>
      </trkpt>
      <trkpt lat="50.718334" lon="6.321024">
        <ele>360.151120</ele>
        <time>2009-09-13T19:27:03Z</time>
      </trkpt>
      <trkpt lat="50.718360" lon="6.321115">
        <ele>359.189690</ele>
        <time>2009-09-13T19:27:06Z</time>
      </trkpt>
      <trkpt lat="50.718405" lon="6.321180">
        <ele>360.151120</ele>
        <time>2009-09-13T19:27:08Z</time>
      </trkpt>
      <trkpt lat="50.718447" lon="6.321288">
        <ele>361.112420</ele>
        <time>2009-09-13T19:27:12Z</time>
      </trkpt>
      <trkpt lat="50.718459" lon="6.321323">
        <ele>362.073730</ele>
        <time>2009-09-13T19:27:13Z</time>
      </trkpt>
      <trkpt lat="50.718479" lon="6.321414">
        <ele>363.515740</ele>
        <time>2009-09-13T19:27:15Z</time>
      </trkpt>
      <trkpt lat="50.718504" lon="6.321520">
        <ele>365.918940</ele>
        <time>2009-09-13T19:27:18Z</time>
      </trkpt>
      <trkpt lat="50.718510" lon="6.321544">
        <ele>366.399530</ele>
        <time>2009-09-13T19:27:19Z</time>
      </trkpt>
      <trkpt lat="50.718493" lon="6.321704">
        <ele>363.996330</ele>
        <time>2009-09-13T19:27:23Z</time>
      </trkpt>
      <trkpt lat="50.718461" lon="6.321807">
        <ele>363.515740</ele>
        <time>2009-09-13T19:27:26Z</time>
      </trkpt>
      <trkpt lat="50.718476" lon="6.321914">
        <ele>365.438350</ele>
        <time>2009-09-13T19:27:28Z</time>
      </trkpt>
      <trkpt lat="50.718451" lon="6.322004">
        <ele>370.244870</ele>
        <time>2009-09-13T19:27:31Z</time>
      </trkpt>
      <trkpt lat="50.718478" lon="6.322120">
        <ele>369.283690</ele>
        <time>2009-09-13T19:27:34Z</time>
      </trkpt>
      <trkpt lat="50.718488" lon="6.322204">
        <ele>370.244870</ele>
        <time>2009-09-13T19:27:36Z</time>
      </trkpt>
      <trkpt lat="50.718482" lon="6.322255">
        <ele>372.167480</ele>
        <time>2009-09-13T19:27:37Z</time>
      </trkpt>
      <trkpt lat="50.718486" lon="6.322358">
        <ele>373.609490</ele>
        <time>2009-09-13T19:27:40Z</time>
      </trkpt>
      <trkpt lat="50.718523" lon="6.322415">
        <ele>373.128900</ele>
        <time>2009-09-13T19:27:42Z</time>
      </trkpt>
      <trkpt lat="50.718538" lon="6.322463">
        <ele>372.648190</ele>
        <time>2009-09-13T19:27:44Z</time>
      </trkpt>
      <trkpt lat="50.718591" lon="6.322562">
        <ele>368.802970</ele>
        <time>2009-09-13T19:27:47Z</time>
      </trkpt>
      <trkpt lat="50.718598" lon="6.322585">
        <ele>368.802970</ele>
        <time>2009-09-13T19:27:47Z</time>
      </trkpt>
      <trkpt lat="50.718642" lon="6.322673">
        <ele>365.918940</ele>
        <time>2009-09-13T19:27:50Z</time>
      </trkpt>
      <trkpt lat="50.718652" lon="6.322726">
        <ele>364.476920</ele>
        <time>2009-09-13T19:27:52Z</time>
      </trkpt>
      <trkpt lat="50.718733" lon="6.322825">
        <ele>364.957640</ele>
        <time>2009-09-13T19:27:56Z</time>
      </trkpt>
      <trkpt lat="50.718778" lon="6.322892">
        <ele>364.957640</ele>
        <time>2009-09-13T19:27:58Z</time>
      </trkpt>
      <trkpt lat="50.718821" lon="6.322895">
        <ele>367.360960</ele>
        <time>2009-09-13T19:28:00Z</time>
      </trkpt>
      <trkpt lat="50.718876" lon="6.322902">
        <ele>369.283690</ele>
        <time>2009-09-13T19:28:02Z</time>
      </trkpt>
      <trkpt lat="50.718943" lon="6.322971">
        <ele>371.686880</ele>
        <time>2009-09-13T19:28:05Z</time>
      </trkpt>
      <trkpt lat="50.718985" lon="6.323037">
        <ele>370.244870</ele>
        <time>2009-09-13T19:28:08Z</time>
      </trkpt>
      <trkpt lat="50.718988" lon="6.323043">
        <ele>370.725580</ele>
        <time>2009-09-13T19:28:08Z</time>
      </trkpt>
      <trkpt lat="50.719060" lon="6.323059">
        <ele>372.648190</ele>
        <time>2009-09-13T19:28:11Z</time>
      </trkpt>
      <trkpt lat="50.719114" lon="6.323118">
        <ele>374.570800</ele>
        <time>2009-09-13T19:28:14Z</time>
      </trkpt>
      <trkpt lat="50.719175" lon="6.323213">
        <ele>371.686880</ele>
        <time>2009-09-13T19:28:17Z</time>
      </trkpt>
      <trkpt lat="50.719236" lon="6.323325">
        <ele>368.802970</ele>
        <time>2009-09-13T19:28:21Z</time>
      </trkpt>
      <trkpt lat="50.719256" lon="6.323356">
        <ele>367.360960</ele>
        <time>2009-09-13T19:28:22Z</time>
      </trkpt>
      <trkpt lat="50.719354" lon="6.323468">
        <ele>364.957640</ele>
        <time>2009-09-13T19:28:27Z</time>
      </trkpt>
      <trkpt lat="50.719356" lon="6.323487">
        <ele>365.438350</ele>
        <time>2009-09-13T19:28:27Z</time>
      </trkpt>
      <trkpt lat="50.719395" lon="6.323624">
        <ele>368.322260</ele>
        <time>2009-09-13T19:28:31Z</time>
      </trkpt>
      <trkpt lat="50.719459" lon="6.323681">
        <ele>366.880240</ele>
        <time>2009-09-13T19:28:34Z</time>
      </trkpt>
      <trkpt lat="50.719546" lon="6.323742">
        <ele>367.360960</ele>
        <time>2009-09-13T19:28:38Z</time>
      </trkpt>
      <trkpt lat="50.719558" lon="6.323763">
        <ele>368.322260</ele>
        <time>2009-09-13T19:28:38Z</time>
      </trkpt>
      <trkpt lat="50.719652" lon="6.323823">
        <ele>373.609490</ele>
        <time>2009-09-13T19:28:43Z</time>
      </trkpt>
      <trkpt lat="50.719720" lon="6.323905">
        <ele>374.570800</ele>
        <time>2009-09-13T19:28:46Z</time>
      </trkpt>
      <trkpt lat="50.719766" lon="6.323956">
        <ele>374.570800</ele>
        <time>2009-09-13T19:28:48Z</time>
      </trkpt>
      <trkpt lat="50.719826" lon="6.324047">
        <ele>374.090080</ele>
        <time>2009-09-13T19:28:52Z</time>
      </trkpt>
      <trkpt lat="50.719831" lon="6.324066">
        <ele>373.609490</ele>
        <time>2009-09-13T19:28:52Z</time>
      </trkpt>
      <trkpt lat="50.719872" lon="6.324110">
        <ele>374.090080</ele>
        <time>2009-09-13T19:28:54Z</time>
      </trkpt>
      <trkpt lat="50.719984" lon="6.324171">
        <ele>378.416130</ele>
        <time>2009-09-13T19:28:59Z</time>
      </trkpt>
      <trkpt lat="50.720030" lon="6.324258">
        <ele>377.454830</ele>
        <time>2009-09-13T19:29:02Z</time>
      </trkpt>
      <trkpt lat="50.720045" lon="6.324284">
        <ele>377.935420</ele>
        <time>2009-09-13T19:29:03Z</time>
      </trkpt>
      <trkpt lat="50.720063" lon="6.324351">
        <ele>379.377440</ele>
        <time>2009-09-13T19:29:04Z</time>
      </trkpt>
      <trkpt lat="50.720087" lon="6.324408">
        <ele>380.338740</ele>
        <time>2009-09-13T19:29:06Z</time>
      </trkpt>
      <trkpt lat="50.720124" lon="6.324482">
        <ele>379.377440</ele>
        <time>2009-09-13T19:29:09Z</time>
      </trkpt>
      <trkpt lat="50.720165" lon="6.324623">
        <ele>380.338740</ele>
        <time>2009-09-13T19:29:12Z</time>
      </trkpt>
      <trkpt lat="50.720223" lon="6.324709">
        <ele>375.532100</ele>
        <time>2009-09-13T19:29:16Z</time>
      </trkpt>
      <trkpt lat="50.720231" lon="6.324747">
        <ele>374.570800</ele>
        <time>2009-09-13T19:29:17Z</time>
      </trkpt>
      <trkpt lat="50.720275" lon="6.324779">
        <ele>372.648190</ele>
        <time>2009-09-13T19:29:19Z</time>
      </trkpt>
      <trkpt lat="50.720292" lon="6.324863">
        <ele>370.725580</ele>
        <time>2009-09-13T19:29:21Z</time>
      </trkpt>
      <trkpt lat="50.720290" lon="6.324997">
        <ele>370.725580</ele>
        <time>2009-09-13T19:29:24Z</time>
      </trkpt>
      <trkpt lat="50.720286" lon="6.325037">
        <ele>374.090080</ele>
        <time>2009-09-13T19:29:25Z</time>
      </trkpt>
      <trkpt lat="50.720304" lon="6.325148">
        <ele>373.609490</ele>
        <time>2009-09-13T19:29:28Z</time>
      </trkpt>
      <trkpt lat="50.720336" lon="6.325294">
        <ele>380.819450</ele>
        <time>2009-09-13T19:29:32Z</time>
      </trkpt>
      <trkpt lat="50.720353" lon="6.325431">
        <ele>377.454830</ele>
        <time>2009-09-13T19:29:36Z</time>
      </trkpt>
      <trkpt lat="50.720362" lon="6.325532">
        <ele>376.012810</ele>
        <time>2009-09-13T19:29:38Z</time>
      </trkpt>
      <trkpt lat="50.720360" lon="6.325684">
        <ele>376.974240</ele>
        <time>2009-09-13T19:29:42Z</time>
      </trkpt>
      <trkpt lat="50.720365" lon="6.325705">
        <ele>375.532100</ele>
        <time>2009-09-13T19:29:43Z</time>
      </trkpt>
      <trkpt lat="50.720380" lon="6.325803">
        <ele>374.090080</ele>
        <time>2009-09-13T19:29:45Z</time>
      </trkpt>
      <trkpt lat="50.720378" lon="6.325837">
        <ele>375.051510</ele>
        <time>2009-09-13T19:29:46Z</time>
      </trkpt>
      <trkpt lat="50.720414" lon="6.325951">
        <ele>375.532100</ele>
        <time>2009-09-13T19:29:49Z</time>
      </trkpt>
      <trkpt lat="50.720421" lon="6.325972">
        <ele>376.012810</ele>
        <time>2009-09-13T19:29:50Z</time>
      </trkpt>
      <trkpt lat="50.720433" lon="6.326099">
        <ele>376.974240</ele>
        <time>2009-09-13T19:29:53Z</time>
      </trkpt>
      <trkpt lat="50.720479" lon="6.326190">
        <ele>378.416130</ele>
        <time>2009-09-13T19:29:56Z</time>
      </trkpt>
      <trkpt lat="50.720498" lon="6.326278">
        <ele>377.454830</ele>
        <time>2009-09-13T19:29:58Z</time>
      </trkpt>
      <trkpt lat="50.720545" lon="6.326393">
        <ele>376.493530</ele>
        <time>2009-09-13T19:30:02Z</time>
      </trkpt>
      <trkpt lat="50.720554" lon="6.326500">
        <ele>376.012810</ele>
        <time>2009-09-13T19:30:05Z</time>
      </trkpt>
      <trkpt lat="50.720631" lon="6.326601">
        <ele>374.090080</ele>
        <time>2009-09-13T19:30:09Z</time>
      </trkpt>
      <trkpt lat="50.720674" lon="6.326638">
        <ele>374.090080</ele>
        <time>2009-09-13T19:30:11Z</time>
      </trkpt>
      <trkpt lat="50.720709" lon="6.326696">
        <ele>373.609490</ele>
        <time>2009-09-13T19:30:13Z</time>
      </trkpt>
      <trkpt lat="50.720728" lon="6.326730">
        <ele>373.128900</ele>
        <time>2009-09-13T19:30:14Z</time>
      </trkpt>
      <trkpt lat="50.720749" lon="6.326877">
        <ele>376.974240</ele>
        <time>2009-09-13T19:30:18Z</time>
      </trkpt>
      <trkpt lat="50.720795" lon="6.326984">
        <ele>378.896850</ele>
        <time>2009-09-13T19:30:21Z</time>
      </trkpt>
      <trkpt lat="50.720849" lon="6.327037">
        <ele>381.300040</ele>
        <time>2009-09-13T19:30:23Z</time>
      </trkpt>
      <trkpt lat="50.720916" lon="6.327183">
        <ele>388.029290</ele>
        <time>2009-09-13T19:30:28Z</time>
      </trkpt>
      <trkpt lat="50.720965" lon="6.327243">
        <ele>390.913200</ele>
        <time>2009-09-13T19:30:30Z</time>
      </trkpt>
      <trkpt lat="50.720965" lon="6.327351">
        <ele>388.990600</ele>
        <time>2009-09-13T19:30:33Z</time>
      </trkpt>
      <trkpt lat="50.721017" lon="6.327495">
        <ele>393.797240</ele>
        <time>2009-09-13T19:30:37Z</time>
      </trkpt>
      <trkpt lat="50.721050" lon="6.327588">
        <ele>393.797240</ele>
        <time>2009-09-13T19:30:40Z</time>
      </trkpt>
      <trkpt lat="50.721068" lon="6.327639">
        <ele>393.316520</ele>
        <time>2009-09-13T19:30:42Z</time>
      </trkpt>
      <trkpt lat="50.721050" lon="6.327723">
        <ele>388.990600</ele>
        <time>2009-09-13T19:30:44Z</time>
      </trkpt>
      <trkpt lat="50.721052" lon="6.327770">
        <ele>386.587400</ele>
        <time>2009-09-13T19:30:45Z</time>
      </trkpt>
      <trkpt lat="50.721047" lon="6.327848">
        <ele>384.664790</ele>
        <time>2009-09-13T19:30:47Z</time>
      </trkpt>
      <trkpt lat="50.721035" lon="6.327904">
        <ele>383.222650</ele>
        <time>2009-09-13T19:30:48Z</time>
      </trkpt>
      <trkpt lat="50.720989" lon="6.328065">
        <ele>385.145380</ele>
        <time>2009-09-13T19:30:53Z</time>
      </trkpt>
      <trkpt lat="50.720935" lon="6.328202">
        <ele>383.703240</ele>
        <time>2009-09-13T19:30:57Z</time>
      </trkpt>
      <trkpt lat="50.720883" lon="6.328243">
        <ele>383.703240</ele>
        <time>2009-09-13T19:30:59Z</time>
      </trkpt>
      <trkpt lat="50.720792" lon="6.328352">
        <ele>376.012810</ele>
        <time>2009-09-13T19:31:04Z</time>
      </trkpt>
      <trkpt lat="50.720682" lon="6.328406">
        <ele>377.454830</ele>
        <time>2009-09-13T19:31:09Z</time>
      </trkpt>
      <trkpt lat="50.720605" lon="6.328439">
        <ele>378.416130</ele>
        <time>2009-09-13T19:31:12Z</time>
      </trkpt>
      <trkpt lat="50.720491" lon="6.328474">
        <ele>379.858030</ele>
        <time>2009-09-13T19:31:16Z</time>
      </trkpt>
      <trkpt lat="50.720409" lon="6.328487">
        <ele>382.742060</ele>
        <time>2009-09-13T19:31:20Z</time>
      </trkpt>
      <trkpt lat="50.720385" lon="6.328512">
        <ele>382.742060</ele>
        <time>2009-09-13T19:31:21Z</time>
      </trkpt>
      <trkpt lat="50.720374" lon="6.328582">
        <ele>385.145380</ele>
        <time>2009-09-13T19:31:23Z</time>
      </trkpt>
      <trkpt lat="50.720391" lon="6.328610">
        <ele>385.145380</ele>
        <time>2009-09-13T19:31:24Z</time>
      </trkpt>
      <trkpt lat="50.720472" lon="6.328612">
        <ele>384.664790</ele>
        <time>2009-09-13T19:31:27Z</time>
      </trkpt>
      <trkpt lat="50.720490" lon="6.328562">
        <ele>389.951900</ele>
        <time>2009-09-13T19:31:28Z</time>
      </trkpt>
      <trkpt lat="50.720486" lon="6.328581">
        <ele>388.510000</ele>
        <time>2009-09-13T19:31:29Z</time>
      </trkpt>
      <trkpt lat="50.720442" lon="6.328589">
        <ele>385.625970</ele>
        <time>2009-09-13T19:31:31Z</time>
      </trkpt>
      <trkpt lat="50.720347" lon="6.328566">
        <ele>383.222650</ele>
        <time>2009-09-13T19:31:34Z</time>
      </trkpt>
      <trkpt lat="50.720336" lon="6.328561">
        <ele>382.742060</ele>
        <time>2009-09-13T19:31:35Z</time>
      </trkpt>
      <trkpt lat="50.720232" lon="6.328548">
        <ele>383.222650</ele>
        <time>2009-09-13T19:31:39Z</time>
      </trkpt>
      <trkpt lat="50.720177" lon="6.328533">
        <ele>383.703240</ele>
        <time>2009-09-13T19:31:41Z</time>
      </trkpt>
      <trkpt lat="50.720100" lon="6.328502">
        <ele>389.951900</ele>
        <time>2009-09-13T19:31:44Z</time>
      </trkpt>
      <trkpt lat="50.720099" lon="6.328492">
        <ele>391.874510</ele>
        <time>2009-09-13T19:31:45Z</time>
      </trkpt>
      <trkpt lat="50.720123" lon="6.328466">
        <ele>388.029290</ele>
        <time>2009-09-13T19:31:46Z</time>
      </trkpt>
      <trkpt lat="50.720121" lon="6.328465">
        <ele>387.548580</ele>
        <time>2009-09-13T19:31:46Z</time>
      </trkpt>
      <trkpt lat="50.720094" lon="6.328453">
        <ele>385.625970</ele>
        <time>2009-09-13T19:31:47Z</time>
      </trkpt>
      <trkpt lat="50.719948" lon="6.328410">
        <ele>380.819450</ele>
        <time>2009-09-13T19:31:53Z</time>
      </trkpt>
      <trkpt lat="50.719891" lon="6.328360">
        <ele>378.896850</ele>
        <time>2009-09-13T19:31:56Z</time>
      </trkpt>
      <trkpt lat="50.719806" lon="6.328251">
        <ele>382.742060</ele>
        <time>2009-09-13T19:32:00Z</time>
      </trkpt>
      <trkpt lat="50.719724" lon="6.328209">
        <ele>384.664790</ele>
        <time>2009-09-13T19:32:04Z</time>
      </trkpt>
      <trkpt lat="50.719645" lon="6.328142">
        <ele>385.145380</ele>
        <time>2009-09-13T19:32:07Z</time>
      </trkpt>
      <trkpt lat="50.719539" lon="6.328126">
        <ele>390.432610</ele>
        <time>2009-09-13T19:32:11Z</time>
      </trkpt>
      <trkpt lat="50.719448" lon="6.328079">
        <ele>391.393790</ele>
        <time>2009-09-13T19:32:15Z</time>
      </trkpt>
      <trkpt lat="50.719367" lon="6.328032">
        <ele>389.951900</ele>
        <time>2009-09-13T19:32:19Z</time>
      </trkpt>
      <trkpt lat="50.719259" lon="6.327980">
        <ele>388.990600</ele>
        <time>2009-09-13T19:32:23Z</time>
      </trkpt>
      <trkpt lat="50.719182" lon="6.327928">
        <ele>389.471190</ele>
        <time>2009-09-13T19:32:27Z</time>
      </trkpt>
      <trkpt lat="50.719120" lon="6.327881">
        <ele>388.990600</ele>
        <time>2009-09-13T19:32:29Z</time>
      </trkpt>
      <trkpt lat="50.719098" lon="6.327854">
        <ele>388.510000</ele>
        <time>2009-09-13T19:32:30Z</time>
      </trkpt>
      <trkpt lat="50.719078" lon="6.327837">
        <ele>388.510000</ele>
        <time>2009-09-13T19:32:31Z</time>
      </trkpt>
      <trkpt lat="50.719008" lon="6.327751">
        <ele>389.471190</ele>
        <time>2009-09-13T19:32:35Z</time>
      </trkpt>
      <trkpt lat="50.718947" lon="6.327663">
        <ele>390.432610</ele>
        <time>2009-09-13T19:32:38Z</time>
      </trkpt>
      <trkpt lat="50.718930" lon="6.327641">
        <ele>391.874510</ele>
        <time>2009-09-13T19:32:39Z</time>
      </trkpt>
      <trkpt lat="50.718891" lon="6.327589">
        <ele>393.316520</ele>
        <time>2009-09-13T19:32:41Z</time>
      </trkpt>
      <trkpt lat="50.718832" lon="6.327495">
        <ele>394.277950</ele>
        <time>2009-09-13T19:32:44Z</time>
      </trkpt>
      <trkpt lat="50.718747" lon="6.327418">
        <ele>393.797240</ele>
        <time>2009-09-13T19:32:48Z</time>
      </trkpt>
      <trkpt lat="50.718686" lon="6.327371">
        <ele>394.277950</ele>
        <time>2009-09-13T19:32:51Z</time>
      </trkpt>
      <trkpt lat="50.718636" lon="6.327280">
        <ele>394.758540</ele>
        <time>2009-09-13T19:32:54Z</time>
      </trkpt>
      <trkpt lat="50.718605" lon="6.327231">
        <ele>394.758540</ele>
        <time>2009-09-13T19:32:56Z</time>
      </trkpt>
      <trkpt lat="50.718569" lon="6.327184">
        <ele>394.758540</ele>
        <time>2009-09-13T19:32:58Z</time>
      </trkpt>
      <trkpt lat="50.718515" lon="6.327096">
        <ele>393.797240</ele>
        <time>2009-09-13T19:33:01Z</time>
      </trkpt>
      <trkpt lat="50.718471" lon="6.327054">
        <ele>393.797240</ele>
        <time>2009-09-13T19:33:03Z</time>
      </trkpt>
      <trkpt lat="50.718422" lon="6.326988">
        <ele>393.797240</ele>
        <time>2009-09-13T19:33:06Z</time>
      </trkpt>
      <trkpt lat="50.718366" lon="6.326918">
        <ele>394.758540</ele>
        <time>2009-09-13T19:33:08Z</time>
      </trkpt>
      <trkpt lat="50.718292" lon="6.326825">
        <ele>396.200560</ele>
        <time>2009-09-13T19:33:12Z</time>
      </trkpt>
      <trkpt lat="50.718213" lon="6.326705">
        <ele>398.603750</ele>
        <time>2009-09-13T19:33:17Z</time>
      </trkpt>
      <trkpt lat="50.718181" lon="6.326632">
        <ele>396.681150</ele>
        <time>2009-09-13T19:33:19Z</time>
      </trkpt>
      <trkpt lat="50.718080" lon="6.326546">
        <ele>399.084350</ele>
        <time>2009-09-13T19:33:23Z</time>
      </trkpt>
      <trkpt lat="50.718010" lon="6.326453">
        <ele>401.007080</ele>
        <time>2009-09-13T19:33:27Z</time>
      </trkpt>
      <trkpt lat="50.718009" lon="6.326432">
        <ele>402.449090</ele>
        <time>2009-09-13T19:33:28Z</time>
      </trkpt>
      <trkpt lat="50.717953" lon="6.326319">
        <ele>403.891110</ele>
        <time>2009-09-13T19:33:31Z</time>
      </trkpt>
      <trkpt lat="50.717915" lon="6.326242">
        <ele>404.852290</ele>
        <time>2009-09-13T19:33:34Z</time>
      </trkpt>
      <trkpt lat="50.717824" lon="6.326140">
        <ele>402.929680</ele>
        <time>2009-09-13T19:33:38Z</time>
      </trkpt>
      <trkpt lat="50.717760" lon="6.326049">
        <ele>401.487790</ele>
        <time>2009-09-13T19:33:42Z</time>
      </trkpt>
      <trkpt lat="50.717715" lon="6.326033">
        <ele>400.526480</ele>
        <time>2009-09-13T19:33:43Z</time>
      </trkpt>
      <trkpt lat="50.717666" lon="6.325964">
        <ele>400.526480</ele>
        <time>2009-09-13T19:33:46Z</time>
      </trkpt>
      <trkpt lat="50.717600" lon="6.325896">
        <ele>400.526480</ele>
        <time>2009-09-13T19:33:49Z</time>
      </trkpt>
      <trkpt lat="50.717517" lon="6.325774">
        <ele>401.007080</ele>
        <time>2009-09-13T19:33:54Z</time>
      </trkpt>
      <trkpt lat="50.717492" lon="6.325716">
        <ele>401.487790</ele>
        <time>2009-09-13T19:33:56Z</time>
      </trkpt>
      <trkpt lat="50.717419" lon="6.325602">
        <ele>401.487790</ele>
        <time>2009-09-13T19:34:00Z</time>
      </trkpt>
      <trkpt lat="50.717344" lon="6.325505">
        <ele>401.007080</ele>
        <time>2009-09-13T19:34:04Z</time>
      </trkpt>
      <trkpt lat="50.717341" lon="6.325494">
        <ele>401.007080</ele>
        <time>2009-09-13T19:34:04Z</time>
      </trkpt>
      <trkpt lat="50.717302" lon="6.325449">
        <ele>401.487790</ele>
        <time>2009-09-13T19:34:06Z</time>
      </trkpt>
      <trkpt lat="50.717263" lon="6.325412">
        <ele>399.084350</ele>
        <time>2009-09-13T19:34:08Z</time>
      </trkpt>
      <trkpt lat="50.717237" lon="6.325363">
        <ele>397.642450</ele>
        <time>2009-09-13T19:34:09Z</time>
      </trkpt>
      <trkpt lat="50.717163" lon="6.325259">
        <ele>397.161740</ele>
        <time>2009-09-13T19:34:13Z</time>
      </trkpt>
      <trkpt lat="50.717071" lon="6.325167">
        <ele>399.084350</ele>
        <time>2009-09-13T19:34:18Z</time>
      </trkpt>
      <trkpt lat="50.716965" lon="6.325039">
        <ele>402.449090</ele>
        <time>2009-09-13T19:34:23Z</time>
      </trkpt>
      <trkpt lat="50.716878" lon="6.325013">
        <ele>405.333000</ele>
        <time>2009-09-13T19:34:26Z</time>
      </trkpt>
      <trkpt lat="50.716854" lon="6.324983">
        <ele>406.774900</ele>
        <time>2009-09-13T19:34:28Z</time>
      </trkpt>
      <trkpt lat="50.716781" lon="6.324959">
        <ele>410.139640</ele>
        <time>2009-09-13T19:34:31Z</time>
      </trkpt>
      <trkpt lat="50.716677" lon="6.324911">
        <ele>409.659050</ele>
        <time>2009-09-13T19:34:35Z</time>
      </trkpt>
      <trkpt lat="50.716610" lon="6.324867">
        <ele>410.139640</ele>
        <time>2009-09-13T19:34:38Z</time>
      </trkpt>
      <trkpt lat="50.716483" lon="6.324839">
        <ele>413.504270</ele>
        <time>2009-09-13T19:34:43Z</time>
      </trkpt>
      <trkpt lat="50.716409" lon="6.324805">
        <ele>415.426870</ele>
        <time>2009-09-13T19:34:46Z</time>
      </trkpt>
      <trkpt lat="50.716372" lon="6.324769">
        <ele>410.620230</ele>
        <time>2009-09-13T19:34:48Z</time>
      </trkpt>
      <trkpt lat="50.716369" lon="6.324759">
        <ele>409.659050</ele>
        <time>2009-09-13T19:34:48Z</time>
      </trkpt>
      <trkpt lat="50.716348" lon="6.324722">
        <ele>408.217040</ele>
        <time>2009-09-13T19:34:49Z</time>
      </trkpt>
      <trkpt lat="50.716348" lon="6.324666">
        <ele>411.100950</ele>
        <time>2009-09-13T19:34:51Z</time>
      </trkpt>
      <trkpt lat="50.716345" lon="6.324663">
        <ele>412.062250</ele>
        <time>2009-09-13T19:34:51Z</time>
      </trkpt>
      <trkpt lat="50.716299" lon="6.324649">
        <ele>410.620230</ele>
        <time>2009-09-13T19:34:53Z</time>
      </trkpt>
      <trkpt lat="50.716195" lon="6.324630">
        <ele>413.023550</ele>
        <time>2009-09-13T19:34:57Z</time>
      </trkpt>
      <trkpt lat="50.716136" lon="6.324585">
        <ele>413.504270</ele>
        <time>2009-09-13T19:35:00Z</time>
      </trkpt>
      <trkpt lat="50.716126" lon="6.324588">
        <ele>413.504270</ele>
        <time>2009-09-13T19:35:00Z</time>
      </trkpt>
      <trkpt lat="50.716076" lon="6.324580">
        <ele>414.465450</ele>
        <time>2009-09-13T19:35:02Z</time>
      </trkpt>
      <trkpt lat="50.715996" lon="6.324548">
        <ele>415.426870</ele>
        <time>2009-09-13T19:35:05Z</time>
      </trkpt>
      <trkpt lat="50.715952" lon="6.324529">
        <ele>414.946160</ele>
        <time>2009-09-13T19:35:07Z</time>
      </trkpt>
      <trkpt lat="50.715902" lon="6.324485">
        <ele>413.984860</ele>
        <time>2009-09-13T19:35:09Z</time>
      </trkpt>
      <trkpt lat="50.715882" lon="6.324468">
        <ele>413.504270</ele>
        <time>2009-09-13T19:35:10Z</time>
      </trkpt>
      <trkpt lat="50.715835" lon="6.324446">
        <ele>413.504270</ele>
        <time>2009-09-13T19:35:12Z</time>
      </trkpt>
      <trkpt lat="50.715754" lon="6.324439">
        <ele>412.062250</ele>
        <time>2009-09-13T19:35:16Z</time>
      </trkpt>
      <trkpt lat="50.715717" lon="6.324422">
        <ele>412.062250</ele>
        <time>2009-09-13T19:35:17Z</time>
      </trkpt>
      <trkpt lat="50.715671" lon="6.324367">
        <ele>412.542840</ele>
        <time>2009-09-13T19:35:19Z</time>
      </trkpt>
      <trkpt lat="50.715591" lon="6.324312">
        <ele>412.542840</ele>
        <time>2009-09-13T19:35:23Z</time>
      </trkpt>
      <trkpt lat="50.715518" lon="6.324279">
        <ele>412.542840</ele>
        <time>2009-09-13T19:35:26Z</time>
      </trkpt>
      <trkpt lat="50.715470" lon="6.324271">
        <ele>412.062250</ele>
        <time>2009-09-13T19:35:28Z</time>
      </trkpt>
      <trkpt lat="50.715390" lon="6.324235">
        <ele>414.946160</ele>
        <time>2009-09-13T19:35:31Z</time>
      </trkpt>
      <trkpt lat="50.715297" lon="6.324201">
        <ele>413.984860</ele>
        <time>2009-09-13T19:35:35Z</time>
      </trkpt>
      <trkpt lat="50.715213" lon="6.324138">
        <ele>416.388180</ele>
        <time>2009-09-13T19:35:39Z</time>
      </trkpt>
      <trkpt lat="50.715202" lon="6.324133">
        <ele>416.868890</ele>
        <time>2009-09-13T19:35:39Z</time>
      </trkpt>
      <trkpt lat="50.715100" lon="6.324114">
        <ele>415.426870</ele>
        <time>2009-09-13T19:35:43Z</time>
      </trkpt>
      <trkpt lat="50.715015" lon="6.324044">
        <ele>416.868890</ele>
        <time>2009-09-13T19:35:47Z</time>
      </trkpt>
      <trkpt lat="50.714938" lon="6.324009">
        <ele>415.907470</ele>
        <time>2009-09-13T19:35:50Z</time>
      </trkpt>
      <trkpt lat="50.714912" lon="6.323996">
        <ele>415.426870</ele>
        <time>2009-09-13T19:35:51Z</time>
      </trkpt>
      <trkpt lat="50.714797" lon="6.323932">
        <ele>417.349600</ele>
        <time>2009-09-13T19:35:56Z</time>
      </trkpt>
      <trkpt lat="50.714700" lon="6.323898">
        <ele>415.907470</ele>
        <time>2009-09-13T19:36:00Z</time>
      </trkpt>
      <trkpt lat="50.714687" lon="6.323876">
        <ele>415.426870</ele>
        <time>2009-09-13T19:36:01Z</time>
      </trkpt>
      <trkpt lat="50.714625" lon="6.323824">
        <ele>413.504270</ele>
        <time>2009-09-13T19:36:04Z</time>
      </trkpt>
      <trkpt lat="50.714515" lon="6.323753">
        <ele>413.984860</ele>
        <time>2009-09-13T19:36:09Z</time>
      </trkpt>
      <trkpt lat="50.714445" lon="6.323719">
        <ele>413.984860</ele>
        <time>2009-09-13T19:36:12Z</time>
      </trkpt>
      <trkpt lat="50.714336" lon="6.323650">
        <ele>418.791500</ele>
        <time>2009-09-13T19:36:16Z</time>
      </trkpt>
      <trkpt lat="50.714269" lon="6.323611">
        <ele>417.830200</ele>
        <time>2009-09-13T19:36:19Z</time>
      </trkpt>
      <trkpt lat="50.714210" lon="6.323591">
        <ele>416.868890</ele>
        <time>2009-09-13T19:36:22Z</time>
      </trkpt>
      <trkpt lat="50.714164" lon="6.323567">
        <ele>416.868890</ele>
        <time>2009-09-13T19:36:24Z</time>
      </trkpt>
      <trkpt lat="50.714083" lon="6.323504">
        <ele>416.868890</ele>
        <time>2009-09-13T19:36:27Z</time>
      </trkpt>
      <trkpt lat="50.713981" lon="6.323490">
        <ele>415.426870</ele>
        <time>2009-09-13T19:36:31Z</time>
      </trkpt>
      <trkpt lat="50.713949" lon="6.323477">
        <ele>414.946160</ele>
        <time>2009-09-13T19:36:33Z</time>
      </trkpt>
      <trkpt lat="50.713815" lon="6.323415">
        <ele>413.504270</ele>
        <time>2009-09-13T19:36:38Z</time>
      </trkpt>
      <trkpt lat="50.713760" lon="6.323399">
        <ele>413.023550</ele>
        <time>2009-09-13T19:36:40Z</time>
      </trkpt>
      <trkpt lat="50.713672" lon="6.323347">
        <ele>412.542840</ele>
        <time>2009-09-13T19:36:44Z</time>
      </trkpt>
      <trkpt lat="50.713594" lon="6.323310">
        <ele>410.620230</ele>
        <time>2009-09-13T19:36:47Z</time>
      </trkpt>
      <trkpt lat="50.713520" lon="6.323256">
        <ele>408.697630</ele>
        <time>2009-09-13T19:36:51Z</time>
      </trkpt>
      <trkpt lat="50.713419" lon="6.323220">
        <ele>406.774900</ele>
        <time>2009-09-13T19:36:55Z</time>
      </trkpt>
      <trkpt lat="50.713330" lon="6.323168">
        <ele>405.813720</ele>
        <time>2009-09-13T19:36:59Z</time>
      </trkpt>
      <trkpt lat="50.713317" lon="6.323157">
        <ele>406.294310</ele>
        <time>2009-09-13T19:36:59Z</time>
      </trkpt>
      <trkpt lat="50.713231" lon="6.323102">
        <ele>403.891110</ele>
        <time>2009-09-13T19:37:03Z</time>
      </trkpt>
      <trkpt lat="50.713147" lon="6.323024">
        <ele>409.659050</ele>
        <time>2009-09-13T19:37:07Z</time>
      </trkpt>
      <trkpt lat="50.713008" lon="6.323009">
        <ele>406.774900</ele>
        <time>2009-09-13T19:37:12Z</time>
      </trkpt>
      <trkpt lat="50.712905" lon="6.322949">
        <ele>407.736320</ele>
        <time>2009-09-13T19:37:17Z</time>
      </trkpt>
      <trkpt lat="50.712898" lon="6.322941">
        <ele>408.217040</ele>
        <time>2009-09-13T19:37:17Z</time>
      </trkpt>
      <trkpt lat="50.712786" lon="6.322902">
        <ele>406.774900</ele>
        <time>2009-09-13T19:37:22Z</time>
      </trkpt>
      <trkpt lat="50.712694" lon="6.322879">
        <ele>404.852290</ele>
        <time>2009-09-13T19:37:25Z</time>
      </trkpt>
      <trkpt lat="50.712563" lon="6.322831">
        <ele>407.736320</ele>
        <time>2009-09-13T19:37:31Z</time>
      </trkpt>
      <trkpt lat="50.712509" lon="6.322793">
        <ele>408.217040</ele>
        <time>2009-09-13T19:37:33Z</time>
      </trkpt>
      <trkpt lat="50.712437" lon="6.322707">
        <ele>410.620230</ele>
        <time>2009-09-13T19:37:37Z</time>
      </trkpt>
      <trkpt lat="50.712381" lon="6.322644">
        <ele>413.504270</ele>
        <time>2009-09-13T19:37:40Z</time>
      </trkpt>
      <trkpt lat="50.712317" lon="6.322607">
        <ele>417.349600</ele>
        <time>2009-09-13T19:37:42Z</time>
      </trkpt>
      <trkpt lat="50.712194" lon="6.322602">
        <ele>413.504270</ele>
        <time>2009-09-13T19:37:47Z</time>
      </trkpt>
      <trkpt lat="50.712163" lon="6.322586">
        <ele>412.542840</ele>
        <time>2009-09-13T19:37:48Z</time>
      </trkpt>
      <trkpt lat="50.712121" lon="6.322542">
        <ele>410.620230</ele>
        <time>2009-09-13T19:37:51Z</time>
      </trkpt>
      <trkpt lat="50.712060" lon="6.322499">
        <ele>411.100950</ele>
        <time>2009-09-13T19:37:53Z</time>
      </trkpt>
      <trkpt lat="50.711974" lon="6.322482">
        <ele>408.217040</ele>
        <time>2009-09-13T19:37:57Z</time>
      </trkpt>
      <trkpt lat="50.711945" lon="6.322476">
        <ele>408.217040</ele>
        <time>2009-09-13T19:37:58Z</time>
      </trkpt>
      <trkpt lat="50.711820" lon="6.322447">
        <ele>410.139640</ele>
        <time>2009-09-13T19:38:03Z</time>
      </trkpt>
      <trkpt lat="50.711756" lon="6.322373">
        <ele>409.659050</ele>
        <time>2009-09-13T19:38:06Z</time>
      </trkpt>
      <trkpt lat="50.711725" lon="6.322366">
        <ele>410.620230</ele>
        <time>2009-09-13T19:38:07Z</time>
      </trkpt>
      <trkpt lat="50.711629" lon="6.322297">
        <ele>418.310790</ele>
        <time>2009-09-13T19:38:12Z</time>
      </trkpt>
      <trkpt lat="50.711532" lon="6.322241">
        <ele>419.752800</ele>
        <time>2009-09-13T19:38:16Z</time>
      </trkpt>
      <trkpt lat="50.711514" lon="6.322250">
        <ele>419.752800</ele>
        <time>2009-09-13T19:38:16Z</time>
      </trkpt>
      <trkpt lat="50.711403" lon="6.322207">
        <ele>418.310790</ele>
        <time>2009-09-13T19:38:21Z</time>
      </trkpt>
      <trkpt lat="50.711358" lon="6.322192">
        <ele>415.426870</ele>
        <time>2009-09-13T19:38:23Z</time>
      </trkpt>
      <trkpt lat="50.711310" lon="6.322189">
        <ele>411.100950</ele>
        <time>2009-09-13T19:38:25Z</time>
      </trkpt>
      <trkpt lat="50.711226" lon="6.322152">
        <ele>406.774900</ele>
        <time>2009-09-13T19:38:28Z</time>
      </trkpt>
      <trkpt lat="50.711204" lon="6.322136">
        <ele>406.294310</ele>
        <time>2009-09-13T19:38:29Z</time>
      </trkpt>
      <trkpt lat="50.711093" lon="6.322029">
        <ele>410.620230</ele>
        <time>2009-09-13T19:38:34Z</time>
      </trkpt>
      <trkpt lat="50.711067" lon="6.322002">
        <ele>411.581660</ele>
        <time>2009-09-13T19:38:36Z</time>
      </trkpt>
      <trkpt lat="50.711021" lon="6.321939">
        <ele>413.984860</ele>
        <time>2009-09-13T19:38:38Z</time>
      </trkpt>
      <trkpt lat="50.710955" lon="6.321880">
        <ele>413.504270</ele>
        <time>2009-09-13T19:38:41Z</time>
      </trkpt>
      <trkpt lat="50.710901" lon="6.321834">
        <ele>412.542840</ele>
        <time>2009-09-13T19:38:44Z</time>
      </trkpt>
      <trkpt lat="50.710870" lon="6.321817">
        <ele>412.062250</ele>
        <time>2009-09-13T19:38:45Z</time>
      </trkpt>
      <trkpt lat="50.710804" lon="6.321749">
        <ele>415.426870</ele>
        <time>2009-09-13T19:38:48Z</time>
      </trkpt>
      <trkpt lat="50.710749" lon="6.321703">
        <ele>413.504270</ele>
        <time>2009-09-13T19:38:51Z</time>
      </trkpt>
      <trkpt lat="50.710708" lon="6.321656">
        <ele>413.504270</ele>
        <time>2009-09-13T19:38:53Z</time>
      </trkpt>
      <trkpt lat="50.710588" lon="6.321601">
        <ele>415.426870</ele>
        <time>2009-09-13T19:38:58Z</time>
      </trkpt>
      <trkpt lat="50.710581" lon="6.321582">
        <ele>415.907470</ele>
        <time>2009-09-13T19:38:58Z</time>
      </trkpt>
      <trkpt lat="50.710533" lon="6.321543">
        <ele>413.984860</ele>
        <time>2009-09-13T19:39:00Z</time>
      </trkpt>
      <trkpt lat="50.710463" lon="6.321441">
        <ele>413.023550</ele>
        <time>2009-09-13T19:39:04Z</time>
      </trkpt>
      <trkpt lat="50.710454" lon="6.321428">
        <ele>413.023550</ele>
        <time>2009-09-13T19:39:05Z</time>
      </trkpt>
      <trkpt lat="50.710358" lon="6.321350">
        <ele>415.426870</ele>
        <time>2009-09-13T19:39:09Z</time>
      </trkpt>
      <trkpt lat="50.710345" lon="6.321332">
        <ele>416.388180</ele>
        <time>2009-09-13T19:39:10Z</time>
      </trkpt>
      <trkpt lat="50.710294" lon="6.321284">
        <ele>417.349600</ele>
        <time>2009-09-13T19:39:12Z</time>
      </trkpt>
      <trkpt lat="50.710228" lon="6.321195">
        <ele>419.272210</ele>
        <time>2009-09-13T19:39:16Z</time>
      </trkpt>
      <trkpt lat="50.710184" lon="6.321143">
        <ele>420.714110</ele>
        <time>2009-09-13T19:39:18Z</time>
      </trkpt>
      <trkpt lat="50.710115" lon="6.321106">
        <ele>420.233390</ele>
        <time>2009-09-13T19:39:21Z</time>
      </trkpt>
      <trkpt lat="50.710012" lon="6.321035">
        <ele>422.156000</ele>
        <time>2009-09-13T19:39:25Z</time>
      </trkpt>
      <trkpt lat="50.709922" lon="6.320941">
        <ele>425.520750</ele>
        <time>2009-09-13T19:39:29Z</time>
      </trkpt>
      <trkpt lat="50.709823" lon="6.320882">
        <ele>422.636710</ele>
        <time>2009-09-13T19:39:34Z</time>
      </trkpt>
      <trkpt lat="50.709811" lon="6.320865">
        <ele>422.156000</ele>
        <time>2009-09-13T19:39:34Z</time>
      </trkpt>
      <trkpt lat="50.709737" lon="6.320797">
        <ele>420.714110</ele>
        <time>2009-09-13T19:39:38Z</time>
      </trkpt>
      <trkpt lat="50.709666" lon="6.320734">
        <ele>419.272210</ele>
        <time>2009-09-13T19:39:41Z</time>
      </trkpt>
      <trkpt lat="50.709582" lon="6.320654">
        <ele>420.714110</ele>
        <time>2009-09-13T19:39:45Z</time>
      </trkpt>
      <trkpt lat="50.709568" lon="6.320620">
        <ele>421.194820</ele>
        <time>2009-09-13T19:39:46Z</time>
      </trkpt>
      <trkpt lat="50.709492" lon="6.320584">
        <ele>420.233390</ele>
        <time>2009-09-13T19:39:49Z</time>
      </trkpt>
      <trkpt lat="50.709422" lon="6.320478">
        <ele>423.117430</ele>
        <time>2009-09-13T19:39:53Z</time>
      </trkpt>
      <trkpt lat="50.709400" lon="6.320396">
        <ele>423.117430</ele>
        <time>2009-09-13T19:39:55Z</time>
      </trkpt>
      <trkpt lat="50.709334" lon="6.320265">
        <ele>422.156000</ele>
        <time>2009-09-13T19:40:00Z</time>
      </trkpt>
      <trkpt lat="50.709270" lon="6.320197">
        <ele>420.233390</ele>
        <time>2009-09-13T19:40:03Z</time>
      </trkpt>
      <trkpt lat="50.709260" lon="6.320189">
        <ele>419.752800</ele>
        <time>2009-09-13T19:40:03Z</time>
      </trkpt>
      <trkpt lat="50.709185" lon="6.320077">
        <ele>416.868890</ele>
        <time>2009-09-13T19:40:07Z</time>
      </trkpt>
      <trkpt lat="50.709153" lon="6.319995">
        <ele>416.388180</ele>
        <time>2009-09-13T19:40:10Z</time>
      </trkpt>
      <trkpt lat="50.709129" lon="6.319906">
        <ele>414.946160</ele>
        <time>2009-09-13T19:40:12Z</time>
      </trkpt>
      <trkpt lat="50.709125" lon="6.319893">
        <ele>414.465450</ele>
        <time>2009-09-13T19:40:12Z</time>
      </trkpt>
      <trkpt lat="50.709047" lon="6.319759">
        <ele>417.349600</ele>
        <time>2009-09-13T19:40:17Z</time>
      </trkpt>
      <trkpt lat="50.709030" lon="6.319711">
        <ele>416.868890</ele>
        <time>2009-09-13T19:40:18Z</time>
      </trkpt>
      <trkpt lat="50.709022" lon="6.319642">
        <ele>415.907470</ele>
        <time>2009-09-13T19:40:20Z</time>
      </trkpt>
      <trkpt lat="50.709030" lon="6.319660">
        <ele>416.868890</ele>
        <time>2009-09-13T19:40:21Z</time>
      </trkpt>
      <trkpt lat="50.709009" lon="6.319645">
        <ele>414.946160</ele>
        <time>2009-09-13T19:40:22Z</time>
      </trkpt>
      <trkpt lat="50.709009" lon="6.319640">
        <ele>415.426870</ele>
        <time>2009-09-13T19:40:22Z</time>
      </trkpt>
      <trkpt lat="50.708988" lon="6.319609">
        <ele>419.272210</ele>
        <time>2009-09-13T19:40:23Z</time>
      </trkpt>
      <trkpt lat="50.708935" lon="6.319524">
        <ele>426.482050</ele>
        <time>2009-09-13T19:40:26Z</time>
      </trkpt>
      <trkpt lat="50.708910" lon="6.319442">
        <ele>429.365960</ele>
        <time>2009-09-13T19:40:28Z</time>
      </trkpt>
      <trkpt lat="50.708888" lon="6.319442">
        <ele>434.172600</ele>
        <time>2009-09-13T19:40:29Z</time>
      </trkpt>
      <trkpt lat="50.708831" lon="6.319439">
        <ele>436.095210</ele>
        <time>2009-09-13T19:40:31Z</time>
      </trkpt>
      <trkpt lat="50.708821" lon="6.319432">
        <ele>436.575920</ele>
        <time>2009-09-13T19:40:32Z</time>
      </trkpt>
      <trkpt lat="50.708757" lon="6.319406">
        <ele>432.730710</ele>
        <time>2009-09-13T19:40:35Z</time>
      </trkpt>
      <trkpt lat="50.708723" lon="6.319419">
        <ele>430.327270</ele>
        <time>2009-09-13T19:40:36Z</time>
      </trkpt>
      <trkpt lat="50.708629" lon="6.319385">
        <ele>426.962760</ele>
        <time>2009-09-13T19:40:40Z</time>
      </trkpt>
      <trkpt lat="50.708560" lon="6.319351">
        <ele>426.001340</ele>
        <time>2009-09-13T19:40:43Z</time>
      </trkpt>
      <trkpt lat="50.708467" lon="6.319329">
        <ele>424.078730</ele>
        <time>2009-09-13T19:40:46Z</time>
      </trkpt>
      <trkpt lat="50.708441" lon="6.319306">
        <ele>424.559440</ele>
        <time>2009-09-13T19:40:48Z</time>
      </trkpt>
      <trkpt lat="50.708389" lon="6.319261">
        <ele>424.078730</ele>
        <time>2009-09-13T19:40:50Z</time>
      </trkpt>
      <trkpt lat="50.708347" lon="6.319230">
        <ele>425.520750</ele>
        <time>2009-09-13T19:40:52Z</time>
      </trkpt>
      <trkpt lat="50.708217" lon="6.319136">
        <ele>428.404660</ele>
        <time>2009-09-13T19:40:58Z</time>
      </trkpt>
      <trkpt lat="50.708163" lon="6.319135">
        <ele>426.001340</ele>
        <time>2009-09-13T19:41:00Z</time>
      </trkpt>
      <trkpt lat="50.708082" lon="6.319069">
        <ele>430.807980</ele>
        <time>2009-09-13T19:41:03Z</time>
      </trkpt>
      <trkpt lat="50.708019" lon="6.319033">
        <ele>430.807980</ele>
        <time>2009-09-13T19:41:06Z</time>
      </trkpt>
      <trkpt lat="50.708013" lon="6.319026">
        <ele>430.807980</ele>
        <time>2009-09-13T19:41:06Z</time>
      </trkpt>
      <trkpt lat="50.707940" lon="6.319034">
        <ele>426.962760</ele>
        <time>2009-09-13T19:41:09Z</time>
      </trkpt>
      <trkpt lat="50.707837" lon="6.318989">
        <ele>426.962760</ele>
        <time>2009-09-13T19:41:14Z</time>
      </trkpt>
      <trkpt lat="50.707744" lon="6.318971">
        <ele>427.923950</ele>
        <time>2009-09-13T19:41:17Z</time>
      </trkpt>
      <trkpt lat="50.707646" lon="6.318932">
        <ele>428.885370</ele>
        <time>2009-09-13T19:41:21Z</time>
      </trkpt>
      <trkpt lat="50.707596" lon="6.318893">
        <ele>428.885370</ele>
        <time>2009-09-13T19:41:24Z</time>
      </trkpt>
      <trkpt lat="50.707485" lon="6.318822">
        <ele>433.691890</ele>
        <time>2009-09-13T19:41:28Z</time>
      </trkpt>
      <trkpt lat="50.707407" lon="6.318750">
        <ele>434.172600</ele>
        <time>2009-09-13T19:41:32Z</time>
      </trkpt>
      <trkpt lat="50.707342" lon="6.318717">
        <ele>432.730710</ele>
        <time>2009-09-13T19:41:35Z</time>
      </trkpt>
      <trkpt lat="50.707240" lon="6.318671">
        <ele>431.769160</ele>
        <time>2009-09-13T19:41:39Z</time>
      </trkpt>
      <trkpt lat="50.707139" lon="6.318597">
        <ele>430.807980</ele>
        <time>2009-09-13T19:41:43Z</time>
      </trkpt>
      <trkpt lat="50.707083" lon="6.318530">
        <ele>431.288570</ele>
        <time>2009-09-13T19:41:46Z</time>
      </trkpt>
      <trkpt lat="50.707017" lon="6.318508">
        <ele>431.288570</ele>
        <time>2009-09-13T19:41:49Z</time>
      </trkpt>
      <trkpt lat="50.706967" lon="6.318494">
        <ele>429.365960</ele>
        <time>2009-09-13T19:41:51Z</time>
      </trkpt>
      <trkpt lat="50.706845" lon="6.318418">
        <ele>430.807980</ele>
        <time>2009-09-13T19:41:56Z</time>
      </trkpt>
      <trkpt lat="50.706757" lon="6.318357">
        <ele>430.807980</ele>
        <time>2009-09-13T19:42:00Z</time>
      </trkpt>
      <trkpt lat="50.706631" lon="6.318303">
        <ele>430.807980</ele>
        <time>2009-09-13T19:42:05Z</time>
      </trkpt>
      <trkpt lat="50.706546" lon="6.318284">
        <ele>432.730710</ele>
        <time>2009-09-13T19:42:09Z</time>
      </trkpt>
      <trkpt lat="50.706458" lon="6.318202">
        <ele>436.095210</ele>
        <time>2009-09-13T19:42:13Z</time>
      </trkpt>
      <trkpt lat="50.706398" lon="6.318141">
        <ele>435.614500</ele>
        <time>2009-09-13T19:42:16Z</time>
      </trkpt>
      <trkpt lat="50.706279" lon="6.318061">
        <ele>435.614500</ele>
        <time>2009-09-13T19:42:21Z</time>
      </trkpt>
      <trkpt lat="50.706141" lon="6.318010">
        <ele>435.133910</ele>
        <time>2009-09-13T19:42:27Z</time>
      </trkpt>
      <trkpt lat="50.706052" lon="6.317952">
        <ele>435.614500</ele>
        <time>2009-09-13T19:42:30Z</time>
      </trkpt>
      <trkpt lat="50.705927" lon="6.317910">
        <ele>436.575920</ele>
        <time>2009-09-13T19:42:36Z</time>
      </trkpt>
      <trkpt lat="50.705829" lon="6.317813">
        <ele>441.382440</ele>
        <time>2009-09-13T19:42:40Z</time>
      </trkpt>
      <trkpt lat="50.705728" lon="6.317749">
        <ele>444.747070</ele>
        <time>2009-09-13T19:42:45Z</time>
      </trkpt>
      <trkpt lat="50.705696" lon="6.317743">
        <ele>440.421260</ele>
        <time>2009-09-13T19:42:46Z</time>
      </trkpt>
      <trkpt lat="50.705656" lon="6.317743">
        <ele>439.940420</ele>
        <time>2009-09-13T19:42:47Z</time>
      </trkpt>
      <trkpt lat="50.705557" lon="6.317727">
        <ele>437.056510</ele>
        <time>2009-09-13T19:42:51Z</time>
      </trkpt>
      <trkpt lat="50.705457" lon="6.317656">
        <ele>437.056510</ele>
        <time>2009-09-13T19:42:56Z</time>
      </trkpt>
      <trkpt lat="50.705406" lon="6.317586">
        <ele>437.056510</ele>
        <time>2009-09-13T19:42:58Z</time>
      </trkpt>
      <trkpt lat="50.705326" lon="6.317553">
        <ele>438.017820</ele>
        <time>2009-09-13T19:43:02Z</time>
      </trkpt>
      <trkpt lat="50.705254" lon="6.317519">
        <ele>438.979120</ele>
        <time>2009-09-13T19:43:05Z</time>
      </trkpt>
      <trkpt lat="50.705225" lon="6.317492">
        <ele>437.056510</ele>
        <time>2009-09-13T19:43:06Z</time>
      </trkpt>
      <trkpt lat="50.705139" lon="6.317459">
        <ele>440.901850</ele>
        <time>2009-09-13T19:43:10Z</time>
      </trkpt>
      <trkpt lat="50.705077" lon="6.317420">
        <ele>442.343870</ele>
        <time>2009-09-13T19:43:12Z</time>
      </trkpt>
      <trkpt lat="50.705051" lon="6.317381">
        <ele>443.305050</ele>
        <time>2009-09-13T19:43:14Z</time>
      </trkpt>
      <trkpt lat="50.704973" lon="6.317332">
        <ele>441.382440</ele>
        <time>2009-09-13T19:43:17Z</time>
      </trkpt>
      <trkpt lat="50.704922" lon="6.317304">
        <ele>437.537100</ele>
        <time>2009-09-13T19:43:19Z</time>
      </trkpt>
      <trkpt lat="50.704877" lon="6.317258">
        <ele>437.537100</ele>
        <time>2009-09-13T19:43:22Z</time>
      </trkpt>
      <trkpt lat="50.704842" lon="6.317242">
        <ele>437.537100</ele>
        <time>2009-09-13T19:43:23Z</time>
      </trkpt>
      <trkpt lat="50.704810" lon="6.317247">
        <ele>436.095210</ele>
        <time>2009-09-13T19:43:24Z</time>
      </trkpt>
      <trkpt lat="50.704722" lon="6.317171">
        <ele>438.017820</ele>
        <time>2009-09-13T19:43:28Z</time>
      </trkpt>
      <trkpt lat="50.704652" lon="6.317134">
        <ele>438.979120</ele>
        <time>2009-09-13T19:43:31Z</time>
      </trkpt>
      <trkpt lat="50.704553" lon="6.317073">
        <ele>438.498530</ele>
        <time>2009-09-13T19:43:35Z</time>
      </trkpt>
      <trkpt lat="50.704486" lon="6.317019">
        <ele>439.459710</ele>
        <time>2009-09-13T19:43:38Z</time>
      </trkpt>
      <trkpt lat="50.704431" lon="6.316970">
        <ele>441.382440</ele>
        <time>2009-09-13T19:43:41Z</time>
      </trkpt>
      <trkpt lat="50.704429" lon="6.316967">
        <ele>440.901850</ele>
        <time>2009-09-13T19:43:41Z</time>
      </trkpt>
      <trkpt lat="50.704353" lon="6.316937">
        <ele>438.979120</ele>
        <time>2009-09-13T19:43:44Z</time>
      </trkpt>
      <trkpt lat="50.704345" lon="6.316924">
        <ele>438.979120</ele>
        <time>2009-09-13T19:43:45Z</time>
      </trkpt>
      <trkpt lat="50.704322" lon="6.316903">
        <ele>439.459710</ele>
        <time>2009-09-13T19:43:46Z</time>
      </trkpt>
      <trkpt lat="50.704258" lon="6.316847">
        <ele>441.382440</ele>
        <time>2009-09-13T19:43:49Z</time>
      </trkpt>
      <trkpt lat="50.704245" lon="6.316827">
        <ele>441.382440</ele>
        <time>2009-09-13T19:43:49Z</time>
      </trkpt>
      <trkpt lat="50.704231" lon="6.316808">
        <ele>440.421260</ele>
        <time>2009-09-13T19:43:50Z</time>
      </trkpt>
      <trkpt lat="50.704123" lon="6.316767">
        <ele>441.382440</ele>
        <time>2009-09-13T19:43:55Z</time>
      </trkpt>
      <trkpt lat="50.704062" lon="6.316699">
        <ele>448.111810</ele>
        <time>2009-09-13T19:43:58Z</time>
      </trkpt>
      <trkpt lat="50.704041" lon="6.316663">
        <ele>448.592400</ele>
        <time>2009-09-13T19:43:59Z</time>
      </trkpt>
      <trkpt lat="50.704018" lon="6.316662">
        <ele>447.150260</ele>
        <time>2009-09-13T19:44:00Z</time>
      </trkpt>
      <trkpt lat="50.703955" lon="6.316620">
        <ele>447.150260</ele>
        <time>2009-09-13T19:44:03Z</time>
      </trkpt>
      <trkpt lat="50.703944" lon="6.316608">
        <ele>447.150260</ele>
        <time>2009-09-13T19:44:03Z</time>
      </trkpt>
      <trkpt lat="50.703876" lon="6.316579">
        <ele>444.747070</ele>
        <time>2009-09-13T19:44:06Z</time>
      </trkpt>
      <trkpt lat="50.703756" lon="6.316503">
        <ele>449.553710</ele>
        <time>2009-09-13T19:44:11Z</time>
      </trkpt>
      <trkpt lat="50.703681" lon="6.316503">
        <ele>450.034420</ele>
        <time>2009-09-13T19:44:14Z</time>
      </trkpt>
      <trkpt lat="50.703580" lon="6.316444">
        <ele>451.476310</ele>
        <time>2009-09-13T19:44:18Z</time>
      </trkpt>
      <trkpt lat="50.703565" lon="6.316407">
        <ele>450.034420</ele>
        <time>2009-09-13T19:44:19Z</time>
      </trkpt>
      <trkpt lat="50.703462" lon="6.316336">
        <ele>455.321530</ele>
        <time>2009-09-13T19:44:24Z</time>
      </trkpt>
      <trkpt lat="50.703406" lon="6.316285">
        <ele>457.724970</ele>
        <time>2009-09-13T19:44:27Z</time>
      </trkpt>
      <trkpt lat="50.703329" lon="6.316253">
        <ele>454.360220</ele>
        <time>2009-09-13T19:44:30Z</time>
      </trkpt>
      <trkpt lat="50.703265" lon="6.316259">
        <ele>450.995600</ele>
        <time>2009-09-13T19:44:32Z</time>
      </trkpt>
      <trkpt lat="50.703226" lon="6.316310">
        <ele>450.034420</ele>
        <time>2009-09-13T19:44:34Z</time>
      </trkpt>
      <trkpt lat="50.703194" lon="6.316417">
        <ele>448.592400</ele>
        <time>2009-09-13T19:44:37Z</time>
      </trkpt>
      <trkpt lat="50.703184" lon="6.316570">
        <ele>452.437620</ele>
        <time>2009-09-13T19:44:41Z</time>
      </trkpt>
      <trkpt lat="50.703157" lon="6.316691">
        <ele>458.205560</ele>
        <time>2009-09-13T19:44:44Z</time>
      </trkpt>
      <trkpt lat="50.703150" lon="6.316855">
        <ele>462.050780</ele>
        <time>2009-09-13T19:44:49Z</time>
      </trkpt>
      <trkpt lat="50.703121" lon="6.316966">
        <ele>464.454100</ele>
        <time>2009-09-13T19:44:52Z</time>
      </trkpt>
      <trkpt lat="50.703095" lon="6.317082">
        <ele>465.415520</ele>
        <time>2009-09-13T19:44:55Z</time>
      </trkpt>
      <trkpt lat="50.703030" lon="6.317230">
        <ele>469.260740</ele>
        <time>2009-09-13T19:44:59Z</time>
      </trkpt>
      <trkpt lat="50.703025" lon="6.317258">
        <ele>470.221920</ele>
        <time>2009-09-13T19:45:00Z</time>
      </trkpt>
      <trkpt lat="50.703021" lon="6.317421">
        <ele>468.780020</ele>
        <time>2009-09-13T19:45:04Z</time>
      </trkpt>
      <trkpt lat="50.703003" lon="6.317564">
        <ele>475.028680</ele>
        <time>2009-09-13T19:45:08Z</time>
      </trkpt>
      <trkpt lat="50.702927" lon="6.317679">
        <ele>471.183340</ele>
        <time>2009-09-13T19:45:12Z</time>
      </trkpt>
      <trkpt lat="50.702837" lon="6.317812">
        <ele>463.012080</ele>
        <time>2009-09-13T19:45:17Z</time>
      </trkpt>
      <trkpt lat="50.702776" lon="6.317936">
        <ele>456.282950</ele>
        <time>2009-09-13T19:45:21Z</time>
      </trkpt>
      <trkpt lat="50.702733" lon="6.318026">
        <ele>459.166870</ele>
        <time>2009-09-13T19:45:24Z</time>
      </trkpt>
      <trkpt lat="50.702659" lon="6.318120">
        <ele>463.973380</ele>
        <time>2009-09-13T19:45:28Z</time>
      </trkpt>
      <trkpt lat="50.702582" lon="6.318198">
        <ele>463.973380</ele>
        <time>2009-09-13T19:45:31Z</time>
      </trkpt>
      <trkpt lat="50.702508" lon="6.318225">
        <ele>460.128170</ele>
        <time>2009-09-13T19:45:34Z</time>
      </trkpt>
      <trkpt lat="50.702434" lon="6.318269">
        <ele>460.128170</ele>
        <time>2009-09-13T19:45:38Z</time>
      </trkpt>
      <trkpt lat="50.702398" lon="6.318254">
        <ele>457.724970</ele>
        <time>2009-09-13T19:45:39Z</time>
      </trkpt>
      <trkpt lat="50.702340" lon="6.318248">
        <ele>454.840820</ele>
        <time>2009-09-13T19:45:41Z</time>
      </trkpt>
      <trkpt lat="50.702282" lon="6.318246">
        <ele>453.398920</ele>
        <time>2009-09-13T19:45:44Z</time>
      </trkpt>
      <trkpt lat="50.702134" lon="6.318255">
        <ele>455.321530</ele>
        <time>2009-09-13T19:45:50Z</time>
      </trkpt>
      <trkpt lat="50.702028" lon="6.318275">
        <ele>453.879630</ele>
        <time>2009-09-13T19:45:54Z</time>
      </trkpt>
      <trkpt lat="50.701962" lon="6.318256">
        <ele>454.840820</ele>
        <time>2009-09-13T19:45:57Z</time>
      </trkpt>
      <trkpt lat="50.701869" lon="6.318271">
        <ele>454.840820</ele>
        <time>2009-09-13T19:46:00Z</time>
      </trkpt>
      <trkpt lat="50.701797" lon="6.318279">
        <ele>457.244260</ele>
        <time>2009-09-13T19:46:03Z</time>
      </trkpt>
      <trkpt lat="50.701786" lon="6.318281">
        <ele>458.205560</ele>
        <time>2009-09-13T19:46:04Z</time>
      </trkpt>
      <trkpt lat="50.701684" lon="6.318272">
        <ele>463.012080</ele>
        <time>2009-09-13T19:46:08Z</time>
      </trkpt>
      <trkpt lat="50.701597" lon="6.318246">
        <ele>465.896110</ele>
        <time>2009-09-13T19:46:11Z</time>
      </trkpt>
      <trkpt lat="50.701593" lon="6.318245">
        <ele>465.415520</ele>
        <time>2009-09-13T19:46:12Z</time>
      </trkpt>
      <trkpt lat="50.701490" lon="6.318210">
        <ele>464.934810</ele>
        <time>2009-09-13T19:46:16Z</time>
      </trkpt>
      <trkpt lat="50.701445" lon="6.318170">
        <ele>469.741330</ele>
        <time>2009-09-13T19:46:18Z</time>
      </trkpt>
      <trkpt lat="50.701334" lon="6.318159">
        <ele>472.625360</ele>
        <time>2009-09-13T19:46:22Z</time>
      </trkpt>
      <trkpt lat="50.701310" lon="6.318161">
        <ele>471.183340</ele>
        <time>2009-09-13T19:46:23Z</time>
      </trkpt>
      <trkpt lat="50.701199" lon="6.318193">
        <ele>465.896110</ele>
        <time>2009-09-13T19:46:28Z</time>
      </trkpt>
      <trkpt lat="50.701178" lon="6.318186">
        <ele>465.896110</ele>
        <time>2009-09-13T19:46:29Z</time>
      </trkpt>
      <trkpt lat="50.701091" lon="6.318197">
        <ele>458.205560</ele>
        <time>2009-09-13T19:46:32Z</time>
      </trkpt>
      <trkpt lat="50.701015" lon="6.318247">
        <ele>452.918210</ele>
        <time>2009-09-13T19:46:35Z</time>
      </trkpt>
      <trkpt lat="50.700902" lon="6.318246">
        <ele>455.321530</ele>
        <time>2009-09-13T19:46:40Z</time>
      </trkpt>
      <trkpt lat="50.700827" lon="6.318281">
        <ele>454.840820</ele>
        <time>2009-09-13T19:46:43Z</time>
      </trkpt>
      <trkpt lat="50.700711" lon="6.318354">
        <ele>453.879630</ele>
        <time>2009-09-13T19:46:48Z</time>
      </trkpt>
      <trkpt lat="50.700696" lon="6.318366">
        <ele>453.879630</ele>
        <time>2009-09-13T19:46:49Z</time>
      </trkpt>
      <trkpt lat="50.700664" lon="6.318391">
        <ele>452.918210</ele>
        <time>2009-09-13T19:46:50Z</time>
      </trkpt>
      <trkpt lat="50.700559" lon="6.318401">
        <ele>463.012080</ele>
        <time>2009-09-13T19:46:54Z</time>
      </trkpt>
      <trkpt lat="50.700506" lon="6.318430">
        <ele>473.106070</ele>
        <time>2009-09-13T19:46:57Z</time>
      </trkpt>
      <trkpt lat="50.700445" lon="6.318478">
        <ele>468.299310</ele>
        <time>2009-09-13T19:46:59Z</time>
      </trkpt>
      <trkpt lat="50.700348" lon="6.318541">
        <ele>469.741330</ele>
        <time>2009-09-13T19:47:04Z</time>
      </trkpt>
      <trkpt lat="50.700310" lon="6.318567">
        <ele>468.780020</ele>
        <time>2009-09-13T19:47:05Z</time>
      </trkpt>
      <trkpt lat="50.700222" lon="6.318643">
        <ele>466.376700</ele>
        <time>2009-09-13T19:47:09Z</time>
      </trkpt>
      <trkpt lat="50.700147" lon="6.318695">
        <ele>468.299310</ele>
        <time>2009-09-13T19:47:12Z</time>
      </trkpt>
      <trkpt lat="50.700110" lon="6.318754">
        <ele>474.067260</ele>
        <time>2009-09-13T19:47:15Z</time>
      </trkpt>
      <trkpt lat="50.700093" lon="6.318759">
        <ele>476.470580</ele>
        <time>2009-09-13T19:47:15Z</time>
      </trkpt>
      <trkpt lat="50.699959" lon="6.318834">
        <ele>473.106070</ele>
        <time>2009-09-13T19:47:21Z</time>
      </trkpt>
      <trkpt lat="50.699826" lon="6.318871">
        <ele>471.663940</ele>
        <time>2009-09-13T19:47:26Z</time>
      </trkpt>
      <trkpt lat="50.699728" lon="6.318856">
        <ele>473.106070</ele>
        <time>2009-09-13T19:47:30Z</time>
      </trkpt>
      <trkpt lat="50.699610" lon="6.318871">
        <ele>465.896110</ele>
        <time>2009-09-13T19:47:35Z</time>
      </trkpt>
      <trkpt lat="50.699574" lon="6.318882">
        <ele>463.492790</ele>
        <time>2009-09-13T19:47:37Z</time>
      </trkpt>
      <trkpt lat="50.699489" lon="6.318889">
        <ele>466.857420</ele>
        <time>2009-09-13T19:47:40Z</time>
      </trkpt>
      <trkpt lat="50.699381" lon="6.318873">
        <ele>474.547970</ele>
        <time>2009-09-13T19:47:44Z</time>
      </trkpt>
      <trkpt lat="50.699348" lon="6.318894">
        <ele>473.106070</ele>
        <time>2009-09-13T19:47:46Z</time>
      </trkpt>
      <trkpt lat="50.699253" lon="6.318932">
        <ele>469.741330</ele>
        <time>2009-09-13T19:47:50Z</time>
      </trkpt>
      <trkpt lat="50.699173" lon="6.318939">
        <ele>469.260740</ele>
        <time>2009-09-13T19:47:53Z</time>
      </trkpt>
      <trkpt lat="50.699122" lon="6.318943">
        <ele>468.299310</ele>
        <time>2009-09-13T19:47:55Z</time>
      </trkpt>
      <trkpt lat="50.699049" lon="6.318977">
        <ele>464.934810</ele>
        <time>2009-09-13T19:47:58Z</time>
      </trkpt>
      <trkpt lat="50.698928" lon="6.319025">
        <ele>463.012080</ele>
        <time>2009-09-13T19:48:03Z</time>
      </trkpt>
      <trkpt lat="50.698843" lon="6.319070">
        <ele>462.050780</ele>
        <time>2009-09-13T19:48:07Z</time>
      </trkpt>
      <trkpt lat="50.698764" lon="6.319150">
        <ele>466.376700</ele>
        <time>2009-09-13T19:48:10Z</time>
      </trkpt>
      <trkpt lat="50.698759" lon="6.319153">
        <ele>468.299310</ele>
        <time>2009-09-13T19:48:10Z</time>
      </trkpt>
      <trkpt lat="50.698643" lon="6.319176">
        <ele>472.625360</ele>
        <time>2009-09-13T19:48:15Z</time>
      </trkpt>
      <trkpt lat="50.698606" lon="6.319198">
        <ele>473.106070</ele>
        <time>2009-09-13T19:48:17Z</time>
      </trkpt>
      <trkpt lat="50.698555" lon="6.319287">
        <ele>474.067260</ele>
        <time>2009-09-13T19:48:20Z</time>
      </trkpt>
      <trkpt lat="50.698467" lon="6.319400">
        <ele>467.338130</ele>
        <time>2009-09-13T19:48:24Z</time>
      </trkpt>
      <trkpt lat="50.698413" lon="6.319427">
        <ele>467.818720</ele>
        <time>2009-09-13T19:48:27Z</time>
      </trkpt>
      <trkpt lat="50.698398" lon="6.319453">
        <ele>467.818720</ele>
        <time>2009-09-13T19:48:27Z</time>
      </trkpt>
      <trkpt lat="50.698369" lon="6.319470">
        <ele>466.376700</ele>
        <time>2009-09-13T19:48:29Z</time>
      </trkpt>
      <trkpt lat="50.698274" lon="6.319549">
        <ele>461.089470</ele>
        <time>2009-09-13T19:48:33Z</time>
      </trkpt>
      <trkpt lat="50.698190" lon="6.319597">
        <ele>458.686150</ele>
        <time>2009-09-13T19:48:37Z</time>
      </trkpt>
      <trkpt lat="50.698111" lon="6.319662">
        <ele>458.686150</ele>
        <time>2009-09-13T19:48:40Z</time>
      </trkpt>
      <trkpt lat="50.698101" lon="6.319675">
        <ele>459.647580</ele>
        <time>2009-09-13T19:48:41Z</time>
      </trkpt>
      <trkpt lat="50.698040" lon="6.319734">
        <ele>458.686150</ele>
        <time>2009-09-13T19:48:44Z</time>
      </trkpt>
      <trkpt lat="50.697982" lon="6.319881">
        <ele>464.934810</ele>
        <time>2009-09-13T19:48:48Z</time>
      </trkpt>
      <trkpt lat="50.697986" lon="6.319936">
        <ele>465.415520</ele>
        <time>2009-09-13T19:48:49Z</time>
      </trkpt>
      <trkpt lat="50.697970" lon="6.320073">
        <ele>468.780020</ele>
        <time>2009-09-13T19:48:53Z</time>
      </trkpt>
      <trkpt lat="50.697959" lon="6.320203">
        <ele>471.183340</ele>
        <time>2009-09-13T19:48:56Z</time>
      </trkpt>
      <trkpt lat="50.697942" lon="6.320312">
        <ele>475.989860</ele>
        <time>2009-09-13T19:48:59Z</time>
      </trkpt>
      <trkpt lat="50.697918" lon="6.320442">
        <ele>481.277220</ele>
        <time>2009-09-13T19:49:02Z</time>
      </trkpt>
      <trkpt lat="50.697919" lon="6.320530">
        <ele>483.199820</ele>
        <time>2009-09-13T19:49:05Z</time>
      </trkpt>
      <trkpt lat="50.697897" lon="6.320667">
        <ele>486.564450</ele>
        <time>2009-09-13T19:49:08Z</time>
      </trkpt>
      <trkpt lat="50.697889" lon="6.320718">
        <ele>486.083740</ele>
        <time>2009-09-13T19:49:10Z</time>
      </trkpt>
      <trkpt lat="50.697806" lon="6.320873">
        <ele>483.680410</ele>
        <time>2009-09-13T19:49:15Z</time>
      </trkpt>
      <trkpt lat="50.697783" lon="6.321002">
        <ele>477.431880</ele>
        <time>2009-09-13T19:49:18Z</time>
      </trkpt>
      <trkpt lat="50.697757" lon="6.321121">
        <ele>478.393180</ele>
        <time>2009-09-13T19:49:21Z</time>
      </trkpt>
      <trkpt lat="50.697662" lon="6.321273">
        <ele>478.393180</ele>
        <time>2009-09-13T19:49:27Z</time>
      </trkpt>
      <trkpt lat="50.697615" lon="6.321382">
        <ele>474.547970</ele>
        <time>2009-09-13T19:49:30Z</time>
      </trkpt>
      <trkpt lat="50.697528" lon="6.321537">
        <ele>469.260740</ele>
        <time>2009-09-13T19:49:35Z</time>
      </trkpt>
      <trkpt lat="50.697466" lon="6.321672">
        <ele>468.299310</ele>
        <time>2009-09-13T19:49:40Z</time>
      </trkpt>
      <trkpt lat="50.697428" lon="6.321797">
        <ele>470.702630</ele>
        <time>2009-09-13T19:49:43Z</time>
      </trkpt>
      <trkpt lat="50.697404" lon="6.321941">
        <ele>467.338130</ele>
        <time>2009-09-13T19:49:47Z</time>
      </trkpt>
      <trkpt lat="50.697364" lon="6.322071">
        <ele>467.818720</ele>
        <time>2009-09-13T19:49:51Z</time>
      </trkpt>
      <trkpt lat="50.697320" lon="6.322177">
        <ele>469.260740</ele>
        <time>2009-09-13T19:49:54Z</time>
      </trkpt>
      <trkpt lat="50.697272" lon="6.322316">
        <ele>465.896110</ele>
        <time>2009-09-13T19:49:58Z</time>
      </trkpt>
      <trkpt lat="50.697234" lon="6.322380">
        <ele>465.415520</ele>
        <time>2009-09-13T19:50:00Z</time>
      </trkpt>
      <trkpt lat="50.697211" lon="6.322418">
        <ele>465.415520</ele>
        <time>2009-09-13T19:50:01Z</time>
      </trkpt>
      <trkpt lat="50.697176" lon="6.322559">
        <ele>464.934810</ele>
        <time>2009-09-13T19:50:05Z</time>
      </trkpt>
      <trkpt lat="50.697151" lon="6.322666">
        <ele>464.454100</ele>
        <time>2009-09-13T19:50:08Z</time>
      </trkpt>
      <trkpt lat="50.697146" lon="6.322772">
        <ele>465.415520</ele>
        <time>2009-09-13T19:50:11Z</time>
      </trkpt>
      <trkpt lat="50.697130" lon="6.322927">
        <ele>468.299310</ele>
        <time>2009-09-13T19:50:15Z</time>
      </trkpt>
      <trkpt lat="50.697094" lon="6.323056">
        <ele>462.050780</ele>
        <time>2009-09-13T19:50:18Z</time>
      </trkpt>
      <trkpt lat="50.697083" lon="6.323266">
        <ele>461.089470</ele>
        <time>2009-09-13T19:50:24Z</time>
      </trkpt>
      <trkpt lat="50.697088" lon="6.323410">
        <ele>464.934810</ele>
        <time>2009-09-13T19:50:27Z</time>
      </trkpt>
      <trkpt lat="50.697110" lon="6.323563">
        <ele>470.702630</ele>
        <time>2009-09-13T19:50:31Z</time>
      </trkpt>
      <trkpt lat="50.697124" lon="6.323633">
        <ele>475.028680</ele>
        <time>2009-09-13T19:50:33Z</time>
      </trkpt>
      <trkpt lat="50.697119" lon="6.323749">
        <ele>474.067260</ele>
        <time>2009-09-13T19:50:36Z</time>
      </trkpt>
      <trkpt lat="50.697114" lon="6.323767">
        <ele>474.067260</ele>
        <time>2009-09-13T19:50:37Z</time>
      </trkpt>
      <trkpt lat="50.697066" lon="6.323846">
        <ele>472.144650</ele>
        <time>2009-09-13T19:50:39Z</time>
      </trkpt>
      <trkpt lat="50.697031" lon="6.323958">
        <ele>467.338130</ele>
        <time>2009-09-13T19:50:43Z</time>
      </trkpt>
      <trkpt lat="50.697020" lon="6.324146">
        <ele>464.454100</ele>
        <time>2009-09-13T19:50:47Z</time>
      </trkpt>
      <trkpt lat="50.697029" lon="6.324307">
        <ele>464.454100</ele>
        <time>2009-09-13T19:50:51Z</time>
      </trkpt>
      <trkpt lat="50.696994" lon="6.324416">
        <ele>460.128170</ele>
        <time>2009-09-13T19:50:55Z</time>
      </trkpt>
      <trkpt lat="50.697001" lon="6.324464">
        <ele>461.089470</ele>
        <time>2009-09-13T19:50:56Z</time>
      </trkpt>
      <trkpt lat="50.696957" lon="6.324628">
        <ele>454.360220</ele>
        <time>2009-09-13T19:51:00Z</time>
      </trkpt>
      <trkpt lat="50.696979" lon="6.324789">
        <ele>458.205560</ele>
        <time>2009-09-13T19:51:04Z</time>
      </trkpt>
      <trkpt lat="50.696969" lon="6.324950">
        <ele>460.608760</ele>
        <time>2009-09-13T19:51:09Z</time>
      </trkpt>
      <trkpt lat="50.696974" lon="6.325126">
        <ele>463.492790</ele>
        <time>2009-09-13T19:51:13Z</time>
      </trkpt>
      <trkpt lat="50.696964" lon="6.325174">
        <ele>464.454100</ele>
        <time>2009-09-13T19:51:14Z</time>
      </trkpt>
      <trkpt lat="50.696935" lon="6.325317">
        <ele>466.376700</ele>
        <time>2009-09-13T19:51:18Z</time>
      </trkpt>
      <trkpt lat="50.696928" lon="6.325337">
        <ele>466.376700</ele>
        <time>2009-09-13T19:51:19Z</time>
      </trkpt>
      <trkpt lat="50.696914" lon="6.325408">
        <ele>467.338130</ele>
        <time>2009-09-13T19:51:21Z</time>
      </trkpt>
      <trkpt lat="50.696933" lon="6.325515">
        <ele>472.144650</ele>
        <time>2009-09-13T19:51:23Z</time>
      </trkpt>
      <trkpt lat="50.696931" lon="6.325601">
        <ele>470.702630</ele>
        <time>2009-09-13T19:51:26Z</time>
      </trkpt>
      <trkpt lat="50.696913" lon="6.325694">
        <ele>470.221920</ele>
        <time>2009-09-13T19:51:28Z</time>
      </trkpt>
      <trkpt lat="50.696909" lon="6.325847">
        <ele>471.663940</ele>
        <time>2009-09-13T19:51:32Z</time>
      </trkpt>
      <trkpt lat="50.696873" lon="6.325961">
        <ele>472.144650</ele>
        <time>2009-09-13T19:51:35Z</time>
      </trkpt>
      <trkpt lat="50.696867" lon="6.326032">
        <ele>472.625360</ele>
        <time>2009-09-13T19:51:37Z</time>
      </trkpt>
      <trkpt lat="50.696865" lon="6.326193">
        <ele>476.470580</ele>
        <time>2009-09-13T19:51:41Z</time>
      </trkpt>
      <trkpt lat="50.696850" lon="6.326301">
        <ele>475.509270</ele>
        <time>2009-09-13T19:51:44Z</time>
      </trkpt>
      <trkpt lat="50.696820" lon="6.326472">
        <ele>471.183340</ele>
        <time>2009-09-13T19:51:48Z</time>
      </trkpt>
      <trkpt lat="50.696782" lon="6.326596">
        <ele>467.338130</ele>
        <time>2009-09-13T19:51:52Z</time>
      </trkpt>
      <trkpt lat="50.696753" lon="6.326707">
        <ele>466.857420</ele>
        <time>2009-09-13T19:51:55Z</time>
      </trkpt>
      <trkpt lat="50.696665" lon="6.326885">
        <ele>464.934810</ele>
        <time>2009-09-13T19:52:01Z</time>
      </trkpt>
      <trkpt lat="50.696616" lon="6.326979">
        <ele>460.128170</ele>
        <time>2009-09-13T19:52:04Z</time>
      </trkpt>
      <trkpt lat="50.696589" lon="6.327033">
        <ele>460.128170</ele>
        <time>2009-09-13T19:52:05Z</time>
      </trkpt>
      <trkpt lat="50.696528" lon="6.327125">
        <ele>457.244260</ele>
        <time>2009-09-13T19:52:09Z</time>
      </trkpt>
      <trkpt lat="50.696455" lon="6.327208">
        <ele>451.476310</ele>
        <time>2009-09-13T19:52:12Z</time>
      </trkpt>
      <trkpt lat="50.696379" lon="6.327328">
        <ele>448.592400</ele>
        <time>2009-09-13T19:52:17Z</time>
      </trkpt>
      <trkpt lat="50.696360" lon="6.327365">
        <ele>447.630980</ele>
        <time>2009-09-13T19:52:18Z</time>
      </trkpt>
      <trkpt lat="50.696305" lon="6.327447">
        <ele>449.072990</ele>
        <time>2009-09-13T19:52:21Z</time>
      </trkpt>
      <trkpt lat="50.696255" lon="6.327525">
        <ele>446.189080</ele>
        <time>2009-09-13T19:52:24Z</time>
      </trkpt>
      <trkpt lat="50.696196" lon="6.327586">
        <ele>445.227660</ele>
        <time>2009-09-13T19:52:27Z</time>
      </trkpt>
      <trkpt lat="50.696127" lon="6.327658">
        <ele>444.747070</ele>
        <time>2009-09-13T19:52:30Z</time>
      </trkpt>
      <trkpt lat="50.696070" lon="6.327781">
        <ele>445.708370</ele>
        <time>2009-09-13T19:52:34Z</time>
      </trkpt>
      <trkpt lat="50.696010" lon="6.327919">
        <ele>448.592400</ele>
        <time>2009-09-13T19:52:38Z</time>
      </trkpt>
      <trkpt lat="50.695994" lon="6.327969">
        <ele>449.072990</ele>
        <time>2009-09-13T19:52:39Z</time>
      </trkpt>
      <trkpt lat="50.695958" lon="6.328118">
        <ele>451.957030</ele>
        <time>2009-09-13T19:52:43Z</time>
      </trkpt>
      <trkpt lat="50.695919" lon="6.328221">
        <ele>450.995600</ele>
        <time>2009-09-13T19:52:47Z</time>
      </trkpt>
      <trkpt lat="50.695880" lon="6.328251">
        <ele>449.553710</ele>
        <time>2009-09-13T19:52:48Z</time>
      </trkpt>
      <trkpt lat="50.695805" lon="6.328316">
        <ele>449.553710</ele>
        <time>2009-09-13T19:52:52Z</time>
      </trkpt>
      <trkpt lat="50.695756" lon="6.328406">
        <ele>445.227660</ele>
        <time>2009-09-13T19:52:55Z</time>
      </trkpt>
      <trkpt lat="50.695680" lon="6.328526">
        <ele>447.630980</ele>
        <time>2009-09-13T19:52:59Z</time>
      </trkpt>
      <trkpt lat="50.695573" lon="6.328660">
        <ele>440.901850</ele>
        <time>2009-09-13T19:53:04Z</time>
      </trkpt>
      <trkpt lat="50.695487" lon="6.328768">
        <ele>438.498530</ele>
        <time>2009-09-13T19:53:09Z</time>
      </trkpt>
      <trkpt lat="50.695461" lon="6.328819">
        <ele>435.614500</ele>
        <time>2009-09-13T19:53:10Z</time>
      </trkpt>
      <trkpt lat="50.695397" lon="6.328862">
        <ele>432.730710</ele>
        <time>2009-09-13T19:53:13Z</time>
      </trkpt>
      <trkpt lat="50.695270" lon="6.328946">
        <ele>425.520750</ele>
        <time>2009-09-13T19:53:19Z</time>
      </trkpt>
      <trkpt lat="50.695220" lon="6.328961">
        <ele>426.001340</ele>
        <time>2009-09-13T19:53:21Z</time>
      </trkpt>
      <trkpt lat="50.695097" lon="6.328935">
        <ele>426.962760</ele>
        <time>2009-09-13T19:53:26Z</time>
      </trkpt>
      <trkpt lat="50.695075" lon="6.328934">
        <ele>427.923950</ele>
        <time>2009-09-13T19:53:27Z</time>
      </trkpt>
      <trkpt lat="50.694994" lon="6.328894">
        <ele>426.482050</ele>
        <time>2009-09-13T19:53:30Z</time>
      </trkpt>
      <trkpt lat="50.694907" lon="6.328851">
        <ele>423.598020</ele>
        <time>2009-09-13T19:53:34Z</time>
      </trkpt>
      <trkpt lat="50.694872" lon="6.328851">
        <ele>423.117430</ele>
        <time>2009-09-13T19:53:35Z</time>
      </trkpt>
      <trkpt lat="50.694752" lon="6.328782">
        <ele>425.520750</ele>
        <time>2009-09-13T19:53:40Z</time>
      </trkpt>
      <trkpt lat="50.694712" lon="6.328766">
        <ele>427.923950</ele>
        <time>2009-09-13T19:53:42Z</time>
      </trkpt>
      <trkpt lat="50.694646" lon="6.328744">
        <ele>426.962760</ele>
        <time>2009-09-13T19:53:45Z</time>
      </trkpt>
      <trkpt lat="50.694594" lon="6.328707">
        <ele>431.288570</ele>
        <time>2009-09-13T19:53:47Z</time>
      </trkpt>
      <trkpt lat="50.694474" lon="6.328679">
        <ele>433.691890</ele>
        <time>2009-09-13T19:53:52Z</time>
      </trkpt>
      <trkpt lat="50.694437" lon="6.328689">
        <ele>435.133910</ele>
        <time>2009-09-13T19:53:53Z</time>
      </trkpt>
      <trkpt lat="50.694267" lon="6.328693">
        <ele>435.133910</ele>
        <time>2009-09-13T19:54:00Z</time>
      </trkpt>
      <trkpt lat="50.694224" lon="6.328725">
        <ele>433.211300</ele>
        <time>2009-09-13T19:54:02Z</time>
      </trkpt>
      <trkpt lat="50.694216" lon="6.328857">
        <ele>433.211300</ele>
        <time>2009-09-13T19:54:05Z</time>
      </trkpt>
      <trkpt lat="50.694232" lon="6.328915">
        <ele>430.807980</ele>
        <time>2009-09-13T19:54:07Z</time>
      </trkpt>
      <trkpt lat="50.694226" lon="6.329033">
        <ele>425.040160</ele>
        <time>2009-09-13T19:54:10Z</time>
      </trkpt>
      <trkpt lat="50.694224" lon="6.329137">
        <ele>427.923950</ele>
        <time>2009-09-13T19:54:13Z</time>
      </trkpt>
      <trkpt lat="50.694211" lon="6.329235">
        <ele>424.559440</ele>
        <time>2009-09-13T19:54:15Z</time>
      </trkpt>
      <trkpt lat="50.694190" lon="6.329376">
        <ele>412.542840</ele>
        <time>2009-09-13T19:54:19Z</time>
      </trkpt>
      <trkpt lat="50.694174" lon="6.329473">
        <ele>405.333000</ele>
        <time>2009-09-13T19:54:21Z</time>
      </trkpt>
      <trkpt lat="50.694175" lon="6.329596">
        <ele>400.045890</ele>
        <time>2009-09-13T19:54:24Z</time>
      </trkpt>
      <trkpt lat="50.694157" lon="6.329630">
        <ele>399.084350</ele>
        <time>2009-09-13T19:54:26Z</time>
      </trkpt>
      <trkpt lat="50.694227" lon="6.329781">
        <ele>394.758540</ele>
        <time>2009-09-13T19:54:30Z</time>
      </trkpt>
      <trkpt lat="50.694243" lon="6.329934">
        <ele>396.200560</ele>
        <time>2009-09-13T19:54:34Z</time>
      </trkpt>
      <trkpt lat="50.694253" lon="6.330002">
        <ele>395.719840</ele>
        <time>2009-09-13T19:54:36Z</time>
      </trkpt>
      <trkpt lat="50.694248" lon="6.330173">
        <ele>397.642450</ele>
        <time>2009-09-13T19:54:40Z</time>
      </trkpt>
      <trkpt lat="50.694323" lon="6.330374">
        <ele>413.023550</ele>
        <time>2009-09-13T19:54:46Z</time>
      </trkpt>
      <trkpt lat="50.694314" lon="6.330483">
        <ele>414.946160</ele>
        <time>2009-09-13T19:54:49Z</time>
      </trkpt>
      <trkpt lat="50.694268" lon="6.330562">
        <ele>412.542840</ele>
        <time>2009-09-13T19:54:52Z</time>
      </trkpt>
      <trkpt lat="50.694217" lon="6.330614">
        <ele>407.255610</ele>
        <time>2009-09-13T19:54:54Z</time>
      </trkpt>
      <trkpt lat="50.694176" lon="6.330756">
        <ele>402.929680</ele>
        <time>2009-09-13T19:54:58Z</time>
      </trkpt>
      <trkpt lat="50.694188" lon="6.330850">
        <ele>411.100950</ele>
        <time>2009-09-13T19:55:01Z</time>
      </trkpt>
      <trkpt lat="50.694200" lon="6.330981">
        <ele>420.714110</ele>
        <time>2009-09-13T19:55:04Z</time>
      </trkpt>
      <trkpt lat="50.694175" lon="6.331123">
        <ele>420.714110</ele>
        <time>2009-09-13T19:55:08Z</time>
      </trkpt>
      <trkpt lat="50.694169" lon="6.331205">
        <ele>424.078730</ele>
        <time>2009-09-13T19:55:10Z</time>
      </trkpt>
      <trkpt lat="50.694135" lon="6.331310">
        <ele>426.482050</ele>
        <time>2009-09-13T19:55:13Z</time>
      </trkpt>
      <trkpt lat="50.694163" lon="6.331317">
        <ele>417.349600</ele>
        <time>2009-09-13T19:55:14Z</time>
      </trkpt>
      <trkpt lat="50.694168" lon="6.331324">
        <ele>416.388180</ele>
        <time>2009-09-13T19:55:14Z</time>
      </trkpt>
      <trkpt lat="50.694127" lon="6.331399">
        <ele>417.830200</ele>
        <time>2009-09-13T19:55:17Z</time>
      </trkpt>
      <trkpt lat="50.694083" lon="6.331553">
        <ele>418.791500</ele>
        <time>2009-09-13T19:55:21Z</time>
      </trkpt>
      <trkpt lat="50.694015" lon="6.331699">
        <ele>417.830200</ele>
        <time>2009-09-13T19:55:26Z</time>
      </trkpt>
      <trkpt lat="50.693954" lon="6.331862">
        <ele>417.830200</ele>
        <time>2009-09-13T19:55:30Z</time>
      </trkpt>
      <trkpt lat="50.693923" lon="6.331979">
        <ele>417.349600</ele>
        <time>2009-09-13T19:55:34Z</time>
      </trkpt>
      <trkpt lat="50.693919" lon="6.332018">
        <ele>417.830200</ele>
        <time>2009-09-13T19:55:35Z</time>
      </trkpt>
      <trkpt lat="50.693930" lon="6.332068">
        <ele>420.233390</ele>
        <time>2009-09-13T19:55:36Z</time>
      </trkpt>
      <trkpt lat="50.693900" lon="6.332237">
        <ele>422.156000</ele>
        <time>2009-09-13T19:55:40Z</time>
      </trkpt>
      <trkpt lat="50.693905" lon="6.332374">
        <ele>429.846550</ele>
        <time>2009-09-13T19:55:44Z</time>
      </trkpt>
      <trkpt lat="50.693830" lon="6.332506">
        <ele>423.117430</ele>
        <time>2009-09-13T19:55:48Z</time>
      </trkpt>
      <trkpt lat="50.693827" lon="6.332619">
        <ele>426.482050</ele>
        <time>2009-09-13T19:55:51Z</time>
      </trkpt>
      <trkpt lat="50.693748" lon="6.332732">
        <ele>421.194820</ele>
        <time>2009-09-13T19:55:56Z</time>
      </trkpt>
      <trkpt lat="50.693714" lon="6.332848">
        <ele>420.714110</ele>
        <time>2009-09-13T19:55:59Z</time>
      </trkpt>
      <trkpt lat="50.693674" lon="6.333000">
        <ele>419.272210</ele>
        <time>2009-09-13T19:56:03Z</time>
      </trkpt>
      <trkpt lat="50.693650" lon="6.333085">
        <ele>419.752800</ele>
        <time>2009-09-13T19:56:05Z</time>
      </trkpt>
      <trkpt lat="50.693646" lon="6.333246">
        <ele>423.117430</ele>
        <time>2009-09-13T19:56:09Z</time>
      </trkpt>
      <trkpt lat="50.693546" lon="6.333382">
        <ele>413.504270</ele>
        <time>2009-09-13T19:56:15Z</time>
      </trkpt>
      <trkpt lat="50.693501" lon="6.333442">
        <ele>413.504270</ele>
        <time>2009-09-13T19:56:17Z</time>
      </trkpt>
      <trkpt lat="50.693469" lon="6.333614">
        <ele>416.868890</ele>
        <time>2009-09-13T19:56:22Z</time>
      </trkpt>
      <trkpt lat="50.693457" lon="6.333665">
        <ele>415.907470</ele>
        <time>2009-09-13T19:56:23Z</time>
      </trkpt>
      <trkpt lat="50.693426" lon="6.333807">
        <ele>422.156000</ele>
        <time>2009-09-13T19:56:27Z</time>
      </trkpt>
      <trkpt lat="50.693444" lon="6.333995">
        <ele>425.040160</ele>
        <time>2009-09-13T19:56:32Z</time>
      </trkpt>
      <trkpt lat="50.693444" lon="6.334137">
        <ele>426.482050</ele>
        <time>2009-09-13T19:56:35Z</time>
      </trkpt>
      <trkpt lat="50.693382" lon="6.334232">
        <ele>421.194820</ele>
        <time>2009-09-13T19:56:39Z</time>
      </trkpt>
      <trkpt lat="50.693355" lon="6.334382">
        <ele>421.194820</ele>
        <time>2009-09-13T19:56:43Z</time>
      </trkpt>
      <trkpt lat="50.693297" lon="6.334501">
        <ele>420.233390</ele>
        <time>2009-09-13T19:56:46Z</time>
      </trkpt>
      <trkpt lat="50.693299" lon="6.334565">
        <ele>422.636710</ele>
        <time>2009-09-13T19:56:48Z</time>
      </trkpt>
      <trkpt lat="50.693268" lon="6.334695">
        <ele>420.714110</ele>
        <time>2009-09-13T19:56:52Z</time>
      </trkpt>
      <trkpt lat="50.693253" lon="6.334711">
        <ele>419.752800</ele>
        <time>2009-09-13T19:56:52Z</time>
      </trkpt>
      <trkpt lat="50.693151" lon="6.334899">
        <ele>413.984860</ele>
        <time>2009-09-13T19:56:59Z</time>
      </trkpt>
      <trkpt lat="50.693144" lon="6.335022">
        <ele>412.062250</ele>
        <time>2009-09-13T19:57:02Z</time>
      </trkpt>
      <trkpt lat="50.693132" lon="6.335159">
        <ele>413.984860</ele>
        <time>2009-09-13T19:57:05Z</time>
      </trkpt>
      <trkpt lat="50.693124" lon="6.335256">
        <ele>413.023550</ele>
        <time>2009-09-13T19:57:08Z</time>
      </trkpt>
      <trkpt lat="50.693070" lon="6.335407">
        <ele>407.736320</ele>
        <time>2009-09-13T19:57:12Z</time>
      </trkpt>
      <trkpt lat="50.693027" lon="6.335536">
        <ele>406.774900</ele>
        <time>2009-09-13T19:57:16Z</time>
      </trkpt>
      <trkpt lat="50.692965" lon="6.335668">
        <ele>406.294310</ele>
        <time>2009-09-13T19:57:20Z</time>
      </trkpt>
      <trkpt lat="50.692934" lon="6.335781">
        <ele>405.333000</ele>
        <time>2009-09-13T19:57:23Z</time>
      </trkpt>
      <trkpt lat="50.692924" lon="6.335902">
        <ele>411.581660</ele>
        <time>2009-09-13T19:57:26Z</time>
      </trkpt>
      <trkpt lat="50.692846" lon="6.336024">
        <ele>413.023550</ele>
        <time>2009-09-13T19:57:31Z</time>
      </trkpt>
      <trkpt lat="50.692844" lon="6.336183">
        <ele>413.504270</ele>
        <time>2009-09-13T19:57:35Z</time>
      </trkpt>
      <trkpt lat="50.692820" lon="6.336275">
        <ele>412.542840</ele>
        <time>2009-09-13T19:57:37Z</time>
      </trkpt>
      <trkpt lat="50.692780" lon="6.336384">
        <ele>413.504270</ele>
        <time>2009-09-13T19:57:40Z</time>
      </trkpt>
      <trkpt lat="50.692744" lon="6.336407">
        <ele>412.062250</ele>
        <time>2009-09-13T19:57:42Z</time>
      </trkpt>
      <trkpt lat="50.692690" lon="6.336521">
        <ele>413.984860</ele>
        <time>2009-09-13T19:57:45Z</time>
      </trkpt>
      <trkpt lat="50.692606" lon="6.336619">
        <ele>412.542840</ele>
        <time>2009-09-13T19:57:50Z</time>
      </trkpt>
      <trkpt lat="50.692480" lon="6.336723">
        <ele>413.023550</ele>
        <time>2009-09-13T19:57:55Z</time>
      </trkpt>
      <trkpt lat="50.692400" lon="6.336773">
        <ele>409.659050</ele>
        <time>2009-09-13T19:57:59Z</time>
      </trkpt>
      <trkpt lat="50.692361" lon="6.336834">
        <ele>410.139640</ele>
        <time>2009-09-13T19:58:01Z</time>
      </trkpt>
      <trkpt lat="50.692234" lon="6.336864">
        <ele>402.929680</ele>
        <time>2009-09-13T19:58:06Z</time>
      </trkpt>
      <trkpt lat="50.692167" lon="6.336918">
        <ele>401.968500</ele>
        <time>2009-09-13T19:58:09Z</time>
      </trkpt>
      <trkpt lat="50.692146" lon="6.336926">
        <ele>400.045890</ele>
        <time>2009-09-13T19:58:10Z</time>
      </trkpt>
      <trkpt lat="50.692122" lon="6.336946">
        <ele>398.603750</ele>
        <time>2009-09-13T19:58:11Z</time>
      </trkpt>
      <trkpt lat="50.692041" lon="6.337033">
        <ele>399.565060</ele>
        <time>2009-09-13T19:58:15Z</time>
      </trkpt>
      <trkpt lat="50.692022" lon="6.337067">
        <ele>401.968500</ele>
        <time>2009-09-13T19:58:16Z</time>
      </trkpt>
      <trkpt lat="50.691929" lon="6.337137">
        <ele>401.487790</ele>
        <time>2009-09-13T19:58:20Z</time>
      </trkpt>
      <trkpt lat="50.691818" lon="6.337190">
        <ele>397.161740</ele>
        <time>2009-09-13T19:58:25Z</time>
      </trkpt>
      <trkpt lat="50.691801" lon="6.337205">
        <ele>397.642450</ele>
        <time>2009-09-13T19:58:26Z</time>
      </trkpt>
      <trkpt lat="50.691730" lon="6.337243">
        <ele>396.681150</ele>
        <time>2009-09-13T19:58:29Z</time>
      </trkpt>
      <trkpt lat="50.691673" lon="6.337282">
        <ele>398.123160</ele>
        <time>2009-09-13T19:58:31Z</time>
      </trkpt>
      <trkpt lat="50.691603" lon="6.337410">
        <ele>401.487790</ele>
        <time>2009-09-13T19:58:35Z</time>
      </trkpt>
      <trkpt lat="50.691538" lon="6.337489">
        <ele>402.929680</ele>
        <time>2009-09-13T19:58:39Z</time>
      </trkpt>
      <trkpt lat="50.691474" lon="6.337498">
        <ele>402.449090</ele>
        <time>2009-09-13T19:58:41Z</time>
      </trkpt>
      <trkpt lat="50.691390" lon="6.337556">
        <ele>401.487790</ele>
        <time>2009-09-13T19:58:45Z</time>
      </trkpt>
      <trkpt lat="50.691311" lon="6.337604">
        <ele>401.007080</ele>
        <time>2009-09-13T19:58:48Z</time>
      </trkpt>
      <trkpt lat="50.691264" lon="6.337648">
        <ele>406.294310</ele>
        <time>2009-09-13T19:58:51Z</time>
      </trkpt>
      <trkpt lat="50.691234" lon="6.337734">
        <ele>414.465450</ele>
        <time>2009-09-13T19:58:53Z</time>
      </trkpt>
      <trkpt lat="50.691229" lon="6.337755">
        <ele>417.830200</ele>
        <time>2009-09-13T19:58:54Z</time>
      </trkpt>
      <trkpt lat="50.691178" lon="6.337528">
        <ele>387.067990</ele>
        <time>2009-09-13T19:59:00Z</time>
      </trkpt>
      <trkpt lat="50.691231" lon="6.337551">
        <ele>391.393790</ele>
        <time>2009-09-13T19:59:02Z</time>
      </trkpt>
      <trkpt lat="50.691265" lon="6.337564">
        <ele>391.393790</ele>
        <time>2009-09-13T19:59:03Z</time>
      </trkpt>
      <trkpt lat="50.691398" lon="6.337581">
        <ele>398.603750</ele>
        <time>2009-09-13T19:59:09Z</time>
      </trkpt>
      <trkpt lat="50.691427" lon="6.337608">
        <ele>401.007080</ele>
        <time>2009-09-13T19:59:10Z</time>
      </trkpt>
      <trkpt lat="50.691468" lon="6.337591">
        <ele>395.719840</ele>
        <time>2009-09-13T19:59:12Z</time>
      </trkpt>
      <trkpt lat="50.691548" lon="6.337608">
        <ele>396.200560</ele>
        <time>2009-09-13T19:59:15Z</time>
      </trkpt>
      <trkpt lat="50.691572" lon="6.337602">
        <ele>391.874510</ele>
        <time>2009-09-13T19:59:16Z</time>
      </trkpt>
      <trkpt lat="50.691578" lon="6.337634">
        <ele>385.625970</ele>
        <time>2009-09-13T19:59:17Z</time>
      </trkpt>
      <trkpt lat="50.691623" lon="6.337696">
        <ele>378.416130</ele>
        <time>2009-09-13T19:59:19Z</time>
      </trkpt>
      <trkpt lat="50.691687" lon="6.337705">
        <ele>376.974240</ele>
        <time>2009-09-13T19:59:22Z</time>
      </trkpt>
      <trkpt lat="50.691743" lon="6.337650">
        <ele>370.725580</ele>
        <time>2009-09-13T19:59:24Z</time>
      </trkpt>
      <trkpt lat="50.691819" lon="6.337672">
        <ele>368.802970</ele>
        <time>2009-09-13T19:59:27Z</time>
      </trkpt>
      <trkpt lat="50.691864" lon="6.337651">
        <ele>366.399530</ele>
        <time>2009-09-13T19:59:29Z</time>
      </trkpt>
      <trkpt lat="50.691891" lon="6.337631">
        <ele>366.399530</ele>
        <time>2009-09-13T19:59:31Z</time>
      </trkpt>
      <trkpt lat="50.691989" lon="6.337590">
        <ele>368.322260</ele>
        <time>2009-09-13T19:59:35Z</time>
      </trkpt>
      <trkpt lat="50.692070" lon="6.337564">
        <ele>374.090080</ele>
        <time>2009-09-13T19:59:38Z</time>
      </trkpt>
      <trkpt lat="50.692105" lon="6.337583">
        <ele>376.012810</ele>
        <time>2009-09-13T19:59:39Z</time>
      </trkpt>
      <trkpt lat="50.692230" lon="6.337481">
        <ele>379.858030</ele>
        <time>2009-09-13T19:59:45Z</time>
      </trkpt>
      <trkpt lat="50.692226" lon="6.337451">
        <ele>380.338740</ele>
        <time>2009-09-13T19:59:46Z</time>
      </trkpt>
      <trkpt lat="50.692273" lon="6.337429">
        <ele>379.377440</ele>
        <time>2009-09-13T19:59:48Z</time>
      </trkpt>
      <trkpt lat="50.692368" lon="6.337425">
        <ele>381.780630</ele>
        <time>2009-09-13T19:59:51Z</time>
      </trkpt>
      <trkpt lat="50.692507" lon="6.337367">
        <ele>379.377440</ele>
        <time>2009-09-13T19:59:57Z</time>
      </trkpt>
      <trkpt lat="50.692592" lon="6.337362">
        <ele>376.493530</ele>
        <time>2009-09-13T20:00:01Z</time>
      </trkpt>
      <trkpt lat="50.692745" lon="6.337391">
        <ele>375.051510</ele>
        <time>2009-09-13T20:00:07Z</time>
      </trkpt>
      <trkpt lat="50.692907" lon="6.337403">
        <ele>376.493530</ele>
        <time>2009-09-13T20:00:13Z</time>
      </trkpt>
      <trkpt lat="50.692961" lon="6.337441">
        <ele>376.012810</ele>
        <time>2009-09-13T20:00:16Z</time>
      </trkpt>
      <trkpt lat="50.693041" lon="6.337472">
        <ele>377.454830</ele>
        <time>2009-09-13T20:00:19Z</time>
      </trkpt>
      <trkpt lat="50.693106" lon="6.337464">
        <ele>378.416130</ele>
        <time>2009-09-13T20:00:22Z</time>
      </trkpt>
      <trkpt lat="50.693162" lon="6.337491">
        <ele>381.780630</ele>
        <time>2009-09-13T20:00:24Z</time>
      </trkpt>
      <trkpt lat="50.693218" lon="6.337454">
        <ele>374.570800</ele>
        <time>2009-09-13T20:00:26Z</time>
      </trkpt>
      <trkpt lat="50.693282" lon="6.337440">
        <ele>373.128900</ele>
        <time>2009-09-13T20:00:29Z</time>
      </trkpt>
      <trkpt lat="50.693305" lon="6.337500">
        <ele>370.244870</ele>
        <time>2009-09-13T20:00:31Z</time>
      </trkpt>
      <trkpt lat="50.693377" lon="6.337563">
        <ele>370.725580</ele>
        <time>2009-09-13T20:00:34Z</time>
      </trkpt>
      <trkpt lat="50.693441" lon="6.337623">
        <ele>371.206290</ele>
        <time>2009-09-13T20:00:37Z</time>
      </trkpt>
      <trkpt lat="50.693465" lon="6.337650">
        <ele>371.206290</ele>
        <time>2009-09-13T20:00:38Z</time>
      </trkpt>
      <trkpt lat="50.693562" lon="6.337710">
        <ele>370.725580</ele>
        <time>2009-09-13T20:00:42Z</time>
      </trkpt>
      <trkpt lat="50.693682" lon="6.337686">
        <ele>373.128900</ele>
        <time>2009-09-13T20:00:47Z</time>
      </trkpt>
      <trkpt lat="50.693698" lon="6.337744">
        <ele>371.686880</ele>
        <time>2009-09-13T20:00:49Z</time>
      </trkpt>
      <trkpt lat="50.693714" lon="6.337777">
        <ele>366.399530</ele>
        <time>2009-09-13T20:00:50Z</time>
      </trkpt>
      <trkpt lat="50.693804" lon="6.337829">
        <ele>365.438350</ele>
        <time>2009-09-13T20:00:54Z</time>
      </trkpt>
      <trkpt lat="50.693883" lon="6.337902">
        <ele>369.764280</ele>
        <time>2009-09-13T20:00:57Z</time>
      </trkpt>
      <trkpt lat="50.693908" lon="6.337903">
        <ele>371.206290</ele>
        <time>2009-09-13T20:00:58Z</time>
      </trkpt>
      <trkpt lat="50.693984" lon="6.337910">
        <ele>366.399530</ele>
        <time>2009-09-13T20:01:01Z</time>
      </trkpt>
      <trkpt lat="50.694081" lon="6.337946">
        <ele>364.957640</ele>
        <time>2009-09-13T20:01:05Z</time>
      </trkpt>
      <trkpt lat="50.694138" lon="6.337992">
        <ele>361.593130</ele>
        <time>2009-09-13T20:01:08Z</time>
      </trkpt>
      <trkpt lat="50.694176" lon="6.338091">
        <ele>359.670410</ele>
        <time>2009-09-13T20:01:11Z</time>
      </trkpt>
      <trkpt lat="50.694216" lon="6.338098">
        <ele>355.825190</ele>
        <time>2009-09-13T20:01:12Z</time>
      </trkpt>
      <trkpt lat="50.694293" lon="6.338170">
        <ele>357.267080</ele>
        <time>2009-09-13T20:01:16Z</time>
      </trkpt>
      <trkpt lat="50.694364" lon="6.338207">
        <ele>356.786370</ele>
        <time>2009-09-13T20:01:19Z</time>
      </trkpt>
      <trkpt lat="50.694409" lon="6.338289">
        <ele>353.421870</ele>
        <time>2009-09-13T20:01:22Z</time>
      </trkpt>
      <trkpt lat="50.694421" lon="6.338311">
        <ele>354.383170</ele>
        <time>2009-09-13T20:01:23Z</time>
      </trkpt>
      <trkpt lat="50.694509" lon="6.338408">
        <ele>352.941160</ele>
        <time>2009-09-13T20:01:27Z</time>
      </trkpt>
      <trkpt lat="50.694579" lon="6.338440">
        <ele>355.825190</ele>
        <time>2009-09-13T20:01:30Z</time>
      </trkpt>
      <trkpt lat="50.694597" lon="6.338463">
        <ele>354.863760</ele>
        <time>2009-09-13T20:01:31Z</time>
      </trkpt>
      <trkpt lat="50.694702" lon="6.338568">
        <ele>356.786370</ele>
        <time>2009-09-13T20:01:36Z</time>
      </trkpt>
      <trkpt lat="50.694800" lon="6.338650">
        <ele>361.593130</ele>
        <time>2009-09-13T20:01:40Z</time>
      </trkpt>
      <trkpt lat="50.694877" lon="6.338713">
        <ele>364.957640</ele>
        <time>2009-09-13T20:01:44Z</time>
      </trkpt>
      <trkpt lat="50.694957" lon="6.338757">
        <ele>365.918940</ele>
        <time>2009-09-13T20:01:47Z</time>
      </trkpt>
      <trkpt lat="50.695046" lon="6.338787">
        <ele>368.802970</ele>
        <time>2009-09-13T20:01:51Z</time>
      </trkpt>
      <trkpt lat="50.695074" lon="6.338832">
        <ele>369.283690</ele>
        <time>2009-09-13T20:01:52Z</time>
      </trkpt>
      <trkpt lat="50.695110" lon="6.338902">
        <ele>369.283690</ele>
        <time>2009-09-13T20:01:55Z</time>
      </trkpt>
      <trkpt lat="50.695117" lon="6.338995">
        <ele>363.035030</ele>
        <time>2009-09-13T20:01:57Z</time>
      </trkpt>
      <trkpt lat="50.695141" lon="6.339025">
        <ele>363.515740</ele>
        <time>2009-09-13T20:01:58Z</time>
      </trkpt>
      <trkpt lat="50.695178" lon="6.339048">
        <ele>357.747800</ele>
        <time>2009-09-13T20:02:00Z</time>
      </trkpt>
      <trkpt lat="50.695222" lon="6.339056">
        <ele>357.267080</ele>
        <time>2009-09-13T20:02:01Z</time>
      </trkpt>
      <trkpt lat="50.695307" lon="6.339063">
        <ele>354.863760</ele>
        <time>2009-09-13T20:02:05Z</time>
      </trkpt>
      <trkpt lat="50.695401" lon="6.339039">
        <ele>357.747800</ele>
        <time>2009-09-13T20:02:09Z</time>
      </trkpt>
      <trkpt lat="50.695566" lon="6.338927">
        <ele>353.902580</ele>
        <time>2009-09-13T20:02:16Z</time>
      </trkpt>
      <trkpt lat="50.695649" lon="6.338883">
        <ele>354.863760</ele>
        <time>2009-09-13T20:02:19Z</time>
      </trkpt>
      <trkpt lat="50.695731" lon="6.338879">
        <ele>354.863760</ele>
        <time>2009-09-13T20:02:23Z</time>
      </trkpt>
      <trkpt lat="50.695810" lon="6.338905">
        <ele>356.305780</ele>
        <time>2009-09-13T20:02:26Z</time>
      </trkpt>
      <trkpt lat="50.695906" lon="6.338969">
        <ele>356.786370</ele>
        <time>2009-09-13T20:02:30Z</time>
      </trkpt>
      <trkpt lat="50.695979" lon="6.339115">
        <ele>360.631710</ele>
        <time>2009-09-13T20:02:35Z</time>
      </trkpt>
      <trkpt lat="50.695968" lon="6.339200">
        <ele>352.460570</ele>
        <time>2009-09-13T20:02:37Z</time>
      </trkpt>
      <trkpt lat="50.696011" lon="6.339298">
        <ele>352.941160</ele>
        <time>2009-09-13T20:02:40Z</time>
      </trkpt>
      <trkpt lat="50.696037" lon="6.339339">
        <ele>353.902580</ele>
        <time>2009-09-13T20:02:42Z</time>
      </trkpt>
      <trkpt lat="50.696052" lon="6.339462">
        <ele>351.979850</ele>
        <time>2009-09-13T20:02:45Z</time>
      </trkpt>
      <trkpt lat="50.696056" lon="6.339588">
        <ele>348.615230</ele>
        <time>2009-09-13T20:02:48Z</time>
      </trkpt>
      <trkpt lat="50.696096" lon="6.339745">
        <ele>348.615230</ele>
        <time>2009-09-13T20:02:52Z</time>
      </trkpt>
      <trkpt lat="50.696136" lon="6.339834">
        <ele>347.653930</ele>
        <time>2009-09-13T20:02:55Z</time>
      </trkpt>
      <trkpt lat="50.696178" lon="6.339951">
        <ele>347.653930</ele>
        <time>2009-09-13T20:02:58Z</time>
      </trkpt>
      <trkpt lat="50.696202" lon="6.340033">
        <ele>347.653930</ele>
        <time>2009-09-13T20:03:01Z</time>
      </trkpt>
      <trkpt lat="50.696272" lon="6.340080">
        <ele>349.095820</ele>
        <time>2009-09-13T20:03:04Z</time>
      </trkpt>
      <trkpt lat="50.696330" lon="6.340146">
        <ele>351.979850</ele>
        <time>2009-09-13T20:03:07Z</time>
      </trkpt>
      <trkpt lat="50.696441" lon="6.340149">
        <ele>354.863760</ele>
        <time>2009-09-13T20:03:11Z</time>
      </trkpt>
      <trkpt lat="50.696511" lon="6.340129">
        <ele>356.786370</ele>
        <time>2009-09-13T20:03:14Z</time>
      </trkpt>
      <trkpt lat="50.696573" lon="6.340084">
        <ele>359.670410</ele>
        <time>2009-09-13T20:03:17Z</time>
      </trkpt>
      <trkpt lat="50.696601" lon="6.340039">
        <ele>359.670410</ele>
        <time>2009-09-13T20:03:18Z</time>
      </trkpt>
      <trkpt lat="50.696665" lon="6.339978">
        <ele>361.112420</ele>
        <time>2009-09-13T20:03:21Z</time>
      </trkpt>
      <trkpt lat="50.696790" lon="6.339876">
        <ele>363.996330</ele>
        <time>2009-09-13T20:03:27Z</time>
      </trkpt>
      <trkpt lat="50.696895" lon="6.339805">
        <ele>360.631710</ele>
        <time>2009-09-13T20:03:31Z</time>
      </trkpt>
      <trkpt lat="50.697014" lon="6.339760">
        <ele>364.476920</ele>
        <time>2009-09-13T20:03:36Z</time>
      </trkpt>
      <trkpt lat="50.697067" lon="6.339680">
        <ele>362.073730</ele>
        <time>2009-09-13T20:03:39Z</time>
      </trkpt>
      <trkpt lat="50.697129" lon="6.339624">
        <ele>361.112420</ele>
        <time>2009-09-13T20:03:42Z</time>
      </trkpt>
      <trkpt lat="50.697253" lon="6.339411">
        <ele>362.073730</ele>
        <time>2009-09-13T20:03:49Z</time>
      </trkpt>
      <trkpt lat="50.697300" lon="6.339299">
        <ele>358.708980</ele>
        <time>2009-09-13T20:03:53Z</time>
      </trkpt>
      <trkpt lat="50.697349" lon="6.339247">
        <ele>360.631710</ele>
        <time>2009-09-13T20:03:55Z</time>
      </trkpt>
      <trkpt lat="50.697436" lon="6.339140">
        <ele>358.228390</ele>
        <time>2009-09-13T20:04:00Z</time>
      </trkpt>
      <trkpt lat="50.697467" lon="6.339076">
        <ele>359.670410</ele>
        <time>2009-09-13T20:04:02Z</time>
      </trkpt>
      <trkpt lat="50.697466" lon="6.339005">
        <ele>356.786370</ele>
        <time>2009-09-13T20:04:03Z</time>
      </trkpt>
      <trkpt lat="50.697542" lon="6.338906">
        <ele>358.228390</ele>
        <time>2009-09-13T20:04:07Z</time>
      </trkpt>
      <trkpt lat="50.697597" lon="6.338796">
        <ele>353.421870</ele>
        <time>2009-09-13T20:04:11Z</time>
      </trkpt>
      <trkpt lat="50.697675" lon="6.338685">
        <ele>351.499140</ele>
        <time>2009-09-13T20:04:15Z</time>
      </trkpt>
      <trkpt lat="50.697712" lon="6.338621">
        <ele>351.979850</ele>
        <time>2009-09-13T20:04:17Z</time>
      </trkpt>
      <trkpt lat="50.697778" lon="6.338539">
        <ele>350.537840</ele>
        <time>2009-09-13T20:04:21Z</time>
      </trkpt>
      <trkpt lat="50.697820" lon="6.338463">
        <ele>351.018430</ele>
        <time>2009-09-13T20:04:23Z</time>
      </trkpt>
      <trkpt lat="50.697889" lon="6.338328">
        <ele>351.018430</ele>
        <time>2009-09-13T20:04:28Z</time>
      </trkpt>
      <trkpt lat="50.697937" lon="6.338287">
        <ele>350.057250</ele>
        <time>2009-09-13T20:04:30Z</time>
      </trkpt>
      <trkpt lat="50.698097" lon="6.338148">
        <ele>357.267080</ele>
        <time>2009-09-13T20:04:37Z</time>
      </trkpt>
      <trkpt lat="50.698134" lon="6.338058">
        <ele>348.615230</ele>
        <time>2009-09-13T20:04:40Z</time>
      </trkpt>
      <trkpt lat="50.698214" lon="6.337996">
        <ele>350.057250</ele>
        <time>2009-09-13T20:04:43Z</time>
      </trkpt>
      <trkpt lat="50.698278" lon="6.337917">
        <ele>349.095820</ele>
        <time>2009-09-13T20:04:47Z</time>
      </trkpt>
      <trkpt lat="50.698359" lon="6.337833">
        <ele>349.095820</ele>
        <time>2009-09-13T20:04:51Z</time>
      </trkpt>
      <trkpt lat="50.698475" lon="6.337744">
        <ele>349.095820</ele>
        <time>2009-09-13T20:04:56Z</time>
      </trkpt>
      <trkpt lat="50.698619" lon="6.337627">
        <ele>342.847290</ele>
        <time>2009-09-13T20:05:02Z</time>
      </trkpt>
      <trkpt lat="50.698685" lon="6.337551">
        <ele>338.521480</ele>
        <time>2009-09-13T20:05:05Z</time>
      </trkpt>
      <trkpt lat="50.698746" lon="6.337509">
        <ele>340.924680</ele>
        <time>2009-09-13T20:05:08Z</time>
      </trkpt>
      <trkpt lat="50.698778" lon="6.337455">
        <ele>341.885980</ele>
        <time>2009-09-13T20:05:10Z</time>
      </trkpt>
      <trkpt lat="50.698873" lon="6.337403">
        <ele>346.692620</ele>
        <time>2009-09-13T20:05:14Z</time>
      </trkpt>
      <trkpt lat="50.698942" lon="6.337377">
        <ele>346.692620</ele>
        <time>2009-09-13T20:05:17Z</time>
      </trkpt>
      <trkpt lat="50.699111" lon="6.337332">
        <ele>351.979850</ele>
        <time>2009-09-13T20:05:24Z</time>
      </trkpt>
      <trkpt lat="50.699213" lon="6.337298">
        <ele>353.421870</ele>
        <time>2009-09-13T20:05:28Z</time>
      </trkpt>
      <trkpt lat="50.699322" lon="6.337343">
        <ele>351.979850</ele>
        <time>2009-09-13T20:05:32Z</time>
      </trkpt>
      <trkpt lat="50.699423" lon="6.337317">
        <ele>348.615230</ele>
        <time>2009-09-13T20:05:37Z</time>
      </trkpt>
      <trkpt lat="50.699478" lon="6.337342">
        <ele>348.134640</ele>
        <time>2009-09-13T20:05:39Z</time>
      </trkpt>
      <trkpt lat="50.699580" lon="6.337338">
        <ele>350.537840</ele>
        <time>2009-09-13T20:05:43Z</time>
      </trkpt>
      <trkpt lat="50.699817" lon="6.337337">
        <ele>339.963370</ele>
        <time>2009-09-13T20:05:52Z</time>
      </trkpt>
      <trkpt lat="50.699959" lon="6.337309">
        <ele>349.576530</ele>
        <time>2009-09-13T20:05:58Z</time>
      </trkpt>
      <trkpt lat="50.700090" lon="6.337330">
        <ele>355.344480</ele>
        <time>2009-09-13T20:06:03Z</time>
      </trkpt>
      <trkpt lat="50.700188" lon="6.337374">
        <ele>355.825190</ele>
        <time>2009-09-13T20:06:07Z</time>
      </trkpt>
      <trkpt lat="50.700283" lon="6.337448">
        <ele>350.057250</ele>
        <time>2009-09-13T20:06:12Z</time>
      </trkpt>
      <trkpt lat="50.700339" lon="6.337470">
        <ele>347.653930</ele>
        <time>2009-09-13T20:06:14Z</time>
      </trkpt>
      <trkpt lat="50.700385" lon="6.337504">
        <ele>344.770010</ele>
        <time>2009-09-13T20:06:16Z</time>
      </trkpt>
      <trkpt lat="50.700471" lon="6.337490">
        <ele>342.847290</ele>
        <time>2009-09-13T20:06:19Z</time>
      </trkpt>
      <trkpt lat="50.700549" lon="6.337498">
        <ele>343.808590</ele>
        <time>2009-09-13T20:06:23Z</time>
      </trkpt>
      <trkpt lat="50.700652" lon="6.337484">
        <ele>339.963370</ele>
        <time>2009-09-13T20:06:27Z</time>
      </trkpt>
      <trkpt lat="50.700713" lon="6.337505">
        <ele>340.444090</ele>
        <time>2009-09-13T20:06:29Z</time>
      </trkpt>
      <trkpt lat="50.700749" lon="6.337509">
        <ele>338.521480</ele>
        <time>2009-09-13T20:06:31Z</time>
      </trkpt>
      <trkpt lat="50.700792" lon="6.337537">
        <ele>337.079460</ele>
        <time>2009-09-13T20:06:33Z</time>
      </trkpt>
      <trkpt lat="50.700887" lon="6.337565">
        <ele>336.598870</ele>
        <time>2009-09-13T20:06:36Z</time>
      </trkpt>
      <trkpt lat="50.700961" lon="6.337608">
        <ele>338.040770</ele>
        <time>2009-09-13T20:06:40Z</time>
      </trkpt>
      <trkpt lat="50.701029" lon="6.337622">
        <ele>338.040770</ele>
        <time>2009-09-13T20:06:42Z</time>
      </trkpt>
      <trkpt lat="50.701080" lon="6.337672">
        <ele>341.405270</ele>
        <time>2009-09-13T20:06:45Z</time>
      </trkpt>
      <trkpt lat="50.701167" lon="6.337713">
        <ele>341.405270</ele>
        <time>2009-09-13T20:06:48Z</time>
      </trkpt>
      <trkpt lat="50.701214" lon="6.337722">
        <ele>342.366690</ele>
        <time>2009-09-13T20:06:50Z</time>
      </trkpt>
      <trkpt lat="50.701299" lon="6.337749">
        <ele>343.808590</ele>
        <time>2009-09-13T20:06:54Z</time>
      </trkpt>
      <trkpt lat="50.701362" lon="6.337787">
        <ele>342.847290</ele>
        <time>2009-09-13T20:06:56Z</time>
      </trkpt>
      <trkpt lat="50.701424" lon="6.337842">
        <ele>341.885980</ele>
        <time>2009-09-13T20:06:59Z</time>
      </trkpt>
      <trkpt lat="50.701505" lon="6.337889">
        <ele>343.808590</ele>
        <time>2009-09-13T20:07:03Z</time>
      </trkpt>
      <trkpt lat="50.701575" lon="6.337908">
        <ele>344.770010</ele>
        <time>2009-09-13T20:07:06Z</time>
      </trkpt>
      <trkpt lat="50.701693" lon="6.337907">
        <ele>346.212030</ele>
        <time>2009-09-13T20:07:10Z</time>
      </trkpt>
      <trkpt lat="50.701737" lon="6.337920">
        <ele>341.885980</ele>
        <time>2009-09-13T20:07:12Z</time>
      </trkpt>
      <trkpt lat="50.701789" lon="6.337932">
        <ele>342.366690</ele>
        <time>2009-09-13T20:07:14Z</time>
      </trkpt>
      <trkpt lat="50.701835" lon="6.338039">
        <ele>342.847290</ele>
        <time>2009-09-13T20:07:17Z</time>
      </trkpt>
      <trkpt lat="50.701904" lon="6.338079">
        <ele>342.847290</ele>
        <time>2009-09-13T20:07:20Z</time>
      </trkpt>
      <trkpt lat="50.701960" lon="6.338106">
        <ele>344.770010</ele>
        <time>2009-09-13T20:07:23Z</time>
      </trkpt>
      <trkpt lat="50.702028" lon="6.338143">
        <ele>347.173210</ele>
        <time>2009-09-13T20:07:26Z</time>
      </trkpt>
      <trkpt lat="50.702110" lon="6.338168">
        <ele>342.366690</ele>
        <time>2009-09-13T20:07:29Z</time>
      </trkpt>
      <trkpt lat="50.702250" lon="6.338204">
        <ele>338.040770</ele>
        <time>2009-09-13T20:07:35Z</time>
      </trkpt>
      <trkpt lat="50.702300" lon="6.338251">
        <ele>338.521480</ele>
        <time>2009-09-13T20:07:37Z</time>
      </trkpt>
      <trkpt lat="50.702336" lon="6.338339">
        <ele>336.118160</ele>
        <time>2009-09-13T20:07:40Z</time>
      </trkpt>
      <trkpt lat="50.702388" lon="6.338356">
        <ele>332.753540</ele>
        <time>2009-09-13T20:07:42Z</time>
      </trkpt>
      <trkpt lat="50.702487" lon="6.338456">
        <ele>336.118160</ele>
        <time>2009-09-13T20:07:46Z</time>
      </trkpt>
      <trkpt lat="50.702579" lon="6.338546">
        <ele>337.560050</ele>
        <time>2009-09-13T20:07:51Z</time>
      </trkpt>
      <trkpt lat="50.702640" lon="6.338568">
        <ele>338.040770</ele>
        <time>2009-09-13T20:07:53Z</time>
      </trkpt>
      <trkpt lat="50.702738" lon="6.338614">
        <ele>337.560050</ele>
        <time>2009-09-13T20:07:57Z</time>
      </trkpt>
      <trkpt lat="50.702747" lon="6.338633">
        <ele>337.079460</ele>
        <time>2009-09-13T20:07:58Z</time>
      </trkpt>
      <trkpt lat="50.702804" lon="6.338697">
        <ele>337.079460</ele>
        <time>2009-09-13T20:08:01Z</time>
      </trkpt>
      <trkpt lat="50.702948" lon="6.338830">
        <ele>334.195430</ele>
        <time>2009-09-13T20:08:07Z</time>
      </trkpt>
      <trkpt lat="50.703030" lon="6.338877">
        <ele>338.521480</ele>
        <time>2009-09-13T20:08:11Z</time>
      </trkpt>
      <trkpt lat="50.703199" lon="6.338988">
        <ele>333.234130</ele>
        <time>2009-09-13T20:08:18Z</time>
      </trkpt>
      <trkpt lat="50.703430" lon="6.339123">
        <ele>337.079460</ele>
        <time>2009-09-13T20:08:28Z</time>
      </trkpt>
      <trkpt lat="50.703552" lon="6.339175">
        <ele>336.598870</ele>
        <time>2009-09-13T20:08:33Z</time>
      </trkpt>
      <trkpt lat="50.703614" lon="6.339216">
        <ele>338.521480</ele>
        <time>2009-09-13T20:08:36Z</time>
      </trkpt>
      <trkpt lat="50.703601" lon="6.339306">
        <ele>335.156730</ele>
        <time>2009-09-13T20:08:38Z</time>
      </trkpt>
      <trkpt lat="50.703637" lon="6.339363">
        <ele>335.156730</ele>
        <time>2009-09-13T20:08:40Z</time>
      </trkpt>
      <trkpt lat="50.703705" lon="6.339511">
        <ele>328.908320</ele>
        <time>2009-09-13T20:08:45Z</time>
      </trkpt>
      <trkpt lat="50.703754" lon="6.339577">
        <ele>329.388910</ele>
        <time>2009-09-13T20:08:48Z</time>
      </trkpt>
      <trkpt lat="50.703797" lon="6.339604">
        <ele>330.830930</ele>
        <time>2009-09-13T20:08:49Z</time>
      </trkpt>
      <trkpt lat="50.703839" lon="6.339649">
        <ele>327.946770</ele>
        <time>2009-09-13T20:08:51Z</time>
      </trkpt>
      <trkpt lat="50.703892" lon="6.339747">
        <ele>331.311520</ele>
        <time>2009-09-13T20:08:55Z</time>
      </trkpt>
      <trkpt lat="50.703895" lon="6.339837">
        <ele>325.062980</ele>
        <time>2009-09-13T20:08:57Z</time>
      </trkpt>
      <trkpt lat="50.703885" lon="6.339883">
        <ele>324.582270</ele>
        <time>2009-09-13T20:08:58Z</time>
      </trkpt>
      <trkpt lat="50.703863" lon="6.339995">
        <ele>327.466180</ele>
        <time>2009-09-13T20:09:01Z</time>
      </trkpt>
      <trkpt lat="50.703857" lon="6.340067">
        <ele>326.504880</ele>
        <time>2009-09-13T20:09:03Z</time>
      </trkpt>
      <trkpt lat="50.703888" lon="6.340189">
        <ele>328.908320</ele>
        <time>2009-09-13T20:09:06Z</time>
      </trkpt>
      <trkpt lat="50.703902" lon="6.340209">
        <ele>328.908320</ele>
        <time>2009-09-13T20:09:07Z</time>
      </trkpt>
      <trkpt lat="50.703863" lon="6.340341">
        <ele>321.698360</ele>
        <time>2009-09-13T20:09:11Z</time>
      </trkpt>
      <trkpt lat="50.703859" lon="6.340385">
        <ele>322.659660</ele>
        <time>2009-09-13T20:09:12Z</time>
      </trkpt>
      <trkpt lat="50.703911" lon="6.340527">
        <ele>316.891720</ele>
        <time>2009-09-13T20:09:16Z</time>
      </trkpt>
      <trkpt lat="50.703958" lon="6.340661">
        <ele>318.333610</ele>
        <time>2009-09-13T20:09:20Z</time>
      </trkpt>
      <trkpt lat="50.703979" lon="6.340775">
        <ele>321.217770</ele>
        <time>2009-09-13T20:09:23Z</time>
      </trkpt>
      <trkpt lat="50.703998" lon="6.340831">
        <ele>322.178950</ele>
        <time>2009-09-13T20:09:25Z</time>
      </trkpt>
      <trkpt lat="50.704131" lon="6.340882">
        <ele>330.350210</ele>
        <time>2009-09-13T20:09:30Z</time>
      </trkpt>
      <trkpt lat="50.704154" lon="6.340902">
        <ele>334.195430</ele>
        <time>2009-09-13T20:09:31Z</time>
      </trkpt>
      <trkpt lat="50.704162" lon="6.340953">
        <ele>326.985590</ele>
        <time>2009-09-13T20:09:32Z</time>
      </trkpt>
      <trkpt lat="50.704204" lon="6.340999">
        <ele>324.582270</ele>
        <time>2009-09-13T20:09:34Z</time>
      </trkpt>
      <trkpt lat="50.704307" lon="6.341102">
        <ele>326.985590</ele>
        <time>2009-09-13T20:09:39Z</time>
      </trkpt>
      <trkpt lat="50.704339" lon="6.341172">
        <ele>330.350210</ele>
        <time>2009-09-13T20:09:42Z</time>
      </trkpt>
      <trkpt lat="50.704360" lon="6.341187">
        <ele>331.792110</ele>
        <time>2009-09-13T20:09:42Z</time>
      </trkpt>
      <trkpt lat="50.704417" lon="6.341214">
        <ele>330.350210</ele>
        <time>2009-09-13T20:09:45Z</time>
      </trkpt>
      <trkpt lat="50.704470" lon="6.341222">
        <ele>329.388910</ele>
        <time>2009-09-13T20:09:47Z</time>
      </trkpt>
      <trkpt lat="50.704530" lon="6.341290">
        <ele>330.350210</ele>
        <time>2009-09-13T20:09:50Z</time>
      </trkpt>
      <trkpt lat="50.704594" lon="6.341352">
        <ele>327.946770</ele>
        <time>2009-09-13T20:09:53Z</time>
      </trkpt>
      <trkpt lat="50.704681" lon="6.341388">
        <ele>330.350210</ele>
        <time>2009-09-13T20:09:56Z</time>
      </trkpt>
      <trkpt lat="50.704751" lon="6.341468">
        <ele>332.753540</ele>
        <time>2009-09-13T20:10:00Z</time>
      </trkpt>
      <trkpt lat="50.704764" lon="6.341479">
        <ele>333.234130</ele>
        <time>2009-09-13T20:10:01Z</time>
      </trkpt>
      <trkpt lat="50.704844" lon="6.341642">
        <ele>333.234130</ele>
        <time>2009-09-13T20:10:06Z</time>
      </trkpt>
      <trkpt lat="50.704865" lon="6.341744">
        <ele>328.908320</ele>
        <time>2009-09-13T20:10:09Z</time>
      </trkpt>
      <trkpt lat="50.704892" lon="6.341834">
        <ele>328.427610</ele>
        <time>2009-09-13T20:10:11Z</time>
      </trkpt>
      <trkpt lat="50.704921" lon="6.341927">
        <ele>324.582270</ele>
        <time>2009-09-13T20:10:14Z</time>
      </trkpt>
      <trkpt lat="50.704969" lon="6.342041">
        <ele>326.504880</ele>
        <time>2009-09-13T20:10:17Z</time>
      </trkpt>
      <trkpt lat="50.705017" lon="6.342088">
        <ele>326.024160</ele>
        <time>2009-09-13T20:10:19Z</time>
      </trkpt>
      <trkpt lat="50.705077" lon="6.342166">
        <ele>325.543570</ele>
        <time>2009-09-13T20:10:23Z</time>
      </trkpt>
      <trkpt lat="50.705117" lon="6.342197">
        <ele>325.062980</ele>
        <time>2009-09-13T20:10:24Z</time>
      </trkpt>
      <trkpt lat="50.705104" lon="6.342193">
        <ele>324.101560</ele>
        <time>2009-09-13T20:10:25Z</time>
      </trkpt>
      <trkpt lat="50.705027" lon="6.342191">
        <ele>325.062980</ele>
        <time>2009-09-13T20:10:28Z</time>
      </trkpt>
      <trkpt lat="50.704979" lon="6.342244">
        <ele>327.946770</ele>
        <time>2009-09-13T20:10:30Z</time>
      </trkpt>
      <trkpt lat="50.705145" lon="6.342303">
        <ele>328.427610</ele>
        <time>2009-09-13T20:10:37Z</time>
      </trkpt>
      <trkpt lat="50.705215" lon="6.342381">
        <ele>327.466180</ele>
        <time>2009-09-13T20:10:40Z</time>
      </trkpt>
      <trkpt lat="50.705257" lon="6.342457">
        <ele>325.543570</ele>
        <time>2009-09-13T20:10:43Z</time>
      </trkpt>
      <trkpt lat="50.705280" lon="6.342464">
        <ele>325.543570</ele>
        <time>2009-09-13T20:10:44Z</time>
      </trkpt>
      <trkpt lat="50.705335" lon="6.342512">
        <ele>325.062980</ele>
        <time>2009-09-13T20:10:46Z</time>
      </trkpt>
      <trkpt lat="50.705448" lon="6.342545">
        <ele>328.427610</ele>
        <time>2009-09-13T20:10:51Z</time>
      </trkpt>
      <trkpt lat="50.705484" lon="6.342596">
        <ele>325.543570</ele>
        <time>2009-09-13T20:10:53Z</time>
      </trkpt>
      <trkpt lat="50.705505" lon="6.342664">
        <ele>322.178950</ele>
        <time>2009-09-13T20:10:55Z</time>
      </trkpt>
      <trkpt lat="50.705590" lon="6.342739">
        <ele>318.814330</ele>
        <time>2009-09-13T20:10:59Z</time>
      </trkpt>
      <trkpt lat="50.705617" lon="6.342787">
        <ele>317.853020</ele>
        <time>2009-09-13T20:11:00Z</time>
      </trkpt>
      <trkpt lat="50.705643" lon="6.342863">
        <ele>318.814330</ele>
        <time>2009-09-13T20:11:03Z</time>
      </trkpt>
      <trkpt lat="50.705652" lon="6.342905">
        <ele>314.969110</ele>
        <time>2009-09-13T20:11:04Z</time>
      </trkpt>
      <trkpt lat="50.705680" lon="6.342942">
        <ele>314.488400</ele>
        <time>2009-09-13T20:11:05Z</time>
      </trkpt>
      <trkpt lat="50.705785" lon="6.343001">
        <ele>324.101560</ele>
        <time>2009-09-13T20:11:10Z</time>
      </trkpt>
      <trkpt lat="50.705714" lon="6.343046">
        <ele>328.908320</ele>
        <time>2009-09-13T20:11:13Z</time>
      </trkpt>
      <trkpt lat="50.705745" lon="6.343108">
        <ele>338.040770</ele>
        <time>2009-09-13T20:11:15Z</time>
      </trkpt>
      <trkpt lat="50.705779" lon="6.343131">
        <ele>343.327880</ele>
        <time>2009-09-13T20:11:16Z</time>
      </trkpt>
      <trkpt lat="50.705872" lon="6.343200">
        <ele>351.499140</ele>
        <time>2009-09-13T20:11:20Z</time>
      </trkpt>
      <trkpt lat="50.705975" lon="6.343319">
        <ele>357.267080</ele>
        <time>2009-09-13T20:11:26Z</time>
      </trkpt>
      <trkpt lat="50.705993" lon="6.343339">
        <ele>358.228390</ele>
        <time>2009-09-13T20:11:26Z</time>
      </trkpt>
      <trkpt lat="50.706065" lon="6.343374">
        <ele>362.073730</ele>
        <time>2009-09-13T20:11:29Z</time>
      </trkpt>
      <trkpt lat="50.706131" lon="6.343452">
        <ele>366.880240</ele>
        <time>2009-09-13T20:11:33Z</time>
      </trkpt>
      <trkpt lat="50.706144" lon="6.343526">
        <ele>368.322260</ele>
        <time>2009-09-13T20:11:35Z</time>
      </trkpt>
      <trkpt lat="50.706182" lon="6.343564">
        <ele>368.802970</ele>
        <time>2009-09-13T20:11:36Z</time>
      </trkpt>
      <trkpt lat="50.706280" lon="6.343610">
        <ele>366.399530</ele>
        <time>2009-09-13T20:11:41Z</time>
      </trkpt>
      <trkpt lat="50.706353" lon="6.343673">
        <ele>365.918940</ele>
        <time>2009-09-13T20:11:44Z</time>
      </trkpt>
      <trkpt lat="50.706405" lon="6.343704">
        <ele>365.918940</ele>
        <time>2009-09-13T20:11:46Z</time>
      </trkpt>
      <trkpt lat="50.706509" lon="6.343743">
        <ele>367.841550</ele>
        <time>2009-09-13T20:11:50Z</time>
      </trkpt>
      <trkpt lat="50.706551" lon="6.343747">
        <ele>369.764280</ele>
        <time>2009-09-13T20:11:52Z</time>
      </trkpt>
      <trkpt lat="50.706700" lon="6.343852">
        <ele>366.880240</ele>
        <time>2009-09-13T20:11:59Z</time>
      </trkpt>
      <trkpt lat="50.706831" lon="6.343916">
        <ele>362.073730</ele>
        <time>2009-09-13T20:12:04Z</time>
      </trkpt>
      <trkpt lat="50.706866" lon="6.343936">
        <ele>362.554320</ele>
        <time>2009-09-13T20:12:06Z</time>
      </trkpt>
      <trkpt lat="50.706962" lon="6.344024">
        <ele>370.244870</ele>
        <time>2009-09-13T20:12:10Z</time>
      </trkpt>
      <trkpt lat="50.707022" lon="6.344031">
        <ele>368.802970</ele>
        <time>2009-09-13T20:12:12Z</time>
      </trkpt>
      <trkpt lat="50.707091" lon="6.344123">
        <ele>365.918940</ele>
        <time>2009-09-13T20:12:16Z</time>
      </trkpt>
      <trkpt lat="50.707136" lon="6.344172">
        <ele>366.399530</ele>
        <time>2009-09-13T20:12:18Z</time>
      </trkpt>
      <trkpt lat="50.707198" lon="6.344301">
        <ele>363.996330</ele>
        <time>2009-09-13T20:12:22Z</time>
      </trkpt>
      <trkpt lat="50.707281" lon="6.344409">
        <ele>363.515740</ele>
        <time>2009-09-13T20:12:27Z</time>
      </trkpt>
      <trkpt lat="50.707346" lon="6.344502">
        <ele>357.267080</ele>
        <time>2009-09-13T20:12:30Z</time>
      </trkpt>
      <trkpt lat="50.707372" lon="6.344541">
        <ele>354.863760</ele>
        <time>2009-09-13T20:12:32Z</time>
      </trkpt>
      <trkpt lat="50.707375" lon="6.344670">
        <ele>363.515740</ele>
        <time>2009-09-13T20:12:35Z</time>
      </trkpt>
      <trkpt lat="50.707385" lon="6.344682">
        <ele>364.476920</ele>
        <time>2009-09-13T20:12:35Z</time>
      </trkpt>
      <trkpt lat="50.707361" lon="6.344744">
        <ele>370.244870</ele>
        <time>2009-09-13T20:12:37Z</time>
      </trkpt>
      <trkpt lat="50.707361" lon="6.344762">
        <ele>371.686880</ele>
        <time>2009-09-13T20:12:38Z</time>
      </trkpt>
      <trkpt lat="50.707346" lon="6.344751">
        <ele>371.206290</ele>
        <time>2009-09-13T20:12:38Z</time>
      </trkpt>
      <trkpt lat="50.707345" lon="6.344798">
        <ele>375.051510</ele>
        <time>2009-09-13T20:12:40Z</time>
      </trkpt>
      <trkpt lat="50.707380" lon="6.344920">
        <ele>377.935420</ele>
        <time>2009-09-13T20:12:43Z</time>
      </trkpt>
      <trkpt lat="50.707542" lon="6.344940">
        <ele>382.261350</ele>
        <time>2009-09-13T20:12:49Z</time>
      </trkpt>
      <trkpt lat="50.707603" lon="6.344870">
        <ele>392.355340</ele>
        <time>2009-09-13T20:12:52Z</time>
      </trkpt>
      <trkpt lat="50.707649" lon="6.344888">
        <ele>393.316520</ele>
        <time>2009-09-13T20:12:54Z</time>
      </trkpt>
      <trkpt lat="50.707727" lon="6.344993">
        <ele>388.029290</ele>
        <time>2009-09-13T20:12:58Z</time>
      </trkpt>
      <trkpt lat="50.707809" lon="6.345066">
        <ele>386.587400</ele>
        <time>2009-09-13T20:13:02Z</time>
      </trkpt>
      <trkpt lat="50.707852" lon="6.345100">
        <ele>398.123160</ele>
        <time>2009-09-13T20:13:04Z</time>
      </trkpt>
      <trkpt lat="50.707853" lon="6.345125">
        <ele>399.565060</ele>
        <time>2009-09-13T20:13:05Z</time>
      </trkpt>
      <trkpt lat="50.708053" lon="6.345289">
        <ele>389.471190</ele>
        <time>2009-09-13T20:13:14Z</time>
      </trkpt>
      <trkpt lat="50.708108" lon="6.345342">
        <ele>385.625970</ele>
        <time>2009-09-13T20:13:16Z</time>
      </trkpt>
      <trkpt lat="50.708148" lon="6.345497">
        <ele>383.703240</ele>
        <time>2009-09-13T20:13:21Z</time>
      </trkpt>
      <trkpt lat="50.708159" lon="6.345663">
        <ele>380.819450</ele>
        <time>2009-09-13T20:13:25Z</time>
      </trkpt>
      <trkpt lat="50.708245" lon="6.345765">
        <ele>380.819450</ele>
        <time>2009-09-13T20:13:29Z</time>
      </trkpt>
      <trkpt lat="50.708255" lon="6.345782">
        <ele>379.858030</ele>
        <time>2009-09-13T20:13:30Z</time>
      </trkpt>
      <trkpt lat="50.708358" lon="6.345816">
        <ele>379.377440</ele>
        <time>2009-09-13T20:13:34Z</time>
      </trkpt>
      <trkpt lat="50.708444" lon="6.345795">
        <ele>381.300040</ele>
        <time>2009-09-13T20:13:37Z</time>
      </trkpt>
      <trkpt lat="50.708492" lon="6.345747">
        <ele>379.858030</ele>
        <time>2009-09-13T20:13:40Z</time>
      </trkpt>
      <trkpt lat="50.708574" lon="6.345720">
        <ele>381.300040</ele>
        <time>2009-09-13T20:13:43Z</time>
      </trkpt>
      <trkpt lat="50.708589" lon="6.345707">
        <ele>380.819450</ele>
        <time>2009-09-13T20:13:44Z</time>
      </trkpt>
      <trkpt lat="50.708669" lon="6.345691">
        <ele>383.703240</ele>
        <time>2009-09-13T20:13:47Z</time>
      </trkpt>
      <trkpt lat="50.708694" lon="6.345678">
        <ele>385.145380</ele>
        <time>2009-09-13T20:13:48Z</time>
      </trkpt>
      <trkpt lat="50.708791" lon="6.345689">
        <ele>386.106680</ele>
        <time>2009-09-13T20:13:52Z</time>
      </trkpt>
      <trkpt lat="50.708808" lon="6.345743">
        <ele>385.145380</ele>
        <time>2009-09-13T20:13:53Z</time>
      </trkpt>
      <trkpt lat="50.708839" lon="6.345853">
        <ele>386.587400</ele>
        <time>2009-09-13T20:13:56Z</time>
      </trkpt>
      <trkpt lat="50.708821" lon="6.345932">
        <ele>385.625970</ele>
        <time>2009-09-13T20:13:59Z</time>
      </trkpt>
      <trkpt lat="50.708863" lon="6.345987">
        <ele>389.471190</ele>
        <time>2009-09-13T20:14:01Z</time>
      </trkpt>
      <trkpt lat="50.708916" lon="6.346044">
        <ele>388.029290</ele>
        <time>2009-09-13T20:14:03Z</time>
      </trkpt>
      <trkpt lat="50.709053" lon="6.346090">
        <ele>388.029290</ele>
        <time>2009-09-13T20:14:09Z</time>
      </trkpt>
      <trkpt lat="50.709083" lon="6.346018">
        <ele>388.029290</ele>
        <time>2009-09-13T20:14:11Z</time>
      </trkpt>
      <trkpt lat="50.709120" lon="6.345933">
        <ele>385.145380</ele>
        <time>2009-09-13T20:14:14Z</time>
      </trkpt>
      <trkpt lat="50.709168" lon="6.345858">
        <ele>381.780630</ele>
        <time>2009-09-13T20:14:16Z</time>
      </trkpt>
      <trkpt lat="50.709209" lon="6.345777">
        <ele>381.300040</ele>
        <time>2009-09-13T20:14:19Z</time>
      </trkpt>
      <trkpt lat="50.709253" lon="6.345721">
        <ele>381.300040</ele>
        <time>2009-09-13T20:14:21Z</time>
      </trkpt>
      <trkpt lat="50.709289" lon="6.345668">
        <ele>380.819450</ele>
        <time>2009-09-13T20:14:23Z</time>
      </trkpt>
      <trkpt lat="50.709342" lon="6.345591">
        <ele>381.300040</ele>
        <time>2009-09-13T20:14:26Z</time>
      </trkpt>
      <trkpt lat="50.709357" lon="6.345556">
        <ele>383.703240</ele>
        <time>2009-09-13T20:14:27Z</time>
      </trkpt>
      <trkpt lat="50.709404" lon="6.345429">
        <ele>382.261350</ele>
        <time>2009-09-13T20:14:31Z</time>
      </trkpt>
      <trkpt lat="50.709458" lon="6.345313">
        <ele>383.222650</ele>
        <time>2009-09-13T20:14:35Z</time>
      </trkpt>
      <trkpt lat="50.709436" lon="6.345196">
        <ele>389.471190</ele>
        <time>2009-09-13T20:14:38Z</time>
      </trkpt>
      <trkpt lat="50.709507" lon="6.345099">
        <ele>388.990600</ele>
        <time>2009-09-13T20:14:42Z</time>
      </trkpt>
      <trkpt lat="50.709540" lon="6.345045">
        <ele>389.471190</ele>
        <time>2009-09-13T20:14:43Z</time>
      </trkpt>
      <trkpt lat="50.709606" lon="6.344974">
        <ele>389.471190</ele>
        <time>2009-09-13T20:14:47Z</time>
      </trkpt>
      <trkpt lat="50.709675" lon="6.344940">
        <ele>388.510000</ele>
        <time>2009-09-13T20:14:50Z</time>
      </trkpt>
      <trkpt lat="50.709740" lon="6.344888">
        <ele>388.510000</ele>
        <time>2009-09-13T20:14:52Z</time>
      </trkpt>
      <trkpt lat="50.709801" lon="6.344850">
        <ele>388.990600</ele>
        <time>2009-09-13T20:14:55Z</time>
      </trkpt>
      <trkpt lat="50.709846" lon="6.344849">
        <ele>387.067990</ele>
        <time>2009-09-13T20:14:57Z</time>
      </trkpt>
      <trkpt lat="50.709927" lon="6.344832">
        <ele>389.951900</ele>
        <time>2009-09-13T20:15:00Z</time>
      </trkpt>
      <trkpt lat="50.709992" lon="6.344792">
        <ele>390.432610</ele>
        <time>2009-09-13T20:15:03Z</time>
      </trkpt>
      <trkpt lat="50.710006" lon="6.344751">
        <ele>391.874510</ele>
        <time>2009-09-13T20:15:04Z</time>
      </trkpt>
      <trkpt lat="50.710070" lon="6.344710">
        <ele>389.471190</ele>
        <time>2009-09-13T20:15:07Z</time>
      </trkpt>
      <trkpt lat="50.710093" lon="6.344721">
        <ele>388.029290</ele>
        <time>2009-09-13T20:15:08Z</time>
      </trkpt>
      <trkpt lat="50.710195" lon="6.344671">
        <ele>384.184080</ele>
        <time>2009-09-13T20:15:12Z</time>
      </trkpt>
      <trkpt lat="50.710280" lon="6.344598">
        <ele>382.261350</ele>
        <time>2009-09-13T20:15:16Z</time>
      </trkpt>
      <trkpt lat="50.710369" lon="6.344530">
        <ele>380.819450</ele>
        <time>2009-09-13T20:15:20Z</time>
      </trkpt>
      <trkpt lat="50.710413" lon="6.344485">
        <ele>379.858030</ele>
        <time>2009-09-13T20:15:22Z</time>
      </trkpt>
      <trkpt lat="50.710670" lon="6.344501">
        <ele>362.073730</ele>
        <time>2009-09-13T20:15:32Z</time>
      </trkpt>
      <trkpt lat="50.710828" lon="6.344567">
        <ele>359.670410</ele>
        <time>2009-09-13T20:15:39Z</time>
      </trkpt>
      <trkpt lat="50.710939" lon="6.344583">
        <ele>359.189690</ele>
        <time>2009-09-13T20:15:43Z</time>
      </trkpt>
      <trkpt lat="50.710991" lon="6.344658">
        <ele>356.786370</ele>
        <time>2009-09-13T20:15:46Z</time>
      </trkpt>
      <trkpt lat="50.711064" lon="6.344750">
        <ele>356.305780</ele>
        <time>2009-09-13T20:15:50Z</time>
      </trkpt>
      <trkpt lat="50.711108" lon="6.344815">
        <ele>358.708980</ele>
        <time>2009-09-13T20:15:52Z</time>
      </trkpt>
      <trkpt lat="50.711074" lon="6.344960">
        <ele>356.786370</ele>
        <time>2009-09-13T20:15:56Z</time>
      </trkpt>
      <trkpt lat="50.711058" lon="6.345059">
        <ele>358.228390</ele>
        <time>2009-09-13T20:15:59Z</time>
      </trkpt>
      <trkpt lat="50.711025" lon="6.345138">
        <ele>356.786370</ele>
        <time>2009-09-13T20:16:01Z</time>
      </trkpt>
      <trkpt lat="50.710999" lon="6.345317">
        <ele>359.189690</ele>
        <time>2009-09-13T20:16:06Z</time>
      </trkpt>
      <trkpt lat="50.710969" lon="6.345549">
        <ele>365.918940</ele>
        <time>2009-09-13T20:16:12Z</time>
      </trkpt>
      <trkpt lat="50.710920" lon="6.345610">
        <ele>363.996330</ele>
        <time>2009-09-13T20:16:14Z</time>
      </trkpt>
      <trkpt lat="50.710866" lon="6.345718">
        <ele>363.515740</ele>
        <time>2009-09-13T20:16:18Z</time>
      </trkpt>
      <trkpt lat="50.710819" lon="6.345934">
        <ele>372.167480</ele>
        <time>2009-09-13T20:16:24Z</time>
      </trkpt>
      <trkpt lat="50.710722" lon="6.346006">
        <ele>375.532100</ele>
        <time>2009-09-13T20:16:28Z</time>
      </trkpt>
      <trkpt lat="50.710709" lon="6.346013">
        <ele>375.532100</ele>
        <time>2009-09-13T20:16:28Z</time>
      </trkpt>
      <trkpt lat="50.710602" lon="6.346067">
        <ele>377.935420</ele>
        <time>2009-09-13T20:16:33Z</time>
      </trkpt>
      <trkpt lat="50.710566" lon="6.346131">
        <ele>375.051510</ele>
        <time>2009-09-13T20:16:35Z</time>
      </trkpt>
      <trkpt lat="50.710497" lon="6.346243">
        <ele>369.283690</ele>
        <time>2009-09-13T20:16:39Z</time>
      </trkpt>
      <trkpt lat="50.710484" lon="6.346348">
        <ele>365.918940</ele>
        <time>2009-09-13T20:16:42Z</time>
      </trkpt>
      <trkpt lat="50.710531" lon="6.346489">
        <ele>369.283690</ele>
        <time>2009-09-13T20:16:46Z</time>
      </trkpt>
      <trkpt lat="50.710547" lon="6.346544">
        <ele>371.686880</ele>
        <time>2009-09-13T20:16:47Z</time>
      </trkpt>
      <trkpt lat="50.710559" lon="6.346553">
        <ele>372.167480</ele>
        <time>2009-09-13T20:16:48Z</time>
      </trkpt>
      <trkpt lat="50.710578" lon="6.346572">
        <ele>373.128900</ele>
        <time>2009-09-13T20:16:49Z</time>
      </trkpt>
      <trkpt lat="50.710602" lon="6.346658">
        <ele>373.128900</ele>
        <time>2009-09-13T20:16:51Z</time>
      </trkpt>
      <trkpt lat="50.710667" lon="6.346761">
        <ele>374.090080</ele>
        <time>2009-09-13T20:16:55Z</time>
      </trkpt>
      <trkpt lat="50.710701" lon="6.346876">
        <ele>375.532100</ele>
        <time>2009-09-13T20:16:58Z</time>
      </trkpt>
      <trkpt lat="50.710696" lon="6.346939">
        <ele>377.454830</ele>
        <time>2009-09-13T20:17:00Z</time>
      </trkpt>
      <trkpt lat="50.710679" lon="6.347075">
        <ele>376.974240</ele>
        <time>2009-09-13T20:17:03Z</time>
      </trkpt>
      <trkpt lat="50.710647" lon="6.347212">
        <ele>378.896850</ele>
        <time>2009-09-13T20:17:07Z</time>
      </trkpt>
      <trkpt lat="50.710641" lon="6.347386">
        <ele>379.858030</ele>
        <time>2009-09-13T20:17:11Z</time>
      </trkpt>
      <trkpt lat="50.710627" lon="6.347499">
        <ele>379.377440</ele>
        <time>2009-09-13T20:17:14Z</time>
      </trkpt>
      <trkpt lat="50.710627" lon="6.347515">
        <ele>379.377440</ele>
        <time>2009-09-13T20:17:15Z</time>
      </trkpt>
      <trkpt lat="50.710617" lon="6.347666">
        <ele>377.935420</ele>
        <time>2009-09-13T20:17:18Z</time>
      </trkpt>
      <trkpt lat="50.710612" lon="6.347760">
        <ele>377.935420</ele>
        <time>2009-09-13T20:17:21Z</time>
      </trkpt>
      <trkpt lat="50.710614" lon="6.347792">
        <ele>378.896850</ele>
        <time>2009-09-13T20:17:22Z</time>
      </trkpt>
      <trkpt lat="50.710625" lon="6.347897">
        <ele>379.377440</ele>
        <time>2009-09-13T20:17:24Z</time>
      </trkpt>
      <trkpt lat="50.710612" lon="6.348094">
        <ele>377.454830</ele>
        <time>2009-09-13T20:17:29Z</time>
      </trkpt>
      <trkpt lat="50.710591" lon="6.348203">
        <ele>373.609490</ele>
        <time>2009-09-13T20:17:32Z</time>
      </trkpt>
      <trkpt lat="50.710571" lon="6.348300">
        <ele>371.686880</ele>
        <time>2009-09-13T20:17:35Z</time>
      </trkpt>
      <trkpt lat="50.710559" lon="6.348417">
        <ele>371.206290</ele>
        <time>2009-09-13T20:17:38Z</time>
      </trkpt>
      <trkpt lat="50.710534" lon="6.348598">
        <ele>370.725580</ele>
        <time>2009-09-13T20:17:43Z</time>
      </trkpt>
      <trkpt lat="50.710499" lon="6.348720">
        <ele>370.244870</ele>
        <time>2009-09-13T20:17:46Z</time>
      </trkpt>
      <trkpt lat="50.710455" lon="6.348825">
        <ele>369.764280</ele>
        <time>2009-09-13T20:17:49Z</time>
      </trkpt>
      <trkpt lat="50.710438" lon="6.348971">
        <ele>371.686880</ele>
        <time>2009-09-13T20:17:53Z</time>
      </trkpt>
      <trkpt lat="50.710426" lon="6.349060">
        <ele>377.454830</ele>
        <time>2009-09-13T20:17:55Z</time>
      </trkpt>
      <trkpt lat="50.710369" lon="6.349177">
        <ele>381.300040</ele>
        <time>2009-09-13T20:17:59Z</time>
      </trkpt>
      <trkpt lat="50.710357" lon="6.349229">
        <ele>381.780630</ele>
        <time>2009-09-13T20:18:00Z</time>
      </trkpt>
      <trkpt lat="50.710380" lon="6.349420">
        <ele>387.548580</ele>
        <time>2009-09-13T20:18:05Z</time>
      </trkpt>
      <trkpt lat="50.710371" lon="6.349448">
        <ele>390.913200</ele>
        <time>2009-09-13T20:18:06Z</time>
      </trkpt>
      <trkpt lat="50.710321" lon="6.349606">
        <ele>397.161740</ele>
        <time>2009-09-13T20:18:11Z</time>
      </trkpt>
      <trkpt lat="50.710321" lon="6.349673">
        <ele>396.200560</ele>
        <time>2009-09-13T20:18:12Z</time>
      </trkpt>
      <trkpt lat="50.710292" lon="6.349785">
        <ele>396.200560</ele>
        <time>2009-09-13T20:18:15Z</time>
      </trkpt>
      <trkpt lat="50.710279" lon="6.349916">
        <ele>396.681150</ele>
        <time>2009-09-13T20:18:19Z</time>
      </trkpt>
      <trkpt lat="50.710258" lon="6.349981">
        <ele>396.200560</ele>
        <time>2009-09-13T20:18:21Z</time>
      </trkpt>
      <trkpt lat="50.710234" lon="6.350077">
        <ele>398.603750</ele>
        <time>2009-09-13T20:18:23Z</time>
      </trkpt>
      <trkpt lat="50.710236" lon="6.350189">
        <ele>397.161740</ele>
        <time>2009-09-13T20:18:26Z</time>
      </trkpt>
      <trkpt lat="50.710239" lon="6.350350">
        <ele>399.084350</ele>
        <time>2009-09-13T20:18:30Z</time>
      </trkpt>
      <trkpt lat="50.710230" lon="6.350475">
        <ele>396.681150</ele>
        <time>2009-09-13T20:18:33Z</time>
      </trkpt>
      <trkpt lat="50.710230" lon="6.350594">
        <ele>392.355340</ele>
        <time>2009-09-13T20:18:36Z</time>
      </trkpt>
      <trkpt lat="50.710243" lon="6.350661">
        <ele>388.510000</ele>
        <time>2009-09-13T20:18:38Z</time>
      </trkpt>
      <trkpt lat="50.710266" lon="6.350752">
        <ele>385.625970</ele>
        <time>2009-09-13T20:18:41Z</time>
      </trkpt>
      <trkpt lat="50.710296" lon="6.350776">
        <ele>386.587400</ele>
        <time>2009-09-13T20:18:42Z</time>
      </trkpt>
      <trkpt lat="50.710311" lon="6.350777">
        <ele>386.587400</ele>
        <time>2009-09-13T20:18:42Z</time>
      </trkpt>
      <trkpt lat="50.710496" lon="6.350699">
        <ele>385.145380</ele>
        <time>2009-09-13T20:18:50Z</time>
      </trkpt>
      <trkpt lat="50.710558" lon="6.350693">
        <ele>383.703240</ele>
        <time>2009-09-13T20:18:53Z</time>
      </trkpt>
      <trkpt lat="50.710619" lon="6.350664">
        <ele>386.106680</ele>
        <time>2009-09-13T20:18:55Z</time>
      </trkpt>
      <trkpt lat="50.710729" lon="6.350597">
        <ele>387.067990</ele>
        <time>2009-09-13T20:19:00Z</time>
      </trkpt>
      <trkpt lat="50.710779" lon="6.350598">
        <ele>390.432610</ele>
        <time>2009-09-13T20:19:02Z</time>
      </trkpt>
      <trkpt lat="50.710843" lon="6.350631">
        <ele>391.874510</ele>
        <time>2009-09-13T20:19:05Z</time>
      </trkpt>
      <trkpt lat="50.710913" lon="6.350681">
        <ele>395.239130</ele>
        <time>2009-09-13T20:19:08Z</time>
      </trkpt>
      <trkpt lat="50.710919" lon="6.350727">
        <ele>400.526480</ele>
        <time>2009-09-13T20:19:09Z</time>
      </trkpt>
      <trkpt lat="50.711006" lon="6.350793">
        <ele>398.603750</ele>
        <time>2009-09-13T20:19:13Z</time>
      </trkpt>
      <trkpt lat="50.711073" lon="6.350839">
        <ele>396.200560</ele>
        <time>2009-09-13T20:19:16Z</time>
      </trkpt>
      <trkpt lat="50.711112" lon="6.350860">
        <ele>397.161740</ele>
        <time>2009-09-13T20:19:17Z</time>
      </trkpt>
      <trkpt lat="50.711162" lon="6.350947">
        <ele>394.758540</ele>
        <time>2009-09-13T20:19:20Z</time>
      </trkpt>
      <trkpt lat="50.711218" lon="6.351025">
        <ele>392.835930</ele>
        <time>2009-09-13T20:19:23Z</time>
      </trkpt>
      <trkpt lat="50.711275" lon="6.351093">
        <ele>393.316520</ele>
        <time>2009-09-13T20:19:26Z</time>
      </trkpt>
      <trkpt lat="50.711346" lon="6.351181">
        <ele>389.951900</ele>
        <time>2009-09-13T20:19:30Z</time>
      </trkpt>
      <trkpt lat="50.711360" lon="6.351256">
        <ele>392.355340</ele>
        <time>2009-09-13T20:19:32Z</time>
      </trkpt>
      <trkpt lat="50.711388" lon="6.351369">
        <ele>394.758540</ele>
        <time>2009-09-13T20:19:35Z</time>
      </trkpt>
      <trkpt lat="50.711451" lon="6.351466">
        <ele>397.642450</ele>
        <time>2009-09-13T20:19:38Z</time>
      </trkpt>
      <trkpt lat="50.711469" lon="6.351484">
        <ele>397.642450</ele>
        <time>2009-09-13T20:19:39Z</time>
      </trkpt>
      <trkpt lat="50.711523" lon="6.351516">
        <ele>396.200560</ele>
        <time>2009-09-13T20:19:41Z</time>
      </trkpt>
      <trkpt lat="50.711629" lon="6.351627">
        <ele>393.797240</ele>
        <time>2009-09-13T20:19:47Z</time>
      </trkpt>
      <trkpt lat="50.711659" lon="6.351674">
        <ele>392.835930</ele>
        <time>2009-09-13T20:19:48Z</time>
      </trkpt>
      <trkpt lat="50.711711" lon="6.351731">
        <ele>390.913200</ele>
        <time>2009-09-13T20:19:51Z</time>
      </trkpt>
      <trkpt lat="50.711786" lon="6.351907">
        <ele>393.797240</ele>
        <time>2009-09-13T20:19:56Z</time>
      </trkpt>
      <trkpt lat="50.711793" lon="6.352043">
        <ele>398.123160</ele>
        <time>2009-09-13T20:20:00Z</time>
      </trkpt>
      <trkpt lat="50.711791" lon="6.352134">
        <ele>401.007080</ele>
        <time>2009-09-13T20:20:02Z</time>
      </trkpt>
      <trkpt lat="50.711855" lon="6.352261">
        <ele>400.526480</ele>
        <time>2009-09-13T20:20:06Z</time>
      </trkpt>
      <trkpt lat="50.711864" lon="6.352415">
        <ele>402.929680</ele>
        <time>2009-09-13T20:20:10Z</time>
      </trkpt>
      <trkpt lat="50.711911" lon="6.352601">
        <ele>399.084350</ele>
        <time>2009-09-13T20:20:15Z</time>
      </trkpt>
      <trkpt lat="50.711873" lon="6.352751">
        <ele>397.642450</ele>
        <time>2009-09-13T20:20:19Z</time>
      </trkpt>
      <trkpt lat="50.711829" lon="6.352831">
        <ele>398.123160</ele>
        <time>2009-09-13T20:20:22Z</time>
      </trkpt>
      <trkpt lat="50.711793" lon="6.352922">
        <ele>399.084350</ele>
        <time>2009-09-13T20:20:25Z</time>
      </trkpt>
      <trkpt lat="50.711779" lon="6.352936">
        <ele>399.565060</ele>
        <time>2009-09-13T20:20:25Z</time>
      </trkpt>
      <trkpt lat="50.711756" lon="6.353029">
        <ele>401.007080</ele>
        <time>2009-09-13T20:20:28Z</time>
      </trkpt>
      <trkpt lat="50.711748" lon="6.353181">
        <ele>400.045890</ele>
        <time>2009-09-13T20:20:32Z</time>
      </trkpt>
      <trkpt lat="50.711751" lon="6.353274">
        <ele>397.642450</ele>
        <time>2009-09-13T20:20:34Z</time>
      </trkpt>
      <trkpt lat="50.711718" lon="6.353378">
        <ele>398.603750</ele>
        <time>2009-09-13T20:20:37Z</time>
      </trkpt>
      <trkpt lat="50.711733" lon="6.353420">
        <ele>398.123160</ele>
        <time>2009-09-13T20:20:38Z</time>
      </trkpt>
      <trkpt lat="50.711749" lon="6.353540">
        <ele>400.526480</ele>
        <time>2009-09-13T20:20:41Z</time>
      </trkpt>
      <trkpt lat="50.711703" lon="6.353640">
        <ele>400.526480</ele>
        <time>2009-09-13T20:20:44Z</time>
      </trkpt>
      <trkpt lat="50.711658" lon="6.353720">
        <ele>402.449090</ele>
        <time>2009-09-13T20:20:47Z</time>
      </trkpt>
      <trkpt lat="50.711647" lon="6.353848">
        <ele>401.487790</ele>
        <time>2009-09-13T20:20:50Z</time>
      </trkpt>
      <trkpt lat="50.711615" lon="6.353887">
        <ele>400.526480</ele>
        <time>2009-09-13T20:20:52Z</time>
      </trkpt>
      <trkpt lat="50.711613" lon="6.353888">
        <ele>401.007080</ele>
        <time>2009-09-13T20:20:52Z</time>
      </trkpt>
      <trkpt lat="50.711632" lon="6.353913">
        <ele>399.565060</ele>
        <time>2009-09-13T20:20:53Z</time>
      </trkpt>
    </trkseg>
  </trk>

</gpx>
